[[{"header":{"parameterUnit":"m.s-1","parameterCategory":1,"la1":31.0,"la2":29.5877,"lo1":-88.7671,"lo2":-86.6584,"dx":0.0162,"dy":0.0185,"nx":115,"ny":88,"refTime":"2023-01-24T06:00:00:Z","depth":0,"parameterNumber":2,"parameterNumberName":"U-component_of_WINDS"},"data":[0.0,0.0,0.0,0.0,0.0,0.0,0.0,0.0,0.0,0.0,0.0,0.0,0.0,0.0,0.0,0.0,0.0,0.0,0.0,0.0,0.0,0.0,0.0,0.0,0.0,0.0,0.0,0.0,0.0,0.0,0.0,0.0,0.0,0.0,0.0,0.0,0.0,0.0,0.0,0.0,0.0,0.0,0.0,0.0,0.0,0.0,0.0,0.0,0.0,0.0,0.0,0.0,0.0,0.0,0.0,0.0,0.0,0.0,0.0,0.0,0.0,0.0,0.0,0.0,0.0,0.0,0.0,0.0,0.0,0.0,0.0,0.0,0.0,0.0,0.0,0.0,0.0,0.0,0.0,0.0,0.0,0.0,0.0,0.0,0.0,0.0,0.0,0.0,0.0,0.0,0.0,0.0,0.0,0.0,0.0,0.0,0.0,0.0,0.0,0.0,0.0,0.0,0.0,0.0,0.0,0.0,0.0,0.0,0.0,0.0,0.0,0.0,0.0,0.0,0.0,0.0,0.0,0.0,0.0,0.0,0.0,0.0,0.0,0.0,0.0,0.0,0.0,0.0,0.0,0.0,0.0,0.0,0.0,0.0,0.0,0.0,0.0,0.0,0.0,0.0,0.0,0.0,0.0,0.0,0.0,0.0,0.0,0.0,0.0,0.0,0.0,0.0,0.0,0.0,0.0,0.0,0.0,0.0,0.0,0.0,0.0,0.0,0.0,0.0,0.0,0.0,0.0,0.0,0.0,0.0,0.0,0.0,0.0,0.0,0.0,0.0,0.0,0.0,0.0,0.0,0.0,0.0,0.0,0.0,0.0,0.0,0.0,0.0,0.0,0.0,0.0,0.0,0.0,0.0,0.0,0.0,0.0,0.0,0.0,0.0,0.0,0.0,0.0,0.0,0.0,0.0,0.0,0.0,0.0,0.0,0.0,0.0,0.0,0.0,0.0,0.0,0.0,0.0,0.0,0.0,0.0,0.0,0.0,0.0,0.0,0.0,0.0,0.0,0.0,0.0,0.0,0.0,0.0,0.0,0.0,0.0,0.0,0.0,0.0,0.0,0.0,0.0,0.0,0.0,0.0,0.0,0.0,0.0,0.0,0.0,0.0,0.0,0.0,0.0,0.0,0.0,0.0,0.0,0.0,0.0,0.0,0.0,0.0,0.0,0.0,0.0,0.0,0.0,0.0,0.0,0.0,0.0,0.0,0.0,0.0,0.0,0.0,0.0,0.0,0.0,0.0,0.0,0.0,0.0,0.0,0.0,0.0,0.0,0.0,0.0,0.0,0.0,0.0,0.0,0.0,0.0,0.0,0.0,0.0,0.0,0.0,0.0,0.0,0.0,0.0,0.0,0.0,0.0,0.0,0.0,0.0,0.0,0.0,0.0,0.0,0.0,0.0,0.0,0.0,0.0,0.0,0.0,0.0,0.0,0.0,0.0,0.0,0.0,0.0,0.0,0.0,0.0,0.0,0.0,0.0,0.0,0.0,0.0,0.0,0.0,0.0,0.0,0.0,0.0,0.0,0.0,0.0,0.0,0.0,0.0,0.0,0.0,0.0,0.0,0.0,0.0,0.0,0.0,0.0,0.0,0.0,0.0,0.0,0.0,0.0,0.0,0.0,0.0,0.0,0.0,0.0,0.0,0.0,0.0,0.0,0.0,0.0,0.0,0.0,0.0,0.0,0.0,0.0,0.0,0.0,0.0,0.0,0.0,0.0,0.0,0.0,0.0,0.0,0.0,0.0,0.0,0.0,0.0,0.0,0.0,0.0,0.0,0.0,0.0,0.0,0.0,0.0,0.0,0.0,0.0,0.0,0.0,0.0,0.0,0.0,0.0,0.0,0.0,0.0,0.0,0.0,0.0,0.0,0.0,0.0,0.0,0.0,0.0,0.0,0.0,0.0,0.0,0.0,0.0,0.0,0.0,0.0,0.0,0.0,0.0,0.0,0.0,0.0,0.0,0.0,0.0,0.0,0.0,0.0,0.0,0.0,0.0,0.0,0.0,0.0,0.0,0.0,0.0,0.0,0.0,0.0,0.0,0.0,0.0,0.0,0.0,0.0,0.0,0.0,0.0,0.0,0.0,0.0,0.0,0.0,0.0,0.0,0.0,0.0,0.0,0.0,0.0,0.0,0.0,0.0,0.0,0.0,0.0,0.0,0.0,0.0,0.0,0.0,0.0,0.0,0.0,0.0,0.0,0.0,0.0,0.0,0.0,0.0,0.0,0.0,0.0,0.0,0.0,0.0,0.0,0.0,0.0,0.0,0.0,0.0,0.0,0.0,0.0,0.0,0.0,0.0,0.0,0.0,0.0,0.0,0.0,0.0,0.0,0.0,0.0,0.0,0.0,0.0,0.0,0.0,0.0,0.0,0.0,0.0,0.0,0.0,0.0,0.0,0.0,0.0,0.0,0.0,0.0,0.0,0.0,0.0,0.0,0.0,0.0,0.0,0.0,0.0,0.0,0.0,0.0,0.0,0.0,0.0,0.0,0.0,0.0,0.0,0.0,0.0,0.0,0.0,0.0,0.0,0.0,0.0,0.0,0.0,0.0,0.0,0.0,0.0,0.0,0.0,0.0,0.0,0.0,0.0,0.0,0.0,0.0,0.0,0.0,0.0,0.0,0.0,0.0,0.0,0.0,0.0,0.0,0.0,0.0,0.0,0.0,0.0,0.0,0.0,0.0,0.0,0.0,0.0,0.0,0.0,0.0,0.0,0.0,0.0,0.0,0.0,0.0,0.0,0.0,0.0,0.0,0.0,0.0,0.0,0.0,0.0,0.0,0.0,0.0,0.0,0.0,0.0,0.0,0.0,0.0,0.0,0.0,0.0,0.0,0.0,0.0,0.0,0.0,0.0,0.0,0.0,0.0,0.0,0.0,0.0,0.0,0.0,0.0,0.0,0.0,0.0,0.0,0.0,0.0,0.0,0.0,0.0,0.0,0.0,0.0,0.0,0.0,0.0,0.0,0.0,0.0,0.0,0.0,0.0,0.0,0.0,0.0,0.0,0.0,0.0,0.0,0.0,0.0,0.0,0.0,0.0,0.0,0.0,0.0,0.0,0.0,0.0,0.0,0.0,0.0,0.0,0.0,0.0,0.0,0.0,0.0,0.0,0.0,0.0,0.0,0.0,0.0,0.0,0.0,0.0,0.0,0.0,0.0,0.0,0.0,0.0,0.0,0.0,0.0,0.0,0.0,0.0,0.0,0.0,0.0,0.0,0.0,0.0,0.0,0.0,0.0,0.0,0.0,0.0,0.0,0.0,0.0,0.0,0.0,0.0,0.0,0.0,0.0,0.0,0.0,0.0,0.0,0.0,0.0,0.0,0.0,0.0,0.0,0.0,0.0,0.0,0.0,0.0,0.0,0.0,0.0,0.0,0.0,0.0,0.0,0.0,0.0,0.0,0.0,0.0,0.0,0.0,0.0,0.0,0.0,0.0,0.0,0.0,0.0,0.0,0.0,0.0,0.0,0.0,0.0,0.0,0.0,0.0,0.0,0.0,0.0,0.0,0.0,0.0,0.0,0.0,0.0,0.0,0.0,0.0,0.0,0.0,0.0,0.0,0.0,0.0,0.0,0.0,0.0,0.0,0.0,0.0,0.0,0.0,0.0,0.0,0.0,0.0,0.0,0.0,0.0,0.0,0.0,0.0,0.0,0.0,0.0,0.0,0.0,0.0,0.0,0.0,0.0,0.0,0.0,0.0,0.0,0.0,0.0,0.0,0.0,0.0,0.0,0.0,0.0,0.0,0.0,0.0,0.0,0.0,0.0,0.0,0.0,0.0,0.0,0.0,0.0,0.0,0.0,0.0,0.0,0.0,0.0,0.0,0.0,0.0,0.0,0.0,0.0,0.0,0.0,0.0,0.0,0.0,0.0,0.0,0.0,0.0,0.0,0.0,0.0,0.0,0.0,0.0,0.0,0.0,0.0,0.0,0.0,0.0,0.0,0.0,0.0,0.0,0.0,0.0,0.0,0.0,0.0,0.0,0.0,0.0,0.0,0.0,0.0,0.0,0.0,0.0,0.0,0.0,0.0,0.0,0.0,0.0,0.0,0.0,0.0,0.0,0.0,0.0,0.0,0.0,0.0,0.0,0.0,0.0,0.0,0.0,0.0,0.0,0.0,0.0,0.0,0.0,0.0,0.0,0.0,0.0,0.0,0.0,0.0,0.0,0.0,0.0,0.0,0.0,0.0,0.0,0.0,0.0,0.0,0.0,0.0,0.0,0.0,0.0,0.0,0.0,0.0,0.0,0.0,0.0,0.0,3.5253,0.0,0.0,0.0,0.0,0.0,0.0,0.0,0.0,0.0,0.0,0.0,0.0,0.0,0.0,0.0,0.0,0.0,0.0,0.0,0.0,0.0,0.0,0.0,0.0,0.0,0.0,0.0,0.0,0.0,0.0,0.0,0.0,0.0,0.0,0.0,0.0,0.0,0.0,0.0,0.0,0.0,0.0,0.0,0.0,0.0,0.0,0.0,0.0,0.0,0.0,0.0,0.0,0.0,0.0,0.0,0.0,0.0,0.0,0.0,0.0,0.0,0.0,0.0,0.0,0.0,0.0,0.0,0.0,0.0,0.0,0.0,0.0,0.0,0.0,0.0,0.0,0.0,0.0,0.0,0.0,0.0,0.0,0.0,0.0,0.0,0.0,0.0,0.0,0.0,0.0,0.0,0.0,0.0,0.0,0.0,0.0,0.0,0.0,0.0,0.0,0.0,0.0,0.0,0.0,0.0,0.0,0.0,0.0,0.0,0.0,3.531,3.6092,3.4438,3.3972,3.5027,0.0,0.0,0.0,0.0,0.0,0.0,0.0,0.0,0.0,0.0,0.0,0.0,0.0,0.0,0.0,0.0,0.0,0.0,0.0,0.0,0.0,0.0,0.0,0.0,0.0,0.0,0.0,0.0,0.0,0.0,0.0,0.0,0.0,0.0,0.0,0.0,0.0,0.0,0.0,0.0,0.0,0.0,0.0,0.0,0.0,0.0,0.0,0.0,0.0,0.0,0.0,0.0,0.0,0.0,0.0,0.0,0.0,0.0,0.0,0.0,0.0,0.0,0.0,0.0,0.0,0.0,0.0,0.0,0.0,0.0,0.0,0.0,0.0,0.0,0.0,0.0,0.0,0.0,0.0,0.0,0.0,0.0,0.0,0.0,0.0,0.0,0.0,0.0,0.0,0.0,0.0,0.0,0.0,0.0,0.0,0.0,0.0,0.0,0.0,0.0,0.0,0.0,0.0,0.0,0.0,0.0,0.0,0.0,0.0,0.0,0.0,0.0,3.46,3.4022,3.4851,0.0,0.0,0.0,0.0,0.0,0.0,0.0,0.0,0.0,0.0,0.0,0.0,0.0,0.0,0.0,0.0,0.0,0.0,0.0,0.0,0.0,0.0,0.0,0.0,0.0,0.0,0.0,0.0,0.0,0.0,0.0,0.0,0.0,0.0,0.0,0.0,0.0,0.0,0.0,0.0,0.0,0.0,0.0,0.0,0.0,0.0,0.0,0.0,0.0,0.0,0.0,0.0,0.0,0.0,0.0,0.0,0.0,0.0,0.0,0.0,0.0,0.0,0.0,0.0,0.0,0.0,0.0,0.0,0.0,0.0,0.0,0.0,0.0,0.0,0.0,0.0,0.0,0.0,0.0,0.0,0.0,0.0,0.0,0.0,0.0,0.0,0.0,0.0,0.0,0.0,0.0,0.0,0.0,0.0,0.0,0.0,0.0,0.0,0.0,0.0,0.0,0.0,0.0,0.0,0.0,0.0,0.0,0.0,0.0,0.0,3.6257,3.6358,3.568,0.0,3.5504,0.0,0.0,0.0,0.0,0.0,0.0,0.0,0.0,0.0,0.0,0.0,0.0,0.0,0.0,0.0,0.0,0.0,0.0,0.0,0.0,0.0,0.0,0.0,0.0,0.0,0.0,0.0,0.0,0.0,0.0,0.0,0.0,0.0,0.0,0.0,0.0,0.0,0.0,0.0,0.0,0.0,0.0,0.0,0.0,0.0,0.0,0.0,0.0,0.0,0.0,0.0,0.0,0.0,0.0,0.0,0.0,0.0,0.0,0.0,0.0,0.0,0.0,0.0,0.0,0.0,0.0,0.0,0.0,0.0,0.0,0.0,0.0,0.0,0.0,0.0,0.0,0.0,0.0,0.0,0.0,0.0,0.0,0.0,0.0,0.0,0.0,0.0,0.0,0.0,0.0,0.0,0.0,0.0,0.0,0.0,0.0,0.0,0.0,0.0,0.0,0.0,0.0,0.0,0.0,0.0,0.0,0.0,0.0,0.0,0.0,3.6358,3.6358,3.583,3.5529,0.0,0.0,0.0,0.0,0.0,0.0,0.0,0.0,0.0,0.0,0.0,0.0,0.0,0.0,0.0,0.0,0.0,0.0,0.0,0.0,0.0,0.0,0.0,0.0,0.0,0.0,0.0,0.0,0.0,0.0,0.0,0.0,0.0,0.0,0.0,0.0,0.0,0.0,0.0,0.0,0.0,0.0,0.0,0.0,0.0,0.0,0.0,0.0,0.0,0.0,0.0,0.0,0.0,0.0,0.0,0.0,0.0,0.0,0.0,0.0,0.0,0.0,0.0,0.0,0.0,0.0,0.0,0.0,0.0,0.0,0.0,0.0,0.0,0.0,0.0,0.0,0.0,0.0,0.0,0.0,0.0,0.0,0.0,0.0,0.0,0.0,0.0,0.0,0.0,0.0,0.0,0.0,0.0,0.0,0.0,0.0,0.0,0.0,0.0,0.0,0.0,0.0,0.0,0.0,0.0,0.0,0.0,0.0,0.0,0.0,3.681,3.6734,3.6709,3.6261,3.6033,3.6033,0.0,0.0,0.0,0.0,0.0,0.0,0.0,0.0,0.0,0.0,0.0,0.0,0.0,0.0,0.0,0.0,0.0,0.0,0.0,0.0,0.0,0.0,0.0,0.0,0.0,0.0,0.0,0.0,0.0,0.0,0.0,0.0,0.0,0.0,0.0,0.0,0.0,0.0,0.0,0.0,0.0,0.0,0.0,0.0,0.0,0.0,0.0,0.0,0.0,0.0,0.0,0.0,0.0,0.0,0.0,0.0,0.0,0.0,0.0,0.0,0.0,0.0,0.0,0.0,0.0,0.0,0.0,0.0,0.0,0.0,0.0,0.0,0.0,0.0,0.0,0.0,0.0,0.0,0.0,0.0,0.0,0.0,0.0,0.0,0.0,0.0,0.0,0.0,0.0,0.0,0.0,0.0,0.0,0.0,0.0,0.0,0.0,0.0,0.0,0.0,0.0,0.0,0.0,0.0,0.0,0.0,0.0,0.0,0.0,3.7484,3.7479,3.7479,3.7428,3.7428,0.0,0.0,0.0,0.0,0.0,0.0,0.0,0.0,0.0,0.0,0.0,0.0,0.0,0.0,0.0,0.0,0.0,0.0,0.0,0.0,0.0,0.0,0.0,0.0,0.0,0.0,0.0,0.0,0.0,0.0,0.0,0.0,0.0,0.0,0.0,0.0,0.0,0.0,0.0,0.0,0.0,0.0,0.0,0.0,0.0,0.0,0.0,0.0,0.0,0.0,0.0,0.0,0.0,0.0,0.0,0.0,0.0,0.0,0.0,0.0,0.0,0.0,0.0,0.0,0.0,0.0,0.0,0.0,0.0,0.0,0.0,0.0,0.0,0.0,0.0,0.0,0.0,0.0,0.0,0.0,0.0,0.0,0.0,0.0,0.0,0.0,0.0,0.0,0.0,0.0,0.0,0.0,0.0,0.0,0.0,0.0,0.0,0.0,0.0,0.0,0.0,0.0,0.0,0.0,0.0,0.0,0.0,0.0,0.0,3.8947,3.9213,3.9203,3.8767,3.837,3.7909,0.0,0.0,0.0,0.0,0.0,0.0,0.0,0.0,0.0,0.0,0.0,0.0,0.0,0.0,0.0,0.0,0.0,0.0,0.0,0.0,0.0,0.0,0.0,0.0,0.0,0.0,0.0,0.0,0.0,0.0,0.0,0.0,0.0,0.0,0.0,0.0,0.0,0.0,0.0,0.0,0.0,0.0,0.0,0.0,0.0,0.0,0.0,0.0,0.0,0.0,0.0,0.0,0.0,0.0,0.0,0.0,0.0,0.0,0.0,0.0,0.0,0.0,0.0,0.0,0.0,0.0,0.0,0.0,0.0,0.0,0.0,0.0,0.0,0.0,0.0,0.0,0.0,0.0,0.0,0.0,0.0,0.0,0.0,0.0,0.0,0.0,0.0,0.0,0.0,0.0,0.0,0.0,0.0,0.0,0.0,0.0,0.0,0.0,0.0,0.0,0.0,0.0,0.0,0.0,0.0,0.0,0.0,0.0,0.0,3.992,0.0,3.9995,0.0,3.9017,3.849,0.0,0.0,0.0,0.0,0.0,0.0,0.0,0.0,0.0,0.0,0.0,0.0,0.0,0.0,0.0,0.0,0.0,0.0,0.0,0.0,0.0,0.0,0.0,0.0,0.0,0.0,0.0,0.0,0.0,0.0,0.0,0.0,0.0,0.0,0.0,0.0,0.0,0.0,0.0,0.0,0.0,0.0,0.0,0.0,0.0,0.0,0.0,0.0,0.0,0.0,0.0,0.0,0.0,0.0,0.0,0.0,0.0,0.0,0.0,0.0,0.0,0.0,0.0,0.0,0.0,0.0,0.0,0.0,0.0,0.0,0.0,0.0,0.0,0.0,0.0,0.0,0.0,0.0,0.0,0.0,0.0,0.0,0.0,0.0,0.0,0.0,0.0,0.0,0.0,0.0,0.0,0.0,0.0,0.0,0.0,0.0,0.0,0.0,0.0,0.0,0.0,0.0,0.0,0.0,0.0,0.0,0.0,0.0,4.0414,4.0576,4.0028,3.9809,3.9672,3.9727,3.9292,0.0,0.0,0.0,0.0,0.0,0.0,0.0,0.0,0.0,0.0,0.0,0.0,0.0,0.0,0.0,0.0,0.0,0.0,0.0,0.0,0.0,0.0,0.0,0.0,0.0,0.0,0.0,0.0,0.0,0.0,0.0,0.0,0.0,0.0,0.0,0.0,0.0,0.0,0.0,0.0,0.0,0.0,0.0,0.0,0.0,0.0,0.0,0.0,0.0,0.0,0.0,0.0,0.0,0.0,0.0,0.0,0.0,0.0,0.0,0.0,0.0,0.0,0.0,0.0,0.0,0.0,0.0,0.0,0.0,0.0,0.0,0.0,0.0,0.0,0.0,0.0,0.0,0.0,0.0,0.0,0.0,0.0,0.0,0.0,0.0,0.0,0.0,0.0,0.0,0.0,0.0,0.0,0.0,0.0,0.0,0.0,0.0,0.0,0.0,0.0,0.0,0.0,0.0,0.0,0.0,0.0,0.0,0.0,0.0,4.3129,4.2663,4.2433,4.2823,4.1562,4.0577,0.0,0.0,0.0,0.0,0.0,0.0,0.0,0.0,0.0,0.0,0.0,0.0,0.0,0.0,0.0,0.0,0.0,0.0,0.0,0.0,0.0,0.0,0.0,0.0,0.0,0.0,0.0,0.0,0.0,0.0,0.0,0.0,0.0,0.0,0.0,0.0,0.0,0.0,0.0,0.0,0.0,0.0,0.0,0.0,0.0,0.0,0.0,0.0,0.0,0.0,0.0,0.0,0.0,0.0,0.0,0.0,0.0,0.0,0.0,0.0,0.0,0.0,0.0,0.0,0.0,0.0,0.0,0.0,0.0,0.0,0.0,0.0,0.0,0.0,0.0,0.0,0.0,0.0,0.0,0.0,0.0,0.0,0.0,0.0,0.0,0.0,0.0,0.0,0.0,0.0,0.0,0.0,0.0,0.0,0.0,0.0,0.0,0.0,0.0,0.0,0.0,0.0,0.0,0.0,0.0,0.0,0.0,0.0,0.0,4.6005,4.4854,4.4167,4.4245,4.3314,4.2122,4.0518,0.0,0.0,0.0,0.0,0.0,0.0,0.0,0.0,0.0,0.0,0.0,0.0,0.0,0.0,0.0,0.0,0.0,0.0,0.0,0.0,0.0,0.0,0.0,0.0,0.0,0.0,0.0,0.0,0.0,0.0,0.0,0.0,0.0,0.0,0.0,0.0,0.0,0.0,0.0,0.0,0.0,0.0,0.0,0.0,0.0,0.0,0.0,0.0,0.0,0.0,0.0,0.0,0.0,0.0,0.0,0.0,0.0,0.0,0.0,0.0,0.0,0.0,0.0,0.0,0.0,0.0,0.0,0.0,0.0,0.0,0.0,0.0,0.0,0.0,0.0,0.0,0.0,0.0,0.0,0.0,0.0,0.0,0.0,0.0,0.0,0.0,0.0,0.0,0.0,0.0,0.0,0.0,0.0,0.0,0.0,0.0,0.0,0.0,0.0,0.0,0.0,0.0,0.0,0.0,0.0,0.0,0.0,0.0,4.9251,4.7014,4.5487,4.4527,4.5052,4.3913,0.0,0.0,0.0,0.0,0.0,0.0,0.0,0.0,0.0,0.0,0.0,0.0,0.0,0.0,0.0,0.0,0.0,0.0,0.0,0.0,0.0,0.0,0.0,0.0,0.0,0.0,0.0,0.0,0.0,0.0,0.0,0.0,0.0,0.0,0.0,0.0,0.0,0.0,0.0,0.0,0.0,0.0,0.0,0.0,0.0,0.0,0.0,0.0,0.0,0.0,0.0,0.0,0.0,0.0,0.0,0.0,0.0,0.0,0.0,0.0,0.0,0.0,0.0,0.0,0.0,0.0,0.0,0.0,0.0,0.0,0.0,0.0,0.0,0.0,0.0,0.0,0.0,0.0,0.0,0.0,0.0,0.0,0.0,0.0,0.0,0.0,0.0,0.0,0.0,0.0,0.0,0.0,0.0,0.0,0.0,0.0,0.0,0.0,0.0,0.0,0.0,0.0,0.0,0.0,0.0,0.0,0.0,0.0,0.0,5.1041,5.2845,5.263,5.0198,4.8276,4.6328,0.0,0.0,0.0,0.0,0.0,0.0,0.0,0.0,0.0,0.0,0.0,0.0,0.0,0.0,0.0,0.0,0.0,0.0,0.0,0.0,0.0,0.0,0.0,0.0,0.0,0.0,0.0,0.0,0.0,0.0,0.0,0.0,0.0,0.0,0.0,0.0,0.0,0.0,0.0,0.0,0.0,0.0,0.0,0.0,0.0,0.0,0.0,0.0,0.0,0.0,0.0,0.0,0.0,0.0,0.0,0.0,0.0,0.0,0.0,0.0,0.0,0.0,0.0,0.0,0.0,0.0,0.0,0.0,0.0,0.0,0.0,0.0,0.0,0.0,0.0,0.0,0.0,0.0,0.0,0.0,0.0,0.0,0.0,0.0,0.0,0.0,0.0,0.0,0.0,0.0,0.0,0.0,0.0,0.0,0.0,0.0,0.0,0.0,0.0,0.0,0.0,0.0,0.0,0.0,0.0,0.0,0.0,0.0,5.1395,5.3604,5.726,5.8361,5.6828,5.3192,4.9623,0.0,0.0,0.0,0.0,0.0,0.0,0.0,0.0,0.0,0.0,0.0,0.0,0.0,0.0,0.0,0.0,0.0,0.0,0.0,0.0,0.0,0.0,0.0,0.0,0.0,0.0,0.0,0.0,0.0,0.0,0.0,0.0,0.0,0.0,0.0,0.0,0.0,0.0,0.0,0.0,0.0,0.0,0.0,0.0,0.0,0.0,0.0,0.0,0.0,0.0,0.0,0.0,0.0,0.0,0.0,0.0,0.0,0.0,0.0,0.0,0.0,0.0,0.0,0.0,0.0,0.0,0.0,0.0,0.0,0.0,0.0,0.0,0.0,0.0,0.0,0.0,0.0,0.0,0.0,0.0,0.0,0.0,0.0,0.0,0.0,0.0,0.0,0.0,0.0,0.0,0.0,0.0,0.0,0.0,0.0,0.0,0.0,0.0,0.0,0.0,0.0,0.0,0.0,0.0,0.0,0.0,0.0,0.0,5.3841,5.6243,6.0354,6.2706,6.3207,5.8395,5.3184,0.0,0.0,0.0,0.0,0.0,0.0,0.0,0.0,0.0,0.0,0.0,0.0,0.0,0.0,0.0,0.0,0.0,0.0,0.0,0.0,0.0,0.0,0.0,0.0,0.0,0.0,0.0,0.0,0.0,0.0,0.0,0.0,0.0,0.0,0.0,0.0,0.0,0.0,0.0,0.0,0.0,0.0,0.0,0.0,0.0,0.0,0.0,0.0,0.0,0.0,0.0,0.0,0.0,0.0,0.0,0.0,0.0,0.0,0.0,0.0,0.0,0.0,0.0,0.0,0.0,0.0,0.0,0.0,0.0,0.0,0.0,0.0,0.0,0.0,0.0,0.0,0.0,0.0,0.0,0.0,0.0,0.0,0.0,0.0,0.0,0.0,0.0,0.0,0.0,0.0,0.0,0.0,0.0,0.0,0.0,0.0,0.0,0.0,0.0,0.0,0.0,0.0,0.0,0.0,0.0,0.0,0.0,0.0,5.43,5.7513,6.2113,6.474,6.5359,5.9477,5.472,0.0,0.0,0.0,0.0,0.0,0.0,0.0,0.0,0.0,0.0,0.0,0.0,0.0,0.0,0.0,0.0,0.0,0.0,0.0,0.0,0.0,0.0,0.0,0.0,0.0,0.0,0.0,0.0,0.0,0.0,0.0,0.0,0.0,0.0,0.0,0.0,0.0,0.0,0.0,0.0,0.0,0.0,0.0,0.0,0.0,0.0,0.0,0.0,4.368,0.0,0.0,0.0,0.0,0.0,0.0,0.0,0.0,0.0,0.0,0.0,0.0,0.0,0.0,0.0,0.0,0.0,0.0,0.0,0.0,0.0,0.0,0.0,0.0,0.0,0.0,0.0,0.0,0.0,0.0,0.0,0.0,0.0,0.0,0.0,0.0,0.0,0.0,0.0,0.0,0.0,0.0,0.0,0.0,0.0,0.0,0.0,0.0,0.0,0.0,0.0,0.0,0.0,0.0,0.0,0.0,0.0,0.0,0.0,5.5538,5.9171,6.3626,6.642,6.7157,6.2439,5.7873,0.0,0.0,0.0,0.0,0.0,0.0,0.0,0.0,0.0,0.0,0.0,0.0,0.0,0.0,0.0,0.0,0.0,0.0,0.0,0.0,0.0,0.0,0.0,0.0,0.0,0.0,0.0,0.0,0.0,0.0,0.0,0.0,0.0,0.0,0.0,0.0,0.0,0.0,0.0,0.0,0.0,0.0,0.0,0.0,0.0,0.0,0.0,0.0,0.0,0.0,0.0,0.0,0.0,0.0,0.0,0.0,0.0,0.0,0.0,0.0,0.0,0.0,0.0,0.0,0.0,0.0,0.0,0.0,0.0,0.0,0.0,0.0,0.0,0.0,0.0,0.0,0.0,0.0,0.0,0.0,0.0,0.0,0.0,0.0,0.0,0.0,0.0,0.0,0.0,0.0,0.0,0.0,0.0,0.0,0.0,0.0,0.0,0.0,0.0,0.0,0.0,0.0,0.0,0.0,0.0,0.0,0.0,5.2687,5.6637,6.0887,6.4901,6.7599,6.8779,6.5453,6.1351,5.6644,0.0,0.0,0.0,0.0,0.0,0.0,0.0,0.0,0.0,0.0,0.0,0.0,0.0,0.0,0.0,0.0,0.0,0.0,0.0,0.0,0.0,0.0,0.0,0.0,0.0,0.0,0.0,0.0,0.0,0.0,0.0,0.0,0.0,0.0,0.0,0.0,0.0,0.0,4.1406,4.2291,0.0,0.0,0.0,0.0,0.0,0.0,0.0,0.0,4.5789,0.0,0.0,0.0,0.0,0.0,0.0,0.0,0.0,0.0,0.0,0.0,0.0,0.0,0.0,0.0,0.0,0.0,0.0,0.0,0.0,0.0,0.0,0.0,0.0,0.0,0.0,0.0,0.0,0.0,0.0,0.0,0.0,0.0,0.0,0.0,0.0,0.0,0.0,0.0,0.0,0.0,0.0,0.0,0.0,0.0,0.0,0.0,0.0,0.0,0.0,0.0,0.0,0.0,0.0,0.0,0.0,5.0901,5.2995,5.6528,6.1765,6.5261,6.7599,6.8779,6.6559,6.3387,5.9273,0.0,0.0,0.0,0.0,0.0,0.0,0.0,0.0,0.0,0.0,0.0,0.0,0.0,0.0,0.0,0.0,0.0,0.0,0.0,0.0,0.0,0.0,0.0,0.0,0.0,0.0,0.0,0.0,0.0,0.0,0.0,0.0,0.0,0.0,0.0,0.0,0.0,0.0,0.0,4.4379,4.5135,0.0,0.0,0.0,0.0,0.0,0.0,0.0,0.0,4.5686,0.0,0.0,0.0,0.0,0.0,0.0,0.0,0.0,0.0,0.0,0.0,0.0,0.0,0.0,0.0,0.0,0.0,0.0,0.0,0.0,0.0,0.0,0.0,0.0,0.0,0.0,0.0,0.0,0.0,0.0,0.0,0.0,0.0,0.0,0.0,0.0,0.0,0.0,0.0,0.0,0.0,0.0,0.0,0.0,0.0,0.0,0.0,0.0,0.0,0.0,0.0,0.0,0.0,0.0,0.0,5.202,5.4079,5.7916,6.3721,6.6294,6.823,6.9512,6.6446,6.318,0.0,0.0,0.0,0.0,0.0,0.0,0.0,0.0,0.0,0.0,0.0,0.0,0.0,0.0,0.0,0.0,0.0,0.0,0.0,0.0,0.0,0.0,0.0,0.0,0.0,0.0,0.0,0.0,0.0,0.0,0.0,0.0,0.0,0.0,0.0,0.0,0.0,0.0,0.0,0.0,4.4999,4.5969,4.43,0.0,0.0,0.0,0.0,0.0,0.0,4.6035,4.6142,0.0,0.0,0.0,0.0,0.0,0.0,0.0,0.0,0.0,0.0,0.0,0.0,0.0,0.0,0.0,0.0,0.0,0.0,0.0,0.0,0.0,0.0,0.0,0.0,0.0,0.0,0.0,0.0,0.0,0.0,0.0,0.0,0.0,0.0,0.0,0.0,0.0,0.0,0.0,0.0,0.0,0.0,0.0,0.0,0.0,0.0,0.0,0.0,0.0,0.0,0.0,0.0,0.0,0.0,0.0,5.2861,5.5269,5.939,6.5275,6.7084,6.8802,7.0248,6.609,6.2735,0.0,0.0,0.0,0.0,0.0,0.0,0.0,0.0,0.0,0.0,0.0,0.0,0.0,0.0,0.0,0.0,0.0,0.0,0.0,0.0,0.0,0.0,0.0,0.0,0.0,0.0,0.0,0.0,0.0,0.0,0.0,0.0,0.0,0.0,0.0,0.0,0.0,0.0,0.0,0.0,0.0,4.682,4.5474,4.6772,0.0,0.0,0.0,0.0,4.7145,4.7611,0.0,0.0,0.0,0.0,0.0,0.0,0.0,0.0,0.0,0.0,0.0,0.0,0.0,0.0,0.0,0.0,0.0,0.0,0.0,0.0,0.0,0.0,0.0,0.0,0.0,0.0,0.0,0.0,0.0,0.0,0.0,0.0,0.0,0.0,0.0,0.0,0.0,0.0,0.0,0.0,0.0,0.0,0.0,0.0,0.0,0.0,0.0,0.0,0.0,0.0,0.0,0.0,0.0,0.0,0.0,0.0,5.353,5.5834,5.9719,6.5275,6.7213,6.8802,7.0278,6.6257,6.3149,0.0,0.0,0.0,0.0,0.0,0.0,0.0,0.0,0.0,0.0,0.0,0.0,0.0,0.0,0.0,0.0,0.0,0.0,0.0,0.0,0.0,0.0,0.0,0.0,0.0,0.0,0.0,0.0,0.0,0.0,0.0,0.0,0.0,0.0,0.0,0.0,0.0,0.0,0.0,0.0,0.0,4.9473,4.718,4.8963,4.9976,0.0,0.0,4.8367,4.9745,5.0326,0.0,0.0,0.0,0.0,0.0,0.0,0.0,0.0,0.0,0.0,0.0,0.0,0.0,0.0,0.0,0.0,0.0,0.0,0.0,0.0,0.0,0.0,0.0,0.0,0.0,0.0,0.0,0.0,0.0,0.0,0.0,0.0,0.0,0.0,0.0,0.0,0.0,0.0,0.0,0.0,0.0,0.0,0.0,0.0,0.0,0.0,0.0,0.0,0.0,0.0,0.0,0.0,0.0,0.0,0.0,5.0325,5.4908,5.7314,6.0932,6.5881,6.7611,6.9057,7.0367,6.5636,6.2499,0.0,0.0,0.0,0.0,0.0,0.0,0.0,0.0,0.0,0.0,0.0,0.0,0.0,0.0,0.0,0.0,0.0,0.0,0.0,0.0,0.0,0.0,0.0,0.0,0.0,0.0,0.0,0.0,0.0,0.0,0.0,0.0,0.0,0.0,0.0,0.0,0.0,0.0,0.0,0.0,0.0,0.0,4.8454,4.9715,0.0,0.0,0.0,5.007,5.125,0.0,0.0,0.0,0.0,0.0,0.0,0.0,0.0,0.0,0.0,0.0,0.0,0.0,0.0,0.0,0.0,0.0,0.0,0.0,0.0,0.0,0.0,0.0,0.0,0.0,0.0,0.0,0.0,0.0,0.0,0.0,0.0,0.0,0.0,0.0,0.0,0.0,0.0,0.0,0.0,0.0,0.0,0.0,0.0,0.0,0.0,0.0,0.0,0.0,0.0,0.0,0.0,0.0,0.0,0.0,0.0,0.0,5.5372,5.8183,6.1756,6.6182,6.802,6.9352,7.0278,6.567,0.0,0.0,0.0,0.0,0.0,0.0,0.0,0.0,0.0,0.0,0.0,0.0,0.0,0.0,0.0,0.0,0.0,0.0,0.0,0.0,0.0,0.0,0.0,0.0,0.0,0.0,0.0,3.701,0.0,0.0,0.0,0.0,0.0,0.0,0.0,0.0,0.0,0.0,0.0,0.0,0.0,0.0,5.0468,4.9409,5.0706,5.1687,0.0,0.0,5.1957,5.266,5.2892,5.2147,0.0,0.0,0.0,0.0,0.0,0.0,0.0,0.0,0.0,0.0,0.0,0.0,0.0,0.0,0.0,0.0,0.0,0.0,0.0,0.0,0.0,0.0,0.0,0.0,0.0,0.0,0.0,0.0,0.0,0.0,0.0,0.0,0.0,0.0,0.0,0.0,0.0,0.0,0.0,0.0,0.0,0.0,0.0,0.0,0.0,0.0,0.0,0.0,0.0,0.0,0.0,0.0,0.0,0.0,0.0,5.3981,5.8131,6.221,6.6211,6.802,6.9352,7.0308,6.7129,6.4336,0.0,0.0,0.0,0.0,0.0,0.0,0.0,0.0,0.0,0.0,0.0,0.0,0.0,0.0,0.0,0.0,0.0,0.0,0.0,0.0,0.0,0.0,0.0,0.0,0.0,0.0,0.0,0.0,0.0,0.0,0.0,0.0,0.0,0.0,0.0,0.0,0.0,0.0,0.0,0.0,0.0,5.0916,5.0511,5.2593,5.4299,0.0,0.0,5.4158,5.4733,5.6144,5.5995,5.2199,0.0,0.0,0.0,0.0,0.0,0.0,0.0,0.0,0.0,0.0,0.0,0.0,0.0,0.0,0.0,0.0,0.0,0.0,0.0,0.0,0.0,0.0,0.0,0.0,0.0,0.0,0.0,0.0,0.0,0.0,0.0,0.0,0.0,0.0,0.0,0.0,0.0,0.0,0.0,0.0,0.0,0.0,0.0,0.0,0.0,0.0,0.0,0.0,0.0,0.0,0.0,0.0,0.0,5.4572,5.5871,6.0155,6.3422,6.5679,6.8268,6.9736,7.0367,6.7991,6.5314,0.0,0.0,0.0,0.0,0.0,0.0,0.0,0.0,0.0,0.0,0.0,0.0,0.0,0.0,0.0,0.0,0.0,0.0,0.0,0.0,0.0,0.0,0.0,0.0,0.0,0.0,0.0,0.0,3.7186,3.7538,3.8442,0.0,0.0,0.0,0.0,0.0,0.0,0.0,0.0,0.0,0.0,5.1125,5.1173,5.2864,0.0,0.0,5.497,5.5443,5.6425,5.6301,5.5365,5.3406,5.1951,0.0,0.0,0.0,0.0,0.0,0.0,0.0,0.0,0.0,0.0,0.0,0.0,0.0,0.0,0.0,0.0,0.0,0.0,0.0,0.0,0.0,0.0,0.0,0.0,0.0,0.0,0.0,0.0,0.0,0.0,0.0,0.0,0.0,0.0,0.0,0.0,0.0,0.0,0.0,0.0,0.0,0.0,0.0,0.0,0.0,0.0,0.0,0.0,0.0,0.0,0.0,0.0,5.5823,5.6893,6.1404,6.4425,6.5736,6.8502,7.0134,7.0337,6.8832,6.6238,0.0,0.0,0.0,0.0,0.0,0.0,0.0,0.0,0.0,0.0,0.0,0.0,0.0,0.0,0.0,0.0,0.0,0.0,0.0,0.0,0.0,0.0,0.0,0.0,0.0,0.0,0.0,0.0,3.7688,3.799,3.8793,0.0,0.0,0.0,0.0,0.0,0.0,0.0,0.0,0.0,0.0,5.128,5.2012,5.3394,5.4653,5.5166,5.5534,5.608,5.7364,5.6484,5.5393,5.4293,0.0,0.0,0.0,0.0,0.0,0.0,0.0,0.0,0.0,0.0,0.0,0.0,0.0,0.0,0.0,0.0,0.0,0.0,0.0,0.0,0.0,0.0,0.0,0.0,0.0,0.0,0.0,0.0,0.0,0.0,4.7495,0.0,0.0,0.0,0.0,0.0,0.0,0.0,0.0,0.0,0.0,0.0,0.0,0.0,0.0,0.0,0.0,0.0,0.0,0.0,0.0,0.0,0.0,5.6194,5.6542,6.1574,6.5065,6.6854,6.9191,7.0397,7.0367,6.9534,6.717,6.3297,0.0,0.0,0.0,0.0,0.0,0.0,0.0,0.0,0.0,0.0,0.0,0.0,0.0,0.0,0.0,0.0,0.0,0.0,0.0,0.0,0.0,0.0,0.0,0.0,0.0,0.0,3.8793,3.8818,3.8843,0.0,0.0,0.0,0.0,0.0,0.0,0.0,0.0,0.0,0.0,4.9291,5.1478,5.2838,5.4423,5.5497,5.5523,5.5779,5.6353,5.7451,5.7387,5.6712,0.0,0.0,0.0,0.0,0.0,0.0,0.0,0.0,0.0,0.0,0.0,0.0,0.0,0.0,0.0,0.0,0.0,0.0,0.0,0.0,0.0,0.0,0.0,0.0,0.0,0.0,0.0,4.8268,4.8358,0.0,0.0,0.0,0.0,0.0,0.0,0.0,0.0,0.0,0.0,0.0,5.3826,5.4291,0.0,0.0,0.0,0.0,0.0,0.0,0.0,0.0,0.0,0.0,0.0,0.0,5.7939,5.8532,6.3152,6.6344,6.7596,6.9398,7.0528,7.0759,7.0371,6.8273,6.3947,0.0,0.0,0.0,0.0,0.0,0.0,0.0,0.0,0.0,0.0,0.0,0.0,0.0,0.0,0.0,0.0,0.0,0.0,0.0,0.0,0.0,0.0,0.0,0.0,0.0,3.9095,0.0,0.0,0.0,0.0,0.0,0.0,0.0,0.0,0.0,0.0,0.0,4.5438,4.718,4.9796,5.2,5.2997,5.4919,5.5957,0.0,0.0,0.0,0.0,0.0,0.0,0.0,0.0,0.0,0.0,0.0,0.0,0.0,0.0,5.3836,5.1783,5.0843,5.0123,4.9307,0.0,0.0,0.0,0.0,0.0,0.0,0.0,0.0,0.0,0.0,0.0,0.0,0.0,0.0,0.0,0.0,4.9972,0.0,0.0,0.0,0.0,0.0,0.0,0.0,0.0,5.3826,5.527,5.6564,5.7228,5.7543,0.0,5.6855,5.5748,0.0,0.0,0.0,0.0,0.0,0.0,0.0,0.0,5.9178,5.9879,6.4563,6.7538,6.8415,6.9779,7.0629,7.0889,7.0102,6.8296,6.5369,6.1469,5.8424,0.0,0.0,0.0,0.0,0.0,0.0,0.0,0.0,0.0,0.0,0.0,0.0,0.0,0.0,0.0,0.0,0.0,0.0,0.0,0.0,0.0,0.0,0.0,3.9954,0.0,0.0,0.0,0.0,0.0,0.0,0.0,0.0,0.0,4.379,4.5272,4.6841,4.8498,5.0614,5.2591,5.3721,0.0,0.0,0.0,0.0,0.0,0.0,0.0,5.7267,5.7515,5.6451,5.5176,5.4123,5.4784,5.5551,5.5922,0.0,0.0,5.3335,5.2071,5.1296,5.0548,5.03,5.0094,5.0005,5.0077,5.0612,0.0,0.0,0.0,0.0,0.0,0.0,0.0,0.0,5.1458,5.1832,0.0,5.1588,0.0,0.0,0.0,0.0,0.0,5.2989,0.0,0.0,5.6675,5.8368,5.8821,5.9867,6.0296,6.0236,5.9638,5.8949,5.8141,5.5718,0.0,0.0,0.0,0.0,0.0,0.0,5.9762,6.097,6.5496,6.8489,6.9417,7.043,7.0919,7.0859,6.884,6.7605,6.7367,6.3204,6.0325,5.8863,5.7382,0.0,0.0,0.0,0.0,0.0,0.0,0.0,0.0,0.0,0.0,0.0,0.0,0.0,0.0,0.0,0.0,0.0,0.0,0.0,0.0,4.1727,0.0,0.0,0.0,0.0,0.0,0.0,0.0,0.0,0.0,0.0,4.5436,4.6824,4.8549,5.046,0.0,0.0,0.0,0.0,5.6019,5.6712,5.6876,5.7433,5.9349,5.8025,5.7085,5.7608,0.0,0.0,5.4202,5.6314,5.7939,5.8018,5.79,5.7395,5.6158,5.489,5.407,5.3938,5.3369,5.2898,5.2845,5.297,5.3833,5.9496,0.0,0.0,0.0,0.0,5.562,5.5571,5.576,5.5172,5.4798,5.451,5.4003,0.0,0.0,0.0,0.0,0.0,0.0,5.5119,5.7737,5.9555,6.1417,6.3224,6.4395,6.4784,6.4306,6.3647,6.275,6.1642,6.0416,5.8423,5.5634,0.0,0.0,0.0,0.0,6.0639,6.2816,6.6179,6.8698,7.007,7.0669,7.0919,7.0919,7.0221,6.9376,6.8199,6.5808,6.3469,6.1028,5.8927,0.0,0.0,0.0,0.0,0.0,0.0,0.0,0.0,0.0,0.0,0.0,0.0,0.0,0.0,0.0,0.0,0.0,0.0,0.0,4.3413,4.3661,4.3628,0.0,0.0,0.0,0.0,0.0,0.0,0.0,0.0,0.0,4.9698,4.9717,5.0172,0.0,0.0,5.4697,5.5669,5.6358,5.67,5.6559,5.7255,0.0,5.8208,5.8456,5.8848,5.9004,5.7873,5.7251,5.8046,5.7983,5.8142,5.8879,5.8729,5.8349,5.7862,5.6657,5.5408,5.4617,5.4577,5.4372,5.3656,5.4183,5.5151,6.444,6.0398,5.9299,5.8967,5.9075,5.886,5.8733,5.8495,5.8195,5.7823,5.7378,5.6793,5.6496,5.6183,5.524,0.0,0.0,0.0,5.7013,6.0326,6.1995,6.4004,6.6191,6.7298,6.7567,6.7178,6.652,6.5652,6.4605,6.3707,6.2157,5.9822,0.0,0.0,5.7827,6.0043,6.2173,6.4171,6.7254,6.9325,7.0337,7.0658,7.0658,7.0498,7.0528,7.0011,6.9109,6.7216,6.5198,6.2992,6.0586,5.8379,0.0,0.0,0.0,0.0,0.0,0.0,0.0,0.0,0.0,0.0,0.0,4.4833,0.0,0.0,0.0,0.0,4.521,4.5433,4.5232,4.5514,0.0,0.0,0.0,0.0,0.0,0.0,0.0,5.092,5.1303,5.1936,5.3335,5.3074,5.3005,5.3695,5.4705,5.5693,5.6607,0.0,5.7395,5.7482,5.8097,5.8712,5.8999,5.9301,5.943,5.951,5.9335,5.9286,5.9769,5.9539,5.9433,5.9935,5.991,5.9684,5.9709,5.9006,5.7926,5.6269,5.6143,5.6118,5.5465,5.5962,5.7055,6.9436,6.7611,6.4533,6.3061,6.2706,6.2706,6.2293,6.1439,6.1056,6.094,6.1088,5.9758,5.9496,5.9697,5.7153,0.0,5.7013,5.754,5.9094,6.1641,6.404,6.6191,6.8046,6.8824,6.9153,6.9123,6.8495,6.7867,6.7178,6.6011,6.5233,6.4755,6.1809,6.0037,5.9841,6.232,6.4188,6.5335,6.8236,7.0102,7.0367,7.0397,7.0265,6.9869,6.9869,6.9869,6.981,6.7712,6.6031,6.4714,6.2261,5.9788,5.7283,0.0,0.0,0.0,0.0,0.0,0.0,0.0,0.0,0.0,0.0,0.0,0.0,0.0,0.0,0.0,4.7442,0.0,4.7761,4.7812,0.0,0.0,0.0,5.0436,5.1093,5.245,5.3521,5.429,0.0,0.0,5.6366,5.6545,5.6275,5.5583,5.5888,5.6666,5.8053,5.8085,5.8167,5.9025,5.9127,5.966,6.0786,6.0328,5.9591,5.9713,6.006,6.0311,6.0437,6.0814,6.119,6.1316,6.1266,6.1215,6.124,6.1466,6.1215,5.8679,5.8303,5.8303,5.8252,5.8604,5.9388,7.257,7.2017,7.0759,6.8459,6.5831,6.5551,6.563,6.5768,6.5299,6.4406,6.3208,6.2677,6.1348,5.9497,5.748,5.7623,5.9621,5.9073,6.0734,6.4129,6.5711,6.7328,6.8794,6.9901,7.044,7.044,7.029,6.9871,6.9273,6.8944,6.8016,6.6428,6.5622,6.4487,6.309,6.3622,6.4955,6.6886,6.8236,6.9367,7.0337,7.0397,7.0265,6.9869,6.9869,6.9869,6.984,6.8298,6.6927,6.5647,6.3619,6.1297,5.8814,5.8362,0.0,0.0,0.0,0.0,0.0,0.0,0.0,0.0,0.0,4.8512,4.8241,0.0,4.9176,0.0,5.0499,5.151,5.151,5.1872,0.0,0.0,5.2587,5.3011,5.3402,5.4467,5.5395,5.579,5.6081,5.659,5.7277,5.7735,5.8146,5.8353,5.8298,5.8565,5.9353,5.9413,5.9719,6.0201,6.0173,6.0296,6.1084,6.1003,6.077,6.0763,6.0889,6.1115,6.1542,6.1692,6.1943,6.2295,6.2069,6.1843,6.1818,6.1918,6.1818,6.119,6.1366,6.1517,6.114,6.1299,6.2002,7.4721,7.443,7.4198,7.2707,7.0485,6.9395,6.8898,6.8693,6.8736,6.7776,6.6376,6.5856,6.4367,6.2322,6.0825,6.0976,6.2411,6.1808,6.3168,6.5951,6.7268,6.8435,6.9453,7.044,7.0919,7.0919,7.0919,7.0739,7.038,7.0111,6.9423,6.8345,6.8016,6.7384,6.6298,6.5704,6.6213,6.7707,6.8832,6.9684,7.0104,7.0268,7.0031,6.9232,6.9366,6.9203,6.8905,6.8026,6.7256,6.643,6.4536,6.275,6.078,6.0385,5.9402,0.0,0.0,0.0,0.0,0.0,0.0,0.0,0.0,0.0,0.0,0.0,5.2271,5.262,5.3737,5.4489,5.4649,5.4909,5.4925,5.4911,5.5288,5.5816,5.604,5.7131,5.7917,5.8146,5.8528,5.8832,5.9161,5.9463,5.9842,6.0186,6.0246,6.0327,6.0378,6.0528,6.0675,6.0978,6.0871,6.0889,6.1466,6.1768,6.1918,6.1918,6.1918,6.2019,6.232,6.237,6.2471,6.2747,6.2571,6.237,6.237,6.2596,6.2747,6.2822,6.3174,6.3324,6.2873,6.291,6.3387,7.6525,7.6002,7.6358,7.6036,7.5216,7.3545,7.2167,7.1053,7.1584,7.0991,6.9724,6.8631,6.7593,6.6395,6.5257,6.5029,6.5441,6.4999,6.5778,6.7298,6.8555,6.9423,6.9991,7.062,7.0919,7.0919,7.0919,7.0919,7.0889,7.035,7.0051,6.9961,6.9423,6.9064,6.8944,6.7837,6.7478,6.7986,6.9546,7.0236,6.9781,7.0103,6.9651,6.8478,6.8557,6.8392,6.7816,6.7437,6.7122,6.6764,6.5333,6.3932,6.2688,6.224,6.1091,0.0,5.9165,0.0,0.0,0.0,0.0,0.0,0.0,0.0,0.0,5.5022,5.5733,5.7216,5.7068,5.7068,5.7346,5.7346,5.7442,5.7565,5.8057,5.8371,5.8905,5.9744,6.035,6.0362,6.0864,6.119,6.109,6.124,6.1266,6.1291,6.1768,6.1918,6.1617,6.1517,6.1592,6.1567,6.1542,6.1818,6.222,6.2621,6.2948,6.2998,6.3212,6.3212,6.3237,6.3237,6.3237,6.3237,6.3262,6.3073,6.3048,6.345,6.3776,6.3751,6.4078,6.4061,6.3711,6.3726,6.4143,7.8976,7.8829,7.8299,7.7387,7.6444,7.6348,7.5614,7.4704,7.409,7.2849,7.1356,6.9765,6.9031,6.8635,6.7128,6.6838,6.7665,6.7125,6.7521,6.8645,6.9423,6.9842,7.0021,7.062,7.0919,7.0919,7.0919,7.0919,7.0919,7.0799,7.047,6.9991,6.9871,6.9542,6.9004,0.0,0.0,0.0,6.9645,7.026,6.9132,6.9722,6.9617,6.8692,6.8421,0.0,6.8148,6.7621,6.6867,6.6356,6.5718,0.0,0.0,0.0,0.0,0.0,0.0,0.0,0.0,0.0,0.0,0.0,5.9093,5.8396,5.6927,5.7361,5.8418,6.0117,6.0154,6.0154,6.03,6.0007,6.0068,6.0464,6.032,6.0532,6.1143,6.1342,6.1363,6.0989,6.1115,6.119,6.124,6.1567,6.1843,6.1943,6.2722,6.3299,6.3224,6.3174,6.335,6.3726,6.3375,6.3224,6.335,6.345,6.3816,6.4551,6.4703,6.4818,6.5097,6.5097,6.4983,6.4818,6.4677,6.4486,6.4295,6.4254,6.4329,6.4329,6.4069,6.3925,6.3851,6.4161,6.4479,7.9539,0.0,7.9515,7.8804,0.0,7.8354,7.7997,7.7139,7.5974,7.497,7.3821,7.2268,7.1406,7.1051,6.9809,6.9472,6.9572,6.895,6.8941,6.9512,6.9812,6.9991,7.0021,7.0949,7.1218,7.0919,7.1248,7.1218,7.0889,7.059,7.029,6.9961,6.9662,6.9482,6.9482,6.9654,6.9218,6.8436,6.9516,6.9892,6.9398,6.9884,6.9659,6.8586,0.0,0.0,0.0,0.0,0.0,0.0,0.0,0.0,0.0,0.0,0.0,6.1399,6.1064,6.089,6.09,6.0811,6.0762,6.1199,6.1753,6.1463,6.0011,6.0551,6.1424,6.2287,6.2391,6.2391,6.2391,6.224,6.2192,6.2452,6.2198,6.1968,6.2012,6.2186,6.2046,6.1777,6.1979,6.2315,6.2315,6.2957,6.3448,6.3499,6.4184,6.4677,6.4738,6.442,6.4203,6.4429,6.4279,6.4078,6.4078,6.4078,6.4153,6.4764,6.5006,6.5173,6.5505,6.548,6.5505,6.5173,6.5006,6.4814,6.4672,6.468,6.4881,6.4568,6.4598,6.443,6.4063,6.4207,6.4718,8.0077,7.987,8.0199,7.9902,7.9158,7.9481,7.9327,7.8699,0.0,0.0,0.0,7.4599,7.3762,7.3223,7.2535,7.1936,7.1398,7.0769,7.05,7.05,7.05,7.05,7.056,7.1577,7.1787,7.1278,7.1816,7.1787,7.1248,7.062,7.032,7.026,6.9662,6.9602,7.0012,7.0649,7.052,6.9625,6.9595,6.9673,6.9693,7.0074,6.9622,6.8313,6.8148,6.7873,6.7154,6.6735,6.6314,6.6031,6.5292,6.467,6.4034,6.3577,6.2956,6.2292,6.2121,6.2099,6.2096,6.2001,6.2299,6.3071,6.3567,6.3564,6.2922,6.3433,6.3881,6.3985,6.3959,6.3933,6.3829,6.3829,6.3829,6.3829,6.3519,6.3077,6.2893,6.2961,6.2949,6.2517,6.3007,6.3635,6.361,6.4393,6.4965,6.5042,6.5503,6.5978,6.5909,6.5395,6.4756,6.468,6.463,6.4605,6.4605,6.4605,6.4655,6.4974,6.5335,6.5477,6.5645,6.5645,6.5645,6.5554,6.5117,6.4974,6.4806,6.5157,6.5238,6.4751,6.4926,6.5075,6.4328,6.4382,6.4728,8.1661,8.0645,8.0645,7.9929,7.8908,7.8938,7.8878,7.8669,7.7412,7.6485,7.5856,7.5078,7.4689,7.4569,7.3911,7.3552,7.3432,7.2804,7.2505,0.0,7.2505,7.2505,7.2505,7.2684,7.2714,7.2654,7.2714,7.2744,7.2565,7.1936,7.1607,7.1547,7.0949,7.055,7.0379,7.0729,7.0729,7.0278,7.0509,7.0141,6.9073,6.9663,6.9454,6.8313,6.8011,6.7569,6.7154,6.6455,6.6031,6.6031,6.5319,6.469,6.4346,6.3619,6.3191,6.3143,6.2896,6.2856,6.3407,6.3459,6.3593,6.4221,6.4378,6.4325,6.4195,6.4325,6.4613,6.5057,6.5083,6.4926,6.4482,6.4404,6.4404,6.443,6.4404,6.4273,6.4398,6.442,6.4152,6.3805,6.3907,6.3984,6.4061,6.4658,6.5205,6.5144,6.6104,6.6566,6.6636,6.6278,6.5685,6.5308,6.5183,6.5183,6.5157,6.5183,6.5503,6.6322,6.6492,6.6611,6.6949,6.6949,6.6755,6.6543,6.6272,6.6127,6.5981,6.5936,6.5764,6.5248,6.5,6.4702,6.4026,6.4255,6.4777,8.2409,8.1901,8.1871,8.1093,7.9836,7.9118,7.8789,7.8699,7.7771,7.7412,7.7352,7.6395,7.6125,7.6365,7.5437,7.4988,7.4929,7.3911,7.3432,7.3432,7.3073,7.2924,7.2954,7.3283,7.3253,7.2954,7.3283,7.3253,7.2894,7.2595,7.2445,7.2415,7.2116,7.1864,7.1732,7.1864,7.1864,7.1732,7.1147,7.0528,6.9958,7.0223,6.9863,6.8774,6.8675,6.8285,6.7383,6.6982,6.6457,6.602,6.5287,6.4694,6.4247,6.3797,6.3449,6.356,6.3433,6.3541,6.4116,6.443,6.4717,6.4953,6.5005,6.5005,6.5005,6.5005,6.5109,6.5345,6.5397,6.5292,6.5031,6.4979,6.5005,6.4979,6.5108,6.4972,6.4812,6.4911,6.4614,6.4196,6.428,6.4569,6.4878,6.5556,6.6373,6.6521,6.7157,6.7389,6.7281,6.6797,6.6379,6.5785,6.5735,6.5735,6.5735,6.5735,6.6032,6.6429,6.6626,6.6797,6.7137,6.7137,6.6967,6.6797,6.6626,6.6283,6.6112,6.6112,6.5767,6.5223,6.4901,6.4527,6.4026,6.4178,6.4876,8.2589,8.232,8.2469,8.1781,8.0524,7.9477,7.8938,7.8729,7.825,7.831,7.8579,7.7412,7.7113,7.7442,7.6544,7.6125,7.5946,7.4899,7.436,7.427,7.3672,7.3373,7.3402,7.3881,7.3851,7.3462,7.3881,7.3851,7.3402,7.3223,7.3043,7.2924,7.2924,7.2924,7.2924,7.3073,7.3073,7.2864,7.2026,7.1361,7.1019,7.0914,7.0234,6.9436,6.9476,6.8939,6.7632,6.7474,6.6871,6.6128,6.535,6.4744,6.4313,6.398,6.3724,6.3855,6.3881,6.4116,6.4691,6.5136,6.5397,6.5397,6.5397,6.5397,6.5397,6.5397,6.5397,6.5397,6.5397,6.5423,6.5554,6.5606,6.5632,6.5763,6.5834,6.5802,6.5439,6.5375,6.5316,6.4904,6.5149,6.5491,6.5802,6.6594,6.7279,6.7689,6.8175,6.8009,6.7477,6.7137,6.6626,6.6283,6.6112,6.6086,6.6112,6.6086,6.6086,6.6112,6.6455,6.6626,6.6626,6.6626,6.6626,6.6626,6.6283,6.6112,6.6112,6.6112,6.5767,6.505,6.4702,6.4527,6.4026,6.4178,6.5223,8.208,8.1153,8.1691,8.1093,7.9986,7.9776,7.9357,7.8819,7.8729,7.8729,7.8639,7.7412,7.6904,7.6904,7.6814,7.6754,7.6694,7.6036,7.5707,7.5617,7.5018,7.4689,7.4689,7.4779,7.4749,7.4689,7.4779,7.4809,7.4659,7.4121,7.3552,7.2984,7.2924,7.2984,7.3013,7.3552,7.3522,7.2954,7.3402,7.2938,7.1727,7.1042,7.0349,6.9648,6.9593,6.8995,6.796,6.7551,6.6871,6.6128,6.5404,6.4771,6.4339,6.4006,6.3907,6.4404,6.4456,6.4691,6.524,6.5345,6.5397,6.5397,6.5397,6.5397,6.5397,6.5397,6.5397,6.5423,6.5397,6.5658,6.6129,6.6181,6.6364,6.673,6.6939,6.6991,6.6725,6.6965,6.6829,6.6803,6.6672,6.6672,6.6359,6.6887,6.7383,6.8011,6.8201,6.8035,6.7477,6.7137,6.6626,6.6283,6.6112,6.6112,6.6112,6.6112,6.6112,6.6112,6.6112,6.6283,6.6283,6.6283,6.6112,6.6283,6.6112,6.6112,6.6112,6.6112,6.5767,6.4876,6.4702,6.4527,6.4527,6.4702,6.5223,8.2469,8.1991,8.226,8.1601,8.0434,7.9986,7.9417,7.8819,7.8789,7.8789,7.8729,7.822,7.7981,7.7951,7.7592,7.7412,7.7352,7.6754,7.6455,7.6425,7.6155,7.6036,7.6036,7.6036,7.6036,7.6036,7.6036,7.6036,7.5916,7.5377,7.5138,7.5108,7.448,7.427,7.4659,7.4958,7.4475,7.3408,7.4387,7.4454,7.3245,7.2372,7.1406,7.0335,7.0507,6.9786,6.8364,6.802,6.7462,6.6577,6.5781,6.5316,6.5004,6.4848,6.477,6.5005,6.5031,6.5136,6.5371,6.5397,6.5397,6.5397,6.5397,6.5397,6.5397,6.5397,6.5528,6.5841,6.592,6.6024,6.6286,6.6573,6.6698,6.677,6.722,6.7324,6.6796,6.7246,6.7514,6.7174,6.7122,6.7227,6.7357,6.7775,6.8194,6.8481,6.8409,6.8009,6.7477,6.7137,6.6626,6.6283,6.6112,6.6112,6.6112,6.6112,6.6112,6.6112,6.6112,6.6112,6.6112,6.6112,6.6112,6.6112,6.6112,6.6112,6.6112,6.6112,6.5767,6.505,6.4178,6.4026,6.4527,6.4702,6.5223,8.2769,8.2769,8.2769,8.202,8.0794,8.0285,7.9597,7.8849,7.8789,7.8789,7.8789,7.8789,7.8789,7.8729,7.828,7.8071,7.7981,7.7382,7.7083,7.7083,7.6904,7.6814,7.6844,7.6844,7.6844,7.6844,7.6814,7.6814,7.6784,7.6395,7.6395,7.6604,7.5856,7.5677,7.6096,7.6155,7.5637,7.4661,7.5348,7.5298,7.4483,7.352,7.2511,7.1367,7.1335,7.0459,6.8544,6.8517,6.7973,6.6894,6.6291,6.5713,6.5238,6.5238,6.5238,6.5238,6.5238,6.5238,6.5397,6.5397,6.5397,6.5397,6.5397,6.5449,6.558,6.5632,6.5894,6.6255,6.6464,6.662,6.662,6.6933,6.703,6.6718,6.7489,6.7515,6.7038,6.768,6.7898,6.7645,6.7671,6.7645,6.7958,6.8272,6.8507,6.8367,6.8215,6.8009,6.7477,6.6967,6.6626,6.6112,6.6112,6.6112,6.6112,6.6112,6.6112,6.6112,6.6112,6.6112,6.6112,6.6112,6.6112,6.6112,6.6112,6.6112,6.6112,6.6112,6.5767,6.4876,6.4002,6.3675,6.4353,6.4527,6.505,8.2769,8.2739,8.2769,8.1991,8.0794,8.0734,7.9986,7.8789,7.8789,7.8789,7.8789,7.8789,7.8789,7.8789,7.8699,7.8729,7.8639,7.8041,7.7771,7.7711,7.7173,7.6874,7.6844,7.6844,7.6874,7.6993,7.7023,7.6963,7.6904,7.6814,7.6784,7.6844,7.6724,7.6724,7.6784,7.6643,7.6613,7.6212,7.5963,7.5389,7.4926,7.4255,7.344,7.2746,7.1646,7.0464,6.9258,6.8749,6.7982,6.7005,6.6345,6.5581,6.4946,6.4786,6.4761,6.4786,6.4786,6.5079,6.5397,6.5397,6.5397,6.5423,6.5475,6.5658,6.6181,6.6233,6.6307,6.6503,6.6996,6.7116,6.7168,6.722,6.7286,6.7389,6.7543,6.7712,6.8074,6.7996,6.8293,6.8524,6.8612,6.8429,6.8089,6.8011,6.7976,6.7748,6.7893,6.7866,6.7137,6.6797,6.6626,6.6283,6.6112,6.6112,6.6112,6.6112,6.6112,6.6112,6.6112,6.6112,6.6112,6.6112,6.6112,6.6112,6.6112,6.6112,6.6112,6.594,6.5397,6.4702,6.3851,6.3675,6.4178,6.4527,6.4876,8.2499,8.217,8.2589,8.1781,8.0285,8.0614,8.0045,7.8819,7.8789,7.8789,7.8789,7.8789,7.8789,7.8789,7.8789,7.8789,7.8759,7.8519,7.843,7.84,7.819,7.8071,7.81,7.8071,7.8071,7.8071,7.8071,7.8071,7.8011,7.7682,7.7682,7.7861,7.7233,7.7023,7.724,7.6872,7.6234,7.5507,7.6298,7.6124,7.4712,7.4207,7.3764,7.2934,7.1916,7.0616,6.9352,6.874,6.8036,6.6899,6.637,6.5789,6.4812,6.4466,6.4466,6.4786,6.4786,6.492,6.5397,6.5397,6.5554,6.592,6.5972,6.6207,6.6678,6.6646,6.6718,6.7238,6.7307,6.726,6.7454,6.7337,6.744,6.7425,6.7477,6.7477,6.784,6.8009,6.8371,6.868,6.8847,6.8743,6.8419,6.8201,6.806,6.7893,6.7543,6.7137,6.6797,6.6626,6.6283,6.6112,6.6112,6.6112,6.6112,6.6112,6.6112,6.6112,6.6112,6.6112,6.6112,6.6112,6.6112,6.6112,6.6112,6.6112,6.594,6.5397,6.505,6.4552,6.3675,6.3498,6.3851,6.4202,6.4726,8.2499,8.22,8.2589,8.1751,8.0285,8.0614,8.0016,7.8878,7.9028,7.8998,7.8849,7.9028,7.8998,7.8819,7.8789,7.8789,7.8789,7.8789,7.8789,7.8789,7.8789,7.8789,7.8789,7.8789,7.8789,7.8789,7.8789,7.8789,7.8759,7.834,7.837,7.8669,7.7861,7.7682,7.7927,7.7526,7.6825,7.6241,7.6563,7.5993,7.4564,7.3744,7.2861,7.2073,7.1254,7.0399,6.933,6.8757,6.7933,6.7056,6.6364,6.5517,6.4544,6.3958,6.3958,6.4306,6.4647,6.5045,6.5392,6.5815,6.6103,6.6495,6.6547,6.6782,6.7116,6.7056,6.7342,6.7593,6.7582,6.7454,6.7348,6.7307,6.7137,6.6967,6.7137,6.7137,6.7477,6.784,6.8177,6.868,6.868,6.868,6.8513,6.8177,6.8009,6.7866,6.7137,6.6797,6.6626,6.6283,6.6112,6.6112,6.6112,6.6112,6.6112,6.6112,6.6112,6.6112,6.6112,6.6112,6.6112,6.6112,6.6112,6.6112,6.6112,6.594,6.5767,6.505,6.4527,6.4026,6.3675,6.3522,6.3851,6.4202,6.4576,8.2739,8.2649,8.2769,8.1931,8.0734,8.0823,8.0075,7.9088,7.9567,7.9507,7.9178,7.9537,7.9507,7.8998,7.9028,7.8908,7.8878,7.8908,7.8849,7.8789,7.8789,7.8789,7.8789,7.8789,7.8789,7.8789,7.8819,7.8819,7.8789,7.8729,7.8729,7.8789,7.8555,7.8291,7.8614,7.8235,7.8265,7.7593,7.6017,7.5106,7.4829,7.2747,7.1094,7.0045,6.9745,6.9418,6.905,6.8598,6.7876,6.707,6.6166,6.4922,6.3813,6.3224,6.3036,6.3788,6.4521,6.5102,6.5667,6.6542,6.6913,6.7096,6.7096,6.7194,6.7524,6.7654,6.7697,6.7609,6.7569,6.7451,6.7281,6.6797,6.6283,6.6112,6.6283,6.6626,6.7307,6.7477,6.7815,6.8513,6.8345,6.8203,6.8035,6.784,6.7307,6.6967,6.6797,6.6626,6.6283,6.6112,6.6112,6.6112,6.6112,6.6112,6.6112,6.6112,6.6112,6.6112,6.6112,6.6112,6.6112,6.6112,6.6112,6.6112,6.594,6.5767,6.5421,6.4876,6.4353,6.3851,6.3498,6.3346,6.3522,6.3875,6.4275,8.2499,8.217,8.2589,8.1751,8.0345,8.1063,8.0734,7.9627,8.0225,8.0375,8.0225,8.0405,8.0345,8.0195,8.0165,7.9896,7.9537,7.9477,7.9238,7.8878,7.8819,7.8819,7.8819,7.8819,7.8789,7.8878,7.9297,7.9238,7.8849,7.8819,7.847,7.774,7.7593,7.7121,7.6496,7.5744,7.5288,7.4953,7.4366,7.3432,7.2644,7.1687,7.0799,6.9741,6.8909,6.8409,6.8034,6.7878,6.7427,6.6707,6.6387,6.5543,6.426,6.359,6.3564,6.4107,6.5058,6.5693,6.6184,6.6666,6.7305,6.7592,6.7368,6.7654,6.8149,6.7531,6.744,6.7671,6.7477,6.6967,6.6967,6.6797,6.6626,6.6626,6.6283,6.6283,6.6967,6.7307,6.7815,6.8177,6.8009,6.784,6.7671,6.7307,6.6967,6.6797,6.6455,6.6283,6.6112,6.6112,6.6112,6.6112,6.6112,6.6112,6.6112,6.6112,6.6112,6.6112,6.6112,6.6112,6.6112,6.6112,6.6112,6.594,6.5767,6.5594,6.5075,6.4552,6.4202,6.3851,6.3498,6.3346,6.3346,6.3546,6.3948,8.2529,8.22,8.2589,8.1931,8.0674,8.1482,8.1183,8.0375,8.0883,8.0883,8.0554,8.0704,8.0524,8.0195,8.0315,8.0045,7.9537,7.9926,7.9836,7.9267,7.9178,7.9178,7.9208,7.9447,7.9387,7.9327,7.9866,7.9686,7.8849,7.9267,7.886,7.7829,7.7533,7.7207,7.6375,7.5592,7.4829,7.4675,7.3873,7.296,7.1714,7.0744,6.9927,6.8988,6.8345,6.7671,6.7307,6.7137,6.6882,6.654,6.6285,6.5466,6.4526,6.4143,6.4143,6.4551,6.5429,6.6284,6.6615,6.7178,6.755,6.7915,6.7634,6.7596,6.7931,6.7307,6.7307,6.7502,6.7137,6.6797,6.6797,6.6626,6.6626,6.6455,6.6283,6.6283,6.6797,6.7307,6.7646,6.784,6.7477,6.7307,6.7137,6.6797,6.6626,6.6455,6.6283,6.6112,6.6112,6.6112,6.6112,6.6112,6.6112,6.6112,6.6112,6.6112,6.6112,6.6112,6.6112,6.6112,6.6112,6.6112,6.6112,6.594,6.5767,6.5421,6.4901,6.4377,6.4026,6.3675,6.3322,6.3322,6.3346,6.3522,6.3723,8.2798,8.2798,8.2769,8.235,8.1721,8.1841,8.1512,8.1003,8.1542,8.1242,8.0464,8.0883,8.0375,7.9447,8.0135,7.9986,7.9267,8.0285,8.0494,8.0045,7.9956,7.9986,7.9926,8.0434,8.0405,8.0045,8.0377,8.0018,7.8947,7.9604,7.9871,7.8154,7.7583,7.7883,7.7353,7.7119,7.6039,7.5431,7.4211,7.2775,7.1526,6.9954,6.868,6.8203,6.784,6.7307,6.6967,6.6429,6.6398,6.6372,6.5772,6.5133,6.4672,6.4505,6.4505,6.4697,6.5899,6.6656,6.7003,6.7596,6.8215,6.81,6.7737,6.7307,6.7137,6.7137,6.7137,6.6967,6.6797,6.6797,6.6797,6.6626,6.6283,6.6112,6.6112,6.6283,6.6797,6.7137,6.7307,6.7307,6.7137,6.6797,6.6797,6.6455,6.6283,6.6112,6.6112,6.6112,6.6112,6.6112,6.6112,6.6112,6.6112,6.6112,6.6112,6.6112,6.6112,6.6112,6.6112,6.6112,6.6112,6.6112,6.594,6.5767,6.5594,6.5248,6.4726,6.4202,6.3851,6.3522,6.3346,6.3322,6.3322,6.3346,6.3619,8.3038,8.3397,8.2948,8.238,8.1901,8.226,8.211,8.1631,8.22,8.223,8.1991,8.217,8.1661,8.1093,8.1572,8.1362,8.0644,8.1123,8.1183,8.0704,8.1093,8.0943,8.0764,8.1183,8.1183,8.0556,8.0225,7.9653,7.8796,7.8482,7.7472,7.6094,7.618,7.5605,7.48,7.4195,7.3229,7.2637,7.1771,7.0798,6.9842,6.9066,6.8371,6.8203,6.7502,6.6967,6.6797,6.6283,6.6086,6.6228,6.5528,6.5251,6.5082,6.5057,6.5057,6.5327,6.6408,6.7272,6.744,6.8074,6.8513,6.8203,6.7671,6.7477,6.7307,6.6797,6.6626,6.6626,6.6797,6.6797,6.6797,6.6967,6.6967,6.6626,6.6455,6.6283,6.6626,6.6626,6.6626,6.6797,6.6626,6.6455,6.6283,6.6283,6.6112,6.6112,6.6112,6.6112,6.6112,6.6112,6.6112,6.6112,6.6112,6.6112,6.6112,6.6112,6.6112,6.6112,6.6112,6.6112,6.6112,6.6112,6.594,6.5594,6.5223,6.4876,6.4377,6.3851,6.3498,6.3346,6.3346,6.3322,6.3322,6.3346,6.3562,8.3397,8.3666,8.3038,8.2529,8.226,8.2619,8.2559,8.232,8.2589,8.2589,8.2409,8.235,8.1991,8.1482,8.202,8.1781,8.1003,8.1781,8.1811,8.1422,8.1871,8.163,8.1149,8.1265,8.0724,7.9765,8.0111,7.9385,7.8369,7.829,7.7506,7.6187,7.5393,7.4934,7.4736,7.3404,7.2695,7.2312,7.1686,7.0864,6.9889,6.9241,6.8747,6.8448,6.7665,6.7076,6.6505,6.6283,6.6112,6.6036,6.581,6.5634,6.5634,6.5634,6.5634,6.566,6.6789,6.7477,6.7646,6.8177,6.8371,6.8009,6.7477,6.7137,6.6967,6.6455,6.6626,6.6797,6.6967,6.7137,6.7137,6.7307,6.7307,6.7137,6.6797,6.6626,6.6626,6.6283,6.6283,6.6283,6.6283,6.6112,6.6112,6.6112,6.6112,6.6112,6.6112,6.6112,6.6112,6.6112,6.6112,6.6112,6.6112,6.6112,6.6112,6.6112,6.6112,6.6112,6.6237,6.6212,6.6112,6.6112,6.5767,6.5421,6.505,6.4527,6.4026,6.3675,6.3498,6.3346,6.3322,6.3322,6.3322,6.3346,6.3562,8.3786,8.3786,8.3068,8.2769,8.2739,8.2769,8.2739,8.2739,8.2739,8.2469,8.211,8.1931,8.1691,8.0943,8.1811,8.1572,8.1003,8.214,8.226,8.217,8.2077,8.1462,8.0445,8.1124,8.0609,7.9452,8.0259,7.9284,7.8122,7.9171,7.8653,7.6626,7.5461,7.5568,7.51,7.417,7.3568,7.3072,7.2578,7.1663,7.0677,6.9824,6.9248,6.8613,6.7869,6.7005,6.6384,6.6112,6.6112,6.6112,6.6112,6.6061,6.6061,6.6086,6.6086,6.6233,6.6746,6.7307,6.7477,6.784,6.784,6.7477,6.6967,6.6626,6.6455,6.6455,6.6797,6.6797,6.7307,6.7477,6.7646,6.7646,6.7646,6.7646,6.7477,6.7137,6.6455,6.6283,6.6112,6.6112,6.6112,6.6112,6.6112,6.6112,6.6112,6.6112,6.6112,6.6112,6.6112,6.6112,6.6112,6.6112,6.6112,6.6112,6.6112,6.6112,6.6112,6.6137,6.6338,6.6363,6.6162,6.594,6.5767,6.5421,6.4876,6.4353,6.3851,6.3498,6.3322,6.3322,6.3322,6.3322,6.3322,6.3322,6.3466,8.4025,8.4414,8.3247,8.2769,8.2769,8.2769,8.2769,8.2769,8.2769,8.2649,8.2559,8.2529,8.214,8.1601,8.217,8.22,8.1691,8.238,8.2649,8.2467,8.1212,8.002,7.9516,8.099,8.1887,8.0969,7.9776,7.8963,7.8516,7.7121,7.6054,7.5327,7.4994,7.4536,7.4114,7.3602,7.2765,7.2515,7.2,7.1333,7.0505,6.9816,6.9213,6.845,6.7622,6.6803,6.6334,6.6112,6.6112,6.6112,6.6112,6.6112,6.6112,6.6112,6.6112,6.6283,6.6626,6.6967,6.6967,6.7307,6.7477,6.6967,6.6797,6.6626,6.6112,6.6455,6.6797,6.6967,6.7502,6.8009,6.8345,6.8513,6.8345,6.8009,6.8009,6.784,6.7307,6.6797,6.6455,6.6283,6.6112,6.6112,6.6112,6.6112,6.6112,6.6112,6.6112,6.6112,6.6112,6.6112,6.6112,6.6112,6.6112,6.6112,6.6162,6.6212,6.6338,6.6438,6.6614,6.6739,6.6538,6.604,6.5917,6.5496,6.4876,6.4377,6.3675,6.3498,6.3322,6.3322,6.3322,6.3322,6.3322,6.3322,6.337,8.4863,8.5013,8.3756,8.3217,8.3187,8.2888,8.2769,8.2769,8.2769,8.2769,8.2769,8.2769,8.2559,8.226,8.2589,8.2529,8.2229,8.1922,8.1793,8.1544,8.0597,7.9513,7.8992,7.9776,8.0497,7.8774,7.7908,7.7148,7.6424,7.6103,7.5499,7.4567,7.4217,7.4179,7.3713,7.301,7.2573,7.2321,7.1912,7.1382,7.0688,7.0163,6.9356,6.8519,6.7685,6.7031,6.6538,6.6237,6.6137,6.6112,6.6112,6.6112,6.6112,6.6112,6.6112,6.6112,6.6455,6.6797,6.6967,6.7137,6.7307,6.6797,6.6797,6.6455,6.6283,6.6455,6.6797,6.6967,6.7502,6.8371,6.8513,6.868,6.8513,6.8371,6.8371,6.8345,6.784,6.7137,6.6797,6.6455,6.6283,6.6112,6.6112,6.6112,6.6112,6.6112,6.6112,6.6112,6.6112,6.6112,6.6112,6.6112,6.6112,6.6137,6.6187,6.6338,6.6614,6.6815,6.7091,6.7216,6.7216,6.6641,6.6117,6.5446,6.48,6.4202,6.3675,6.3498,6.3346,6.3346,6.3346,6.3346,6.337,6.3442,6.3442,8.5701,8.5581,8.4384,8.3876,8.3786,8.3217,8.2948,8.2918,8.2798,8.2769,8.2769,8.2769,8.2739,8.2739,8.2739,8.2769,8.2248,8.1477,8.097,8.0888,7.9982,7.8969,7.8579,7.8284,7.7343,7.3993,7.5312,7.5252,7.5454,7.5445,7.5384,7.4658,7.4156,7.3874,7.3611,7.2892,7.2525,7.2219,7.214,7.1939,7.1439,7.0909,7.0095,6.8751,6.8144,6.7638,6.719,6.6739,6.6413,6.6262,6.6237,6.6187,6.6112,6.6112,6.6112,6.6112,6.6455,6.6626,6.6626,6.6967,6.6967,6.6797,6.6626,6.6455,6.6283,6.6626,6.6797,6.7137,6.7502,6.8035,6.8203,6.8371,6.8539,6.8371,6.8513,6.868,6.8177,6.7502,6.6967,6.6626,6.6283,6.6112,6.6112,6.6112,6.6112,6.6112,6.6112,6.6112,6.6112,6.6137,6.6137,6.6112,6.6112,6.6363,6.6463,6.684,6.7066,6.7267,6.7568,6.7693,6.7794,6.7241,6.6641,6.5421,6.4699,6.4124,6.3723,6.3322,6.3346,6.337,6.3538,6.3682,6.3682,6.3586,6.3706,8.5701,8.5641,8.4863,8.4534,8.4444,8.3846,8.3547,8.3457,8.3008,8.2769,8.2769,8.2769,8.2769,8.2769,8.2769,8.2397,8.1733,8.0716,8.0334,8.0163,7.9155,7.7926,7.6978,7.6936,7.5384,7.4153,7.467,7.5707,7.588,7.5649,7.5119,7.4827,7.4699,7.4306,7.3599,7.3003,7.2794,7.2585,7.2506,7.2304,7.1775,7.1292,7.0325,6.8901,6.8549,6.8245,6.7819,6.7543,6.7317,6.689,6.684,6.6589,6.6338,6.6212,6.6162,6.6112,6.6283,6.6283,6.6283,6.6283,6.6283,6.6283,6.6283,6.6283,6.6283,6.6797,6.6967,6.6967,6.7307,6.7646,6.7671,6.8009,6.8203,6.8203,6.8513,6.868,6.8513,6.7815,6.7137,6.6967,6.6455,6.6112,6.6112,6.6112,6.6112,6.6112,6.6112,6.6112,6.6112,6.6162,6.6212,6.6162,6.6112,6.6463,6.6764,6.7292,6.7668,6.7794,6.802,6.817,6.8093,6.799,6.7057,6.601,6.5067,6.447,6.4045,6.349,6.3658,6.3923,6.4043,6.4139,6.4187,6.4235,6.4572,8.621,8.612,8.5492,8.5222,8.5103,8.4504,8.4025,8.3726,8.3397,8.3068,8.2828,8.2769,8.2769,8.2587,8.1947,8.1342,8.0701,7.9523,7.9065,7.8653,7.7579,7.6494,7.5596,7.5622,7.5066,7.4368,7.4552,7.5035,7.5535,7.5186,7.4804,7.478,7.4911,7.4571,7.4101,7.3735,7.3447,7.3186,7.316,7.2982,7.2396,7.1832,7.0809,6.9765,6.9257,6.8953,6.8348,6.7894,6.7693,6.7442,6.7417,6.7241,6.699,6.6689,6.6438,6.6212,6.6137,6.6112,6.6112,6.6112,6.6112,6.6112,6.6112,6.6112,6.6112,6.6455,6.6797,6.6967,6.6967,6.7137,6.7137,6.784,6.8035,6.8009,6.8345,6.868,6.868,6.7983,6.7477,6.6967,6.6455,6.6112,6.6112,6.6112,6.6112,6.6112,6.6112,6.6137,6.6162,6.6312,6.6438,6.6639,6.6689,6.7041,6.7392,6.7844,6.8221,6.8346,6.8497,6.8622,6.8494,6.8185,6.7627,6.6774,6.5876,6.4878,6.4521,6.4308,6.4404,6.4452,6.4548,6.4644,6.4789,6.4981,6.5246,8.6479,8.6449,8.606,8.5821,8.5581,8.4983,8.4414,8.3965,8.3606,8.3397,8.3158,8.2918,8.2766,8.2486,8.1489,8.0454,7.9865,7.8653,7.7951,7.7545,7.6513,7.5499,7.4835,7.5054,7.509,7.4258,7.4542,7.4104,7.4568,7.483,7.4911,7.4938,7.4912,7.4963,7.4573,7.4156,7.4025,7.4022,7.3817,7.3637,7.3147,7.2553,7.1705,7.0323,7.0121,6.9638,6.8748,6.8497,6.817,6.8045,6.797,6.7894,6.7744,6.7367,6.694,6.6513,6.6262,6.6187,6.6262,6.6137,6.6112,6.6112,6.6112,6.6112,6.6112,6.6283,6.6283,6.6626,6.6626,6.6626,6.6797,6.7502,6.784,6.784,6.8177,6.868,6.8345,6.7983,6.7307,6.6967,6.6455,6.6283,6.6112,6.6112,6.6112,6.6112,6.6112,6.6363,6.6413,6.6664,6.689,6.7216,6.7467,6.7769,6.8095,6.8422,6.8698,6.8823,6.8974,6.8945,6.874,6.8353,6.7744,6.6979,6.6494,6.5585,6.5355,6.4981,6.4909,6.4885,6.5005,6.5197,6.5462,6.5534,6.5678,8.5821,8.5851,8.6329,8.624,8.5641,8.5013,8.4684,8.4444,8.3487,8.3547,8.4145,8.3184,8.2599,8.2092,8.1233,8.0547,7.9717,7.8809,7.7738,7.7036,7.6206,7.5119,7.4365,7.4728,7.4598,7.4079,7.4624,7.4833,7.4703,7.4859,7.5016,7.4936,7.5146,7.5199,7.4443,7.4313,7.4131,7.3947,7.3715,7.3354,7.294,7.2656,7.1808,7.078,7.0194,6.9865,6.9325,6.9125,6.8924,6.8572,6.8522,6.8296,6.7894,6.7769,6.7693,6.7342,6.684,6.6338,6.6664,6.6388,6.6112,6.6112,6.6112,6.6112,6.6112,6.6112,6.6283,6.6797,6.6455,6.6283,6.6455,6.6967,6.7477,6.7646,6.784,6.8177,6.8177,6.7646,6.7137,6.6797,6.6455,6.6283,6.6112,6.6112,6.6112,6.6112,6.6187,6.6438,6.6764,6.7066,6.7518,6.7919,6.8145,6.8447,6.8572,6.8924,6.9049,6.92,6.9145,6.927,6.8808,6.8371,6.7848,6.7128,6.6688,6.6079,6.5534,6.5318,6.527,6.539,6.5558,6.5895,6.6256,6.6256,6.6087,8.5013,8.5731,8.6,8.597,8.5671,8.5372,8.5043,8.4714,8.4534,8.4295,8.3931,8.2807,8.135,8.0097,8.0092,7.9577,7.8039,7.7471,7.6859,7.6079,7.5068,7.4389,7.4102,7.4464,7.449,7.4257,7.478,7.5121,7.4964,7.4886,7.5014,7.4933,7.5195,7.5091,7.457,7.4622,7.4859,7.4886,7.4808,7.4443,7.3947,7.3534,7.2681,7.1256,7.0906,7.0316,7.0009,6.9551,6.9376,6.91,6.91,6.8999,6.8698,6.8497,6.8371,6.8648,6.7693,6.7116,6.6915,6.6438,6.6212,6.6112,6.6112,6.6112,6.6112,6.6112,6.6112,6.6283,6.6283,6.6112,6.6112,6.6797,6.6967,6.7307,6.7502,6.7671,6.7671,6.7307,6.6797,6.6626,6.648,6.6334,6.6187,6.6237,6.6262,6.6287,6.6463,6.6789,6.7216,6.7668,6.817,6.8748,6.8924,6.9074,6.91,6.925,6.925,6.917,6.8989,6.8908,6.8544,6.8154,6.758,6.7212,6.6722,6.6272,6.5775,6.5799,6.5871,6.6015,6.6159,6.6304,6.6448,6.6448,6.6328,8.4325,8.5192,8.5372,8.5372,8.5222,8.5372,8.5043,8.4564,8.4737,8.4528,8.3526,8.2163,7.9897,7.82,7.9153,7.8592,7.6215,7.6414,7.5608,7.4625,7.397,7.3653,7.3781,7.4248,7.4408,7.4154,7.4962,7.512,7.4858,7.4726,7.4774,7.4825,7.501,7.48,7.48,7.4774,7.4907,7.551,7.5877,7.5692,7.4929,7.4412,7.3294,7.2048,7.1358,7.0771,7.0387,6.9928,6.9677,6.9401,6.9401,6.9325,6.925,6.9024,6.8974,6.9049,6.8371,6.7819,6.7392,6.689,6.6363,6.6162,6.6112,6.6112,6.6112,6.6112,6.6112,6.6112,6.6112,6.6112,6.6283,6.6626,6.6797,6.6967,6.7137,6.7307,6.7307,6.6797,6.6626,6.6455,6.6334,6.6485,6.6338,6.6363,6.6413,6.6438,6.6714,6.7141,6.7668,6.8246,6.8648,6.9175,6.9225,6.9325,6.9351,6.9401,6.9426,6.927,6.8908,6.8544,6.8362,6.7971,6.7396,6.7027,6.6658,6.6561,6.6111,6.6304,6.6472,6.6376,6.6328,6.64,6.6472,6.6496,6.6124,8.3786,8.3906,8.4504,8.4444,8.3965,8.4534,8.4414,8.3906,8.3473,8.3644,8.348,8.192,7.9971,7.8706,7.8178,7.7991,7.7147,7.6218,7.5276,7.4305,7.358,7.3342,7.358,7.3792,7.403,7.4326,7.4985,7.4933,7.4563,7.4851,7.4505,7.4242,7.482,7.4691,7.4717,7.4872,7.5342,7.6026,7.6737,7.6311,7.5387,7.4498,7.3563,7.2234,7.1309,7.0807,7.033,7.0179,6.9953,6.9577,6.9476,6.9451,6.9401,6.9325,6.9351,6.925,6.8949,6.8472,6.8095,6.7417,6.6714,6.6312,6.6112,6.6112,6.6283,6.6112,6.6112,6.6137,6.6212,6.6162,6.6308,6.6455,6.6752,6.6626,6.6797,6.6797,6.6797,6.6455,6.6283,6.6112,6.6187,6.6338,6.6689,6.6789,6.689,6.6965,6.7392,6.7819,6.8321,6.8823,6.9074,6.9376,6.9376,6.9426,6.9426,6.9451,6.9451,6.927,6.8908,6.8519,6.8154,6.758,6.7027,6.6843,6.6472,6.6472,6.6496,6.6496,6.6496,6.6496,6.6496,6.6496,6.631,6.5938,6.5751,8.3128,8.3158,8.3427,8.3606,8.3756,8.3995,8.3965,8.3816,8.3991,8.3399,8.2625,8.1295,7.9696,7.8393,7.7649,7.6866,7.5836,7.5037,7.4206,7.3851,7.3306,7.3331,7.3707,7.4081,7.464,7.48,7.5195,7.5403,7.529,7.5264,7.5413,7.5464,7.5122,7.5181,7.5181,7.5839,7.6305,7.6615,7.6934,7.6564,7.579,7.4659,7.3722,7.2414,7.1887,7.1535,7.1209,7.0581,7.0229,6.9928,6.9677,6.9551,6.9501,6.9501,6.9476,6.9451,6.9175,6.8974,6.8597,6.7919,6.7416,6.701,6.651,6.6334,6.6581,6.6308,6.6112,6.6212,6.6463,6.6564,6.6187,6.6585,6.6762,6.6434,6.6505,6.6556,6.6409,6.6287,6.6137,6.6162,6.6237,6.6338,6.6815,6.7267,6.7392,6.7543,6.802,6.8472,6.8899,6.92,6.9351,6.9451,6.9451,6.9451,6.9451,6.9451,6.9451,6.9089,6.8701,6.8337,6.7971,6.7236,6.6658,6.6496,6.6496,6.6496,6.6496,6.6496,6.6496,6.6496,6.6496,6.631,6.6124,6.5564,6.5189,8.2769,8.2769,8.2769,8.3038,8.3457,8.3636,8.3453,8.3423,8.3776,8.2939,8.1004,8.0439,7.9124,7.745,7.6732,7.5715,7.4579,7.4027,7.355,7.3215,7.3306,7.3707,7.4081,7.464,7.501,7.5195,7.5406,7.5614,7.5387,7.6026,7.591,7.5764,7.5703,7.5953,7.6227,7.7044,7.7728,7.7531,7.7418,7.6675,7.5973,7.5233,7.4394,7.3293,7.2765,7.2313,7.1962,7.1359,7.0782,7.048,7.0204,6.9903,6.9777,6.9677,6.9602,6.9501,6.9401,6.9225,6.8823,6.817,6.7819,6.7714,6.6862,6.6909,6.7056,6.6833,6.6513,6.6764,6.7041,6.7041,6.6614,6.699,6.7141,6.7114,6.7064,6.7064,6.6913,6.6689,6.6413,6.6237,6.6388,6.6664,6.7317,6.7894,6.8246,6.8371,6.8622,6.8949,6.915,6.9351,6.9401,6.9451,6.9451,6.9451,6.9451,6.9451,6.927,6.8908,6.8544,6.8154,6.758,6.6843,6.6496,6.6496,6.6496,6.6496,6.6496,6.6496,6.6496,6.6496,6.631,6.5938,6.5376,6.4812,6.4435,8.2769,8.2769,8.2769,8.2798,8.2918,8.3457,8.3061,8.2367,8.2533,8.1537,7.9747,7.9312,7.7993,7.6345,7.6009,7.4781,7.3966,7.338,7.3426,7.3504,7.3707,7.4081,7.464,7.501,7.5354,7.5538,7.559,7.5481,7.519,7.543,7.5523,7.6252,7.6612,7.6829,7.6796,7.7832,7.7929,7.7651,7.8039,7.7087,7.6342,7.5752,7.5011,7.4163,7.3519,7.3042,7.2464,7.1937,7.1384,7.1058,7.0882,7.0581,7.0305,7.0179,6.9953,6.9577,6.9476,6.9426,6.9325,6.8371,6.8146,6.8271,6.7616,6.729,6.7942,6.7691,6.7091,6.7317,6.7668,6.7744,6.7719,6.7744,6.7693,6.7543,6.7467,6.7392,6.7216,6.7141,6.689,6.6739,6.6915,6.7216,6.7919,6.8547,6.9049,6.9275,6.9376,6.9451,6.9451,6.9451,6.9451,6.9451,6.9451,6.9451,6.9451,6.9451,6.927,6.8726,6.8362,6.7971,6.7421,6.6867,6.6682,6.6496,6.6496,6.6496,6.6496,6.6496,6.631,6.5938,6.5751,6.5376,6.4812,6.4056,6.3485,8.2769,8.2769,8.2769,8.2617,8.2342,8.2521,8.2491,8.2036,8.1876,8.141,8.0423,7.8906,7.7936,7.6871,7.5067,7.4068,7.4044,7.3378,7.3442,7.3953,7.4268,7.464,7.501,7.538,7.5538,7.5538,7.5432,7.5528,7.5677,7.5575,7.6215,7.6882,7.7473,7.7987,7.8293,7.8449,7.8309,7.795,7.7665,7.698,7.6107,7.5591,7.5069,7.4046,7.3795,7.3418,7.2891,7.2364,7.1962,7.1636,7.146,7.1108,7.0782,7.0606,7.0204,6.9878,6.9752,6.9451,6.9426,6.8999,6.8927,6.8701,6.8247,6.7819,6.8271,6.7844,6.7668,6.7869,6.8196,6.817,6.7869,6.8196,6.817,6.7819,6.7693,6.7668,6.7593,6.7618,6.7518,6.7467,6.7543,6.7794,6.8346,6.8798,6.9275,6.9451,6.9451,6.9451,6.9451,6.9451,6.9451,6.9451,6.9451,6.9451,6.9451,6.927,6.9089,6.8726,6.8362,6.7788,6.7421,6.6867,6.6496,6.6496,6.6496,6.6496,6.631,6.6124,6.5564,6.5189,6.5001,6.5001,6.4435,6.3485,6.2528,8.2769,8.2769,8.2769,8.2435,8.213,8.213,8.1976,8.1823,8.1514,8.1204,8.0551,7.8745,7.7586,7.6677,7.482,7.3426,7.4205,7.3715,7.3889,7.4377,7.4825,7.501,7.5354,7.5538,7.5538,7.5538,7.5299,7.5393,7.6047,7.5717,7.6113,7.7072,7.8014,7.8324,7.8517,7.8324,7.8156,7.7742,7.7379,7.6691,7.602,7.5673,7.5251,7.4699,7.4297,7.3946,7.3418,7.2941,7.2539,7.2263,7.1987,7.1686,7.1384,7.0907,7.048,7.0204,6.9803,6.9501,6.9426,6.9426,6.9304,6.9281,6.8574,6.8398,6.8751,6.8398,6.8296,6.8472,6.8698,6.8622,6.8497,6.8823,6.8673,6.8296,6.8296,6.8296,6.817,6.8221,6.8396,6.8346,6.8371,6.8597,6.8673,6.8999,6.9426,6.9451,6.9451,6.9451,6.9451,6.9451,6.9451,6.9451,6.9451,6.9451,6.927,6.9089,6.8908,6.8544,6.8154,6.7604,6.7236,6.6682,6.6496,6.631,6.631,6.631,6.6124,6.5751,6.5189,6.4624,6.4245,6.4056,6.4079,6.3103,6.1757,8.2769,8.2769,8.2769,8.2435,8.213,8.1976,8.1823,8.1514,8.1049,8.0609,8.0136,7.8774,7.7176,7.585,7.4286,7.3683,7.3846,7.3713,7.4176,7.4881,7.5169,7.5354,7.5538,7.5721,7.5721,7.5564,7.5377,7.5548,7.6452,7.605,7.6056,7.681,7.7599,7.8208,7.8208,7.7794,7.7599,7.7404,7.7013,7.6374,7.6076,7.5929,7.5728,7.5377,7.5101,7.4674,7.4247,7.392,7.3468,7.3192,7.3067,7.2665,7.2113,7.141,7.0857,7.0305,6.9777,6.9702,6.9451,6.9476,6.9451,6.9275,6.8924,6.9357,6.9382,6.9027,6.8848,6.8999,6.9225,6.93,6.9351,6.9325,6.93,6.92,6.9225,6.91,6.8899,6.8999,6.925,6.9351,6.9401,6.9426,6.915,6.9325,6.9677,6.9451,6.9451,6.9451,6.9451,6.9451,6.9451,6.9451,6.927,6.927,6.9089,6.8908,6.8519,6.7971,6.7604,6.7212,6.6843,6.6496,6.631,6.631,6.631,6.6124,6.5564,6.5001,6.4435,6.4079,6.3676,6.3294,6.3103,6.2336,6.1348,8.2769,8.2769,8.2769,8.2312,8.1669,8.1389,8.1234,8.1049,8.0609,8.0452,8.0136,7.7118,7.5954,7.5442,7.4174,7.3686,7.4079,7.4625,7.5094,7.5512,7.5354,7.5538,7.5721,7.5721,7.5721,7.5694,7.561,7.5755,7.6201,7.5971,7.631,7.6988,7.7235,7.7625,7.7625,7.7235,7.7209,7.7209,7.6646,7.6449,7.6252,7.6055,7.5904,7.5603,7.5452,7.5,7.4598,7.4222,7.3745,7.3519,7.3092,7.269,7.2565,7.1937,7.1359,7.043,7.033,7.0355,6.9702,6.9828,6.9878,6.9577,6.93,6.9275,6.9531,6.9325,6.9275,6.9376,6.9451,6.9451,6.9451,6.9451,6.9451,6.9451,6.9451,6.9401,6.9325,6.9677,6.9953,7.0204,7.0255,7.0104,6.9803,6.9803,7.0054,6.9652,6.9476,6.9526,6.9501,6.9501,6.927,6.9089,6.9089,6.9064,6.8701,6.8519,6.7971,6.758,6.7212,6.7027,6.6682,6.631,6.6124,6.5938,6.5751,6.5189,6.4812,6.4245,6.3676,6.3485,6.2912,6.272,6.2143,6.1348,6.0592,8.2529,8.2739,8.2769,8.2465,8.1823,8.1514,8.1389,8.1204,8.058,8.0078,7.9443,7.6594,7.5252,7.5003,7.4059,7.3973,7.4493,7.5042,7.5695,7.5695,7.5721,7.5721,7.5721,7.5748,7.5694,7.5718,7.5709,7.5661,7.6101,7.6454,7.6817,7.6449,7.6646,7.7235,7.7235,7.7039,7.6843,7.6843,7.6646,7.6252,7.6055,7.6055,7.5829,7.5628,7.5552,7.5226,7.4849,7.4448,7.4272,7.382,7.3293,7.3117,7.2841,7.2163,7.1585,7.0807,7.0782,7.0706,7.0355,7.043,7.0229,6.9953,6.9752,6.9777,6.9652,6.9577,6.9476,6.9451,6.9451,6.9451,6.9451,6.9451,6.9451,6.9451,6.9501,6.9551,6.9878,7.028,7.0606,7.0907,7.0907,7.0782,7.0681,7.0631,7.043,7.0054,6.9953,7.0079,6.9903,6.9702,6.9189,6.8701,6.8701,6.8726,6.8337,6.7788,6.7604,6.7236,6.7052,6.6682,6.631,6.6124,6.5775,6.54,6.4836,6.4458,6.4056,6.3485,6.2912,6.2528,6.1951,6.137,6.0787,6.018,5.9417,8.223,8.2769,8.2769,8.2435,8.213,8.213,8.213,8.1976,8.0522,7.9545,7.8584,7.6594,7.5102,7.4581,7.4065,7.4336,7.478,7.5434,7.5721,7.5721,7.5721,7.5721,7.5721,7.58,7.5929,7.5683,7.5773,7.6201,7.6561,7.6759,7.6646,7.6252,7.6646,7.7039,7.7039,7.6798,7.6849,7.7071,7.6626,7.623,7.6105,7.6055,7.6055,7.603,7.5954,7.5804,7.5527,7.5377,7.5276,7.4397,7.382,7.3644,7.2916,7.2339,7.1736,7.146,7.1384,7.1133,7.1008,7.1008,7.0782,7.0531,7.033,7.033,7.0204,6.9702,6.9501,6.9602,6.9627,6.9476,6.9451,6.9476,6.9476,6.9627,6.9752,6.9978,7.0355,7.0807,7.1284,7.1585,7.1736,7.156,7.1108,7.1008,7.0932,7.0506,7.0047,7.0197,6.9914,6.9406,6.9074,6.8119,6.7984,6.78,6.7421,6.7027,6.7052,6.6867,6.6496,6.631,6.5751,6.5587,6.54,6.4836,6.4245,6.3866,6.3485,6.272,6.1951,6.1735,6.0982,6.0027,5.9438,5.9065,5.8755,8.2619,8.2769,8.2435,8.2435,8.2617,8.2282,8.2312,8.2282,7.9833,7.8717,7.8423,7.6345,7.4815,7.4366,7.4091,7.4336,7.4911,7.5434,7.5669,7.5721,7.5721,7.58,7.5852,7.614,7.6268,7.6472,7.6641,7.6651,7.6632,7.6741,7.6646,7.6277,7.65,7.6747,7.6849,7.6878,7.708,7.7279,7.7055,7.6456,7.618,7.6105,7.6055,7.6055,7.603,7.6004,7.5753,7.5477,7.5075,7.4372,7.3895,7.3393,7.2765,7.259,7.2238,7.1887,7.2012,7.1786,7.151,7.1485,7.1384,7.1058,7.0857,7.0882,7.0606,6.9878,6.9577,6.9752,6.9803,6.9652,6.9551,6.9602,6.9652,6.9878,7.0079,7.0455,7.0832,7.1384,7.1912,7.2188,7.2439,7.2138,7.1636,7.141,7.1334,7.0588,6.9511,6.9017,6.8856,6.8499,6.8524,6.782,6.726,6.6814,6.6315,6.6124,6.6124,6.6124,6.5938,6.5564,6.5212,6.5024,6.4624,6.4056,6.3485,6.3103,6.2336,6.1542,6.096,6.057,6.0006,5.9044,5.8755,5.8399,5.8147,8.2499,8.2739,8.2435,8.2617,8.2739,8.2465,8.2282,8.1793,7.9516,7.8233,7.7418,7.5339,7.3981,7.4042,7.3913,7.4362,7.4937,7.546,7.5669,7.5721,7.58,7.5957,7.6166,7.6479,7.6841,7.707,7.7035,7.6929,7.6621,7.6475,7.6303,7.6529,7.6803,7.6929,7.7106,7.7284,7.7435,7.7636,7.7435,7.6908,7.6406,7.623,7.608,7.6055,7.6055,7.6055,7.5979,7.5703,7.5352,7.4699,7.4071,7.3368,7.2891,7.269,7.2565,7.2414,7.2439,7.2464,7.2062,7.1937,7.1987,7.161,7.1158,7.1083,7.0832,7.0204,7.0003,7.0179,7.048,7.038,7.038,7.0405,7.043,7.0581,7.0681,7.0907,7.1384,7.1937,7.2288,7.2489,7.2565,7.2339,7.1937,7.1711,7.1349,7.0316,6.9288,6.8607,6.8209,6.729,6.7362,6.7246,6.6607,6.5944,6.533,6.5189,6.54,6.54,6.5283,6.5048,6.4883,6.4269,6.3866,6.3294,6.272,6.1951,6.1348,6.0441,5.981,5.9592,5.9044,5.8074,5.8001,5.7905,5.7788,8.226,8.2739,8.2769,8.2769,8.2769,8.2587,8.21,8.099,7.9226,7.7666,7.6289,7.4139,7.3243,7.3442,7.3866,7.4441,7.499,7.5512,7.5695,7.5748,7.5852,7.5983,7.6323,7.6793,7.7148,7.7418,7.7292,7.6912,7.6449,7.6576,7.6878,7.7033,7.7034,7.721,7.7586,7.7787,7.7787,7.7737,7.7662,7.7411,7.6933,7.6431,7.623,7.613,7.6055,7.6055,7.6055,7.5979,7.5728,7.5101,7.4297,7.3619,7.3167,7.2966,7.2791,7.2715,7.264,7.2665,7.259,7.2539,7.2364,7.2037,7.151,7.1234,7.1033,7.0907,7.0732,7.0882,7.1209,7.1033,7.1033,7.1058,7.1083,7.1234,7.1309,7.141,7.1962,7.2414,7.2565,7.274,7.2615,7.2439,7.21,7.1875,7.0937,6.988,6.9023,6.8361,6.7675,6.6441,6.5943,6.6085,6.5941,6.5208,6.4478,6.4904,6.5187,6.4974,6.5044,6.4691,6.4362,6.3745,6.3149,6.2359,6.178,6.1114,6.0376,5.9434,5.9172,5.8712,5.8252,5.7697,5.7663,5.7747,5.7788,8.2649,8.2769,8.2769,8.2769,8.2587,8.161,8.0805,7.9992,7.739,7.6009,7.5517,7.4179,7.3264,7.3866,7.4467,7.499,7.5382,7.5669,7.5695,7.5748,7.6113,7.6113,7.6479,7.7394,7.7903,7.7846,7.7522,7.7209,7.6576,7.6878,7.7181,7.6984,7.7812,7.7989,7.7737,7.8013,7.8365,7.8289,7.8038,7.7762,7.7511,7.7009,7.6482,7.6281,7.6055,7.6055,7.6055,7.6055,7.5728,7.5201,7.4649,7.4021,7.3644,7.3393,7.3217,7.2941,7.2866,7.2765,7.2791,7.274,7.2489,7.2489,7.2138,7.2138,7.2037,7.2037,7.2012,7.2288,7.2238,7.1384,7.1259,7.1334,7.141,7.1786,7.1987,7.2163,7.2514,7.2615,7.2665,7.2715,7.2501,7.2047,7.1451,7.1014,7.0411,6.9186,6.7941,6.7225,6.6488,6.5512,6.4559,6.4982,6.5168,6.4813,6.4413,6.4936,6.5198,6.5128,6.4774,6.4136,6.3738,6.3432,6.2619,6.1392,6.0637,5.9868,5.9293,5.8683,5.8389,5.8105,5.7718,5.7297,5.7463,5.7566,5.7546]},{"header":{"parameterUnit":"m.s-1","parameterCategory":1,"la1":31.0,"la2":29.5877,"lo1":-88.7671,"lo2":-86.6584,"dx":0.0162,"dy":0.0185,"nx":115,"ny":88,"refTime":"2023-01-24T06:00:00:Z","depth":0,"parameterNumber":3,"parameterNumberName":"V-component_of_WINDS"},"data":[0.0,0.0,0.0,0.0,0.0,0.0,0.0,0.0,0.0,0.0,0.0,0.0,0.0,0.0,0.0,0.0,0.0,0.0,0.0,0.0,0.0,0.0,0.0,0.0,0.0,0.0,0.0,0.0,0.0,0.0,0.0,0.0,0.0,0.0,0.0,0.0,0.0,0.0,0.0,0.0,0.0,0.0,0.0,0.0,0.0,0.0,0.0,0.0,0.0,0.0,0.0,0.0,0.0,0.0,0.0,0.0,0.0,0.0,0.0,0.0,0.0,0.0,0.0,0.0,0.0,0.0,0.0,0.0,0.0,0.0,0.0,0.0,0.0,0.0,0.0,0.0,0.0,0.0,0.0,0.0,0.0,0.0,0.0,0.0,0.0,0.0,0.0,0.0,0.0,0.0,0.0,0.0,0.0,0.0,0.0,0.0,0.0,0.0,0.0,0.0,0.0,0.0,0.0,0.0,0.0,0.0,0.0,0.0,0.0,0.0,0.0,0.0,0.0,0.0,0.0,0.0,0.0,0.0,0.0,0.0,0.0,0.0,0.0,0.0,0.0,0.0,0.0,0.0,0.0,0.0,0.0,0.0,0.0,0.0,0.0,0.0,0.0,0.0,0.0,0.0,0.0,0.0,0.0,0.0,0.0,0.0,0.0,0.0,0.0,0.0,0.0,0.0,0.0,0.0,0.0,0.0,0.0,0.0,0.0,0.0,0.0,0.0,0.0,0.0,0.0,0.0,0.0,0.0,0.0,0.0,0.0,0.0,0.0,0.0,0.0,0.0,0.0,0.0,0.0,0.0,0.0,0.0,0.0,0.0,0.0,0.0,0.0,0.0,0.0,0.0,0.0,0.0,0.0,0.0,0.0,0.0,0.0,0.0,0.0,0.0,0.0,0.0,0.0,0.0,0.0,0.0,0.0,0.0,0.0,0.0,0.0,0.0,0.0,0.0,0.0,0.0,0.0,0.0,0.0,0.0,0.0,0.0,0.0,0.0,0.0,0.0,0.0,0.0,0.0,0.0,0.0,0.0,0.0,0.0,0.0,0.0,0.0,0.0,0.0,0.0,0.0,0.0,0.0,0.0,0.0,0.0,0.0,0.0,0.0,0.0,0.0,0.0,0.0,0.0,0.0,0.0,0.0,0.0,0.0,0.0,0.0,0.0,0.0,0.0,0.0,0.0,0.0,0.0,0.0,0.0,0.0,0.0,0.0,0.0,0.0,0.0,0.0,0.0,0.0,0.0,0.0,0.0,0.0,0.0,0.0,0.0,0.0,0.0,0.0,0.0,0.0,0.0,0.0,0.0,0.0,0.0,0.0,0.0,0.0,0.0,0.0,0.0,0.0,0.0,0.0,0.0,0.0,0.0,0.0,0.0,0.0,0.0,0.0,0.0,0.0,0.0,0.0,0.0,0.0,0.0,0.0,0.0,0.0,0.0,0.0,0.0,0.0,0.0,0.0,0.0,0.0,0.0,0.0,0.0,0.0,0.0,0.0,0.0,0.0,0.0,0.0,0.0,0.0,0.0,0.0,0.0,0.0,0.0,0.0,0.0,0.0,0.0,0.0,0.0,0.0,0.0,0.0,0.0,0.0,0.0,0.0,0.0,0.0,0.0,0.0,0.0,0.0,0.0,0.0,0.0,0.0,0.0,0.0,0.0,0.0,0.0,0.0,0.0,0.0,0.0,0.0,0.0,0.0,0.0,0.0,0.0,0.0,0.0,0.0,0.0,0.0,0.0,0.0,0.0,0.0,0.0,0.0,0.0,0.0,0.0,0.0,0.0,0.0,0.0,0.0,0.0,0.0,0.0,0.0,0.0,0.0,0.0,0.0,0.0,0.0,0.0,0.0,0.0,0.0,0.0,0.0,0.0,0.0,0.0,0.0,0.0,0.0,0.0,0.0,0.0,0.0,0.0,0.0,0.0,0.0,0.0,0.0,0.0,0.0,0.0,0.0,0.0,0.0,0.0,0.0,0.0,0.0,0.0,0.0,0.0,0.0,0.0,0.0,0.0,0.0,0.0,0.0,0.0,0.0,0.0,0.0,0.0,0.0,0.0,0.0,0.0,0.0,0.0,0.0,0.0,0.0,0.0,0.0,0.0,0.0,0.0,0.0,0.0,0.0,0.0,0.0,0.0,0.0,0.0,0.0,0.0,0.0,0.0,0.0,0.0,0.0,0.0,0.0,0.0,0.0,0.0,0.0,0.0,0.0,0.0,0.0,0.0,0.0,0.0,0.0,0.0,0.0,0.0,0.0,0.0,0.0,0.0,0.0,0.0,0.0,0.0,0.0,0.0,0.0,0.0,0.0,0.0,0.0,0.0,0.0,0.0,0.0,0.0,0.0,0.0,0.0,0.0,0.0,0.0,0.0,0.0,0.0,0.0,0.0,0.0,0.0,0.0,0.0,0.0,0.0,0.0,0.0,0.0,0.0,0.0,0.0,0.0,0.0,0.0,0.0,0.0,0.0,0.0,0.0,0.0,0.0,0.0,0.0,0.0,0.0,0.0,0.0,0.0,0.0,0.0,0.0,0.0,0.0,0.0,0.0,0.0,0.0,0.0,0.0,0.0,0.0,0.0,0.0,0.0,0.0,0.0,0.0,0.0,0.0,0.0,0.0,0.0,0.0,0.0,0.0,0.0,0.0,0.0,0.0,0.0,0.0,0.0,0.0,0.0,0.0,0.0,0.0,0.0,0.0,0.0,0.0,0.0,0.0,0.0,0.0,0.0,0.0,0.0,0.0,0.0,0.0,0.0,0.0,0.0,0.0,0.0,0.0,0.0,0.0,0.0,0.0,0.0,0.0,0.0,0.0,0.0,0.0,0.0,0.0,0.0,0.0,0.0,0.0,0.0,0.0,0.0,0.0,0.0,0.0,0.0,0.0,0.0,0.0,0.0,0.0,0.0,0.0,0.0,0.0,0.0,0.0,0.0,0.0,0.0,0.0,0.0,0.0,0.0,0.0,0.0,0.0,0.0,0.0,0.0,0.0,0.0,0.0,0.0,0.0,0.0,0.0,0.0,0.0,0.0,0.0,0.0,0.0,0.0,0.0,0.0,0.0,0.0,0.0,0.0,0.0,0.0,0.0,0.0,0.0,0.0,0.0,0.0,0.0,0.0,0.0,0.0,0.0,0.0,0.0,0.0,0.0,0.0,0.0,0.0,0.0,0.0,0.0,0.0,0.0,0.0,0.0,0.0,0.0,0.0,0.0,0.0,0.0,0.0,0.0,0.0,0.0,0.0,0.0,0.0,0.0,0.0,0.0,0.0,0.0,0.0,0.0,0.0,0.0,0.0,0.0,0.0,0.0,0.0,0.0,0.0,0.0,0.0,0.0,0.0,0.0,0.0,0.0,0.0,0.0,0.0,0.0,0.0,0.0,0.0,0.0,0.0,0.0,0.0,0.0,0.0,0.0,0.0,0.0,0.0,0.0,0.0,0.0,0.0,0.0,0.0,0.0,0.0,0.0,0.0,0.0,0.0,0.0,0.0,0.0,0.0,0.0,0.0,0.0,0.0,0.0,0.0,0.0,0.0,0.0,0.0,0.0,0.0,0.0,0.0,0.0,0.0,0.0,0.0,0.0,0.0,0.0,0.0,0.0,0.0,0.0,0.0,0.0,0.0,0.0,0.0,0.0,0.0,0.0,0.0,0.0,0.0,0.0,0.0,0.0,0.0,0.0,0.0,0.0,0.0,0.0,0.0,0.0,0.0,0.0,0.0,0.0,0.0,0.0,0.0,0.0,0.0,0.0,0.0,0.0,0.0,0.0,0.0,0.0,0.0,0.0,0.0,0.0,0.0,0.0,0.0,0.0,0.0,0.0,0.0,0.0,0.0,0.0,0.0,0.0,0.0,0.0,0.0,0.0,0.0,0.0,0.0,0.0,0.0,0.0,0.0,0.0,0.0,0.0,0.0,0.0,0.0,0.0,0.0,0.0,0.0,0.0,0.0,0.0,0.0,0.0,0.0,0.0,0.0,0.0,0.0,0.0,0.0,0.0,0.0,0.0,0.0,0.0,0.0,0.0,0.0,0.0,0.0,0.0,0.0,0.0,0.0,0.0,0.0,0.0,0.0,0.0,0.0,0.0,0.0,0.0,0.0,0.0,0.0,0.0,0.0,0.0,0.0,0.0,0.0,0.0,0.0,0.0,0.0,0.0,0.0,0.0,0.0,0.0,0.0,0.0,0.0,0.0,0.0,0.0,0.0,0.0,0.0,0.0,0.0,0.0,0.0,0.0,0.0,0.0,0.0,0.0,0.0,0.0,0.0,0.0,0.0,-4.2013,0.0,0.0,0.0,0.0,0.0,0.0,0.0,0.0,0.0,0.0,0.0,0.0,0.0,0.0,0.0,0.0,0.0,0.0,0.0,0.0,0.0,0.0,0.0,0.0,0.0,0.0,0.0,0.0,0.0,0.0,0.0,0.0,0.0,0.0,0.0,0.0,0.0,0.0,0.0,0.0,0.0,0.0,0.0,0.0,0.0,0.0,0.0,0.0,0.0,0.0,0.0,0.0,0.0,0.0,0.0,0.0,0.0,0.0,0.0,0.0,0.0,0.0,0.0,0.0,0.0,0.0,0.0,0.0,0.0,0.0,0.0,0.0,0.0,0.0,0.0,0.0,0.0,0.0,0.0,0.0,0.0,0.0,0.0,0.0,0.0,0.0,0.0,0.0,0.0,0.0,0.0,0.0,0.0,0.0,0.0,0.0,0.0,0.0,0.0,0.0,0.0,0.0,0.0,0.0,0.0,0.0,0.0,0.0,0.0,0.0,-4.1709,-4.2634,-4.086,-4.0487,-4.1743,0.0,0.0,0.0,0.0,0.0,0.0,0.0,0.0,0.0,0.0,0.0,0.0,0.0,0.0,0.0,0.0,0.0,0.0,0.0,0.0,0.0,0.0,0.0,0.0,0.0,0.0,0.0,0.0,0.0,0.0,0.0,0.0,0.0,0.0,0.0,0.0,0.0,0.0,0.0,0.0,0.0,0.0,0.0,0.0,0.0,0.0,0.0,0.0,0.0,0.0,0.0,0.0,0.0,0.0,0.0,0.0,0.0,0.0,0.0,0.0,0.0,0.0,0.0,0.0,0.0,0.0,0.0,0.0,0.0,0.0,0.0,0.0,0.0,0.0,0.0,0.0,0.0,0.0,0.0,0.0,0.0,0.0,0.0,0.0,0.0,0.0,0.0,0.0,0.0,0.0,0.0,0.0,0.0,0.0,0.0,0.0,0.0,0.0,0.0,0.0,0.0,0.0,0.0,0.0,0.0,0.0,0.0,0.0,0.0,0.0,0.0,0.0,-4.1235,-4.0546,-4.1534,0.0,0.0,0.0,0.0,0.0,0.0,0.0,0.0,0.0,0.0,0.0,0.0,0.0,0.0,0.0,0.0,0.0,0.0,0.0,0.0,0.0,0.0,0.0,0.0,0.0,0.0,0.0,0.0,0.0,0.0,0.0,0.0,0.0,0.0,0.0,0.0,0.0,0.0,0.0,0.0,0.0,0.0,0.0,0.0,0.0,0.0,0.0,0.0,0.0,0.0,0.0,0.0,0.0,0.0,0.0,0.0,0.0,0.0,0.0,0.0,0.0,0.0,0.0,0.0,0.0,0.0,0.0,0.0,0.0,0.0,0.0,0.0,0.0,0.0,0.0,0.0,0.0,0.0,0.0,0.0,0.0,0.0,0.0,0.0,0.0,0.0,0.0,0.0,0.0,0.0,0.0,0.0,0.0,0.0,0.0,0.0,0.0,0.0,0.0,0.0,0.0,0.0,0.0,0.0,0.0,0.0,0.0,0.0,0.0,0.0,-4.321,-4.3329,-4.2521,0.0,-4.2312,0.0,0.0,0.0,0.0,0.0,0.0,0.0,0.0,0.0,0.0,0.0,0.0,0.0,0.0,0.0,0.0,0.0,0.0,0.0,0.0,0.0,0.0,0.0,0.0,0.0,0.0,0.0,0.0,0.0,0.0,0.0,0.0,0.0,0.0,0.0,0.0,0.0,0.0,0.0,0.0,0.0,0.0,0.0,0.0,0.0,0.0,0.0,0.0,0.0,0.0,0.0,0.0,0.0,0.0,0.0,0.0,0.0,0.0,0.0,0.0,0.0,0.0,0.0,0.0,0.0,0.0,0.0,0.0,0.0,0.0,0.0,0.0,0.0,0.0,0.0,0.0,0.0,0.0,0.0,0.0,0.0,0.0,0.0,0.0,0.0,0.0,0.0,0.0,0.0,0.0,0.0,0.0,0.0,0.0,0.0,0.0,0.0,0.0,0.0,0.0,0.0,0.0,0.0,0.0,0.0,0.0,0.0,0.0,0.0,0.0,-4.3329,-4.3329,-4.2701,-4.2342,0.0,0.0,0.0,0.0,0.0,0.0,0.0,0.0,0.0,0.0,0.0,0.0,0.0,0.0,0.0,0.0,0.0,0.0,0.0,0.0,0.0,0.0,0.0,0.0,0.0,0.0,0.0,0.0,0.0,0.0,0.0,0.0,0.0,0.0,0.0,0.0,0.0,0.0,0.0,0.0,0.0,0.0,0.0,0.0,0.0,0.0,0.0,0.0,0.0,0.0,0.0,0.0,0.0,0.0,0.0,0.0,0.0,0.0,0.0,0.0,0.0,0.0,0.0,0.0,0.0,0.0,0.0,0.0,0.0,0.0,0.0,0.0,0.0,0.0,0.0,0.0,0.0,0.0,0.0,0.0,0.0,0.0,0.0,0.0,0.0,0.0,0.0,0.0,0.0,0.0,0.0,0.0,0.0,0.0,0.0,0.0,0.0,0.0,0.0,0.0,0.0,0.0,0.0,0.0,0.0,0.0,0.0,0.0,0.0,0.0,-4.3099,-4.301,-4.2981,-4.2644,-4.2376,-4.2376,0.0,0.0,0.0,0.0,0.0,0.0,0.0,0.0,0.0,0.0,0.0,0.0,0.0,0.0,0.0,0.0,0.0,0.0,0.0,0.0,0.0,0.0,0.0,0.0,0.0,0.0,0.0,0.0,0.0,0.0,0.0,0.0,0.0,0.0,0.0,0.0,0.0,0.0,0.0,0.0,0.0,0.0,0.0,0.0,0.0,0.0,0.0,0.0,0.0,0.0,0.0,0.0,0.0,0.0,0.0,0.0,0.0,0.0,0.0,0.0,0.0,0.0,0.0,0.0,0.0,0.0,0.0,0.0,0.0,0.0,0.0,0.0,0.0,0.0,0.0,0.0,0.0,0.0,0.0,0.0,0.0,0.0,0.0,0.0,0.0,0.0,0.0,0.0,0.0,0.0,0.0,0.0,0.0,0.0,0.0,0.0,0.0,0.0,0.0,0.0,0.0,0.0,0.0,0.0,0.0,0.0,0.0,0.0,0.0,-4.2931,-4.2363,-4.2363,-4.2304,-4.2304,0.0,0.0,0.0,0.0,0.0,0.0,0.0,0.0,0.0,0.0,0.0,0.0,0.0,0.0,0.0,0.0,0.0,0.0,0.0,0.0,0.0,0.0,0.0,0.0,0.0,0.0,0.0,0.0,0.0,0.0,0.0,0.0,0.0,0.0,0.0,0.0,0.0,0.0,0.0,0.0,0.0,0.0,0.0,0.0,0.0,0.0,0.0,0.0,0.0,0.0,0.0,0.0,0.0,0.0,0.0,0.0,0.0,0.0,0.0,0.0,0.0,0.0,0.0,0.0,0.0,0.0,0.0,0.0,0.0,0.0,0.0,0.0,0.0,0.0,0.0,0.0,0.0,0.0,0.0,0.0,0.0,0.0,0.0,0.0,0.0,0.0,0.0,0.0,0.0,0.0,0.0,0.0,0.0,0.0,0.0,0.0,0.0,0.0,0.0,0.0,0.0,0.0,0.0,0.0,0.0,0.0,0.0,0.0,0.0,-4.3828,-4.317,-4.2596,-4.2307,-4.2615,-4.266,0.0,0.0,0.0,0.0,0.0,0.0,0.0,0.0,0.0,0.0,0.0,0.0,0.0,0.0,0.0,0.0,0.0,0.0,0.0,0.0,0.0,0.0,0.0,0.0,0.0,0.0,0.0,0.0,0.0,0.0,0.0,0.0,0.0,0.0,0.0,0.0,0.0,0.0,0.0,0.0,0.0,0.0,0.0,0.0,0.0,0.0,0.0,0.0,0.0,0.0,0.0,0.0,0.0,0.0,0.0,0.0,0.0,0.0,0.0,0.0,0.0,0.0,0.0,0.0,0.0,0.0,0.0,0.0,0.0,0.0,0.0,0.0,0.0,0.0,0.0,0.0,0.0,0.0,0.0,0.0,0.0,0.0,0.0,0.0,0.0,0.0,0.0,0.0,0.0,0.0,0.0,0.0,0.0,0.0,0.0,0.0,0.0,0.0,0.0,0.0,0.0,0.0,0.0,0.0,0.0,0.0,0.0,0.0,0.0,-4.2997,0.0,-4.1962,0.0,-4.2024,-4.2189,0.0,0.0,0.0,0.0,0.0,0.0,0.0,0.0,0.0,0.0,0.0,0.0,0.0,0.0,0.0,0.0,0.0,0.0,0.0,0.0,0.0,0.0,0.0,0.0,0.0,0.0,0.0,0.0,0.0,0.0,0.0,0.0,0.0,0.0,0.0,0.0,0.0,0.0,0.0,0.0,0.0,0.0,0.0,0.0,0.0,0.0,0.0,0.0,0.0,0.0,0.0,0.0,0.0,0.0,0.0,0.0,0.0,0.0,0.0,0.0,0.0,0.0,0.0,0.0,0.0,0.0,0.0,0.0,0.0,0.0,0.0,0.0,0.0,0.0,0.0,0.0,0.0,0.0,0.0,0.0,0.0,0.0,0.0,0.0,0.0,0.0,0.0,0.0,0.0,0.0,0.0,0.0,0.0,0.0,0.0,0.0,0.0,0.0,0.0,0.0,0.0,0.0,0.0,0.0,0.0,0.0,0.0,0.0,-4.2587,-4.129,-4.0733,-4.051,-4.0371,-4.0427,-4.0688,0.0,0.0,0.0,0.0,0.0,0.0,0.0,0.0,0.0,0.0,0.0,0.0,0.0,0.0,0.0,0.0,0.0,0.0,0.0,0.0,0.0,0.0,0.0,0.0,0.0,0.0,0.0,0.0,0.0,0.0,0.0,0.0,0.0,0.0,0.0,0.0,0.0,0.0,0.0,0.0,0.0,0.0,0.0,0.0,0.0,0.0,0.0,0.0,0.0,0.0,0.0,0.0,0.0,0.0,0.0,0.0,0.0,0.0,0.0,0.0,0.0,0.0,0.0,0.0,0.0,0.0,0.0,0.0,0.0,0.0,0.0,0.0,0.0,0.0,0.0,0.0,0.0,0.0,0.0,0.0,0.0,0.0,0.0,0.0,0.0,0.0,0.0,0.0,0.0,0.0,0.0,0.0,0.0,0.0,0.0,0.0,0.0,0.0,0.0,0.0,0.0,0.0,0.0,0.0,0.0,0.0,0.0,0.0,0.0,-4.2383,-4.1742,-4.1699,-4.2082,-4.1744,-4.1835,0.0,0.0,0.0,0.0,0.0,0.0,0.0,0.0,0.0,0.0,0.0,0.0,0.0,0.0,0.0,0.0,0.0,0.0,0.0,0.0,0.0,0.0,0.0,0.0,0.0,0.0,0.0,0.0,0.0,0.0,0.0,0.0,0.0,0.0,0.0,0.0,0.0,0.0,0.0,0.0,0.0,0.0,0.0,0.0,0.0,0.0,0.0,0.0,0.0,0.0,0.0,0.0,0.0,0.0,0.0,0.0,0.0,0.0,0.0,0.0,0.0,0.0,0.0,0.0,0.0,0.0,0.0,0.0,0.0,0.0,0.0,0.0,0.0,0.0,0.0,0.0,0.0,0.0,0.0,0.0,0.0,0.0,0.0,0.0,0.0,0.0,0.0,0.0,0.0,0.0,0.0,0.0,0.0,0.0,0.0,0.0,0.0,0.0,0.0,0.0,0.0,0.0,0.0,0.0,0.0,0.0,0.0,0.0,0.0,-4.3849,-4.2565,-4.2097,-4.2355,-4.2194,-4.2122,-4.2326,0.0,0.0,0.0,0.0,0.0,0.0,0.0,0.0,0.0,0.0,0.0,0.0,0.0,0.0,0.0,0.0,0.0,0.0,0.0,0.0,0.0,0.0,0.0,0.0,0.0,0.0,0.0,0.0,0.0,0.0,0.0,0.0,0.0,0.0,0.0,0.0,0.0,0.0,0.0,0.0,0.0,0.0,0.0,0.0,0.0,0.0,0.0,0.0,0.0,0.0,0.0,0.0,0.0,0.0,0.0,0.0,0.0,0.0,0.0,0.0,0.0,0.0,0.0,0.0,0.0,0.0,0.0,0.0,0.0,0.0,0.0,0.0,0.0,0.0,0.0,0.0,0.0,0.0,0.0,0.0,0.0,0.0,0.0,0.0,0.0,0.0,0.0,0.0,0.0,0.0,0.0,0.0,0.0,0.0,0.0,0.0,0.0,0.0,0.0,0.0,0.0,0.0,0.0,0.0,0.0,0.0,0.0,0.0,-4.5527,-4.3459,-4.2233,-4.1887,-4.2012,-4.1854,0.0,0.0,0.0,0.0,0.0,0.0,0.0,0.0,0.0,0.0,0.0,0.0,0.0,0.0,0.0,0.0,0.0,0.0,0.0,0.0,0.0,0.0,0.0,0.0,0.0,0.0,0.0,0.0,0.0,0.0,0.0,0.0,0.0,0.0,0.0,0.0,0.0,0.0,0.0,0.0,0.0,0.0,0.0,0.0,0.0,0.0,0.0,0.0,0.0,0.0,0.0,0.0,0.0,0.0,0.0,0.0,0.0,0.0,0.0,0.0,0.0,0.0,0.0,0.0,0.0,0.0,0.0,0.0,0.0,0.0,0.0,0.0,0.0,0.0,0.0,0.0,0.0,0.0,0.0,0.0,0.0,0.0,0.0,0.0,0.0,0.0,0.0,0.0,0.0,0.0,0.0,0.0,0.0,0.0,0.0,0.0,0.0,0.0,0.0,0.0,0.0,0.0,0.0,0.0,0.0,0.0,0.0,0.0,0.0,-4.7389,-4.7791,-4.7388,-4.5998,-4.4626,-4.3963,0.0,0.0,0.0,0.0,0.0,0.0,0.0,0.0,0.0,0.0,0.0,0.0,0.0,0.0,0.0,0.0,0.0,0.0,0.0,0.0,0.0,0.0,0.0,0.0,0.0,0.0,0.0,0.0,0.0,0.0,0.0,0.0,0.0,0.0,0.0,0.0,0.0,0.0,0.0,0.0,0.0,0.0,0.0,0.0,0.0,0.0,0.0,0.0,0.0,0.0,0.0,0.0,0.0,0.0,0.0,0.0,0.0,0.0,0.0,0.0,0.0,0.0,0.0,0.0,0.0,0.0,0.0,0.0,0.0,0.0,0.0,0.0,0.0,0.0,0.0,0.0,0.0,0.0,0.0,0.0,0.0,0.0,0.0,0.0,0.0,0.0,0.0,0.0,0.0,0.0,0.0,0.0,0.0,0.0,0.0,0.0,0.0,0.0,0.0,0.0,0.0,0.0,0.0,0.0,0.0,0.0,0.0,0.0,-4.7926,-4.9335,-5.0883,-5.1407,-5.0721,-4.8105,-4.6275,0.0,0.0,0.0,0.0,0.0,0.0,0.0,0.0,0.0,0.0,0.0,0.0,0.0,0.0,0.0,0.0,0.0,0.0,0.0,0.0,0.0,0.0,0.0,0.0,0.0,0.0,0.0,0.0,0.0,0.0,0.0,0.0,0.0,0.0,0.0,0.0,0.0,0.0,0.0,0.0,0.0,0.0,0.0,0.0,0.0,0.0,0.0,0.0,0.0,0.0,0.0,0.0,0.0,0.0,0.0,0.0,0.0,0.0,0.0,0.0,0.0,0.0,0.0,0.0,0.0,0.0,0.0,0.0,0.0,0.0,0.0,0.0,0.0,0.0,0.0,0.0,0.0,0.0,0.0,0.0,0.0,0.0,0.0,0.0,0.0,0.0,0.0,0.0,0.0,0.0,0.0,0.0,0.0,0.0,0.0,0.0,0.0,0.0,0.0,0.0,0.0,0.0,0.0,0.0,0.0,0.0,0.0,0.0,-4.977,-5.1312,-5.3163,-5.4509,-5.4945,-5.1664,-4.8521,0.0,0.0,0.0,0.0,0.0,0.0,0.0,0.0,0.0,0.0,0.0,0.0,0.0,0.0,0.0,0.0,0.0,0.0,0.0,0.0,0.0,0.0,0.0,0.0,0.0,0.0,0.0,0.0,0.0,0.0,0.0,0.0,0.0,0.0,0.0,0.0,0.0,0.0,0.0,0.0,0.0,0.0,0.0,0.0,0.0,0.0,0.0,0.0,0.0,0.0,0.0,0.0,0.0,0.0,0.0,0.0,0.0,0.0,0.0,0.0,0.0,0.0,0.0,0.0,0.0,0.0,0.0,0.0,0.0,0.0,0.0,0.0,0.0,0.0,0.0,0.0,0.0,0.0,0.0,0.0,0.0,0.0,0.0,0.0,0.0,0.0,0.0,0.0,0.0,0.0,0.0,0.0,0.0,0.0,0.0,0.0,0.0,0.0,0.0,0.0,0.0,0.0,0.0,0.0,0.0,0.0,0.0,0.0,-5.0194,-5.247,-5.4712,-5.6277,-5.6816,-5.2621,-4.927,0.0,0.0,0.0,0.0,0.0,0.0,0.0,0.0,0.0,0.0,0.0,0.0,0.0,0.0,0.0,0.0,0.0,0.0,0.0,0.0,0.0,0.0,0.0,0.0,0.0,0.0,0.0,0.0,0.0,0.0,0.0,0.0,0.0,0.0,0.0,0.0,0.0,0.0,0.0,0.0,0.0,0.0,0.0,0.0,0.0,0.0,0.0,0.0,-4.6434,0.0,0.0,0.0,0.0,0.0,0.0,0.0,0.0,0.0,0.0,0.0,0.0,0.0,0.0,0.0,0.0,0.0,0.0,0.0,0.0,0.0,0.0,0.0,0.0,0.0,0.0,0.0,0.0,0.0,0.0,0.0,0.0,0.0,0.0,0.0,0.0,0.0,0.0,0.0,0.0,0.0,0.0,0.0,0.0,0.0,0.0,0.0,0.0,0.0,0.0,0.0,0.0,0.0,0.0,0.0,0.0,0.0,0.0,0.0,-5.2017,-5.4937,-5.6539,-5.7738,-5.8379,-5.4517,-5.1428,0.0,0.0,0.0,0.0,0.0,0.0,0.0,0.0,0.0,0.0,0.0,0.0,0.0,0.0,0.0,0.0,0.0,0.0,0.0,0.0,0.0,0.0,0.0,0.0,0.0,0.0,0.0,0.0,0.0,0.0,0.0,0.0,0.0,0.0,0.0,0.0,0.0,0.0,0.0,0.0,0.0,0.0,0.0,0.0,0.0,0.0,0.0,0.0,0.0,0.0,0.0,0.0,0.0,0.0,0.0,0.0,0.0,0.0,0.0,0.0,0.0,0.0,0.0,0.0,0.0,0.0,0.0,0.0,0.0,0.0,0.0,0.0,0.0,0.0,0.0,0.0,0.0,0.0,0.0,0.0,0.0,0.0,0.0,0.0,0.0,0.0,0.0,0.0,0.0,0.0,0.0,0.0,0.0,0.0,0.0,0.0,0.0,0.0,0.0,0.0,0.0,0.0,0.0,0.0,0.0,0.0,0.0,-5.155,-5.3982,-5.7277,-5.7926,-5.8763,-5.9788,-5.6647,-5.3804,-5.1452,0.0,0.0,0.0,0.0,0.0,0.0,0.0,0.0,0.0,0.0,0.0,0.0,0.0,0.0,0.0,0.0,0.0,0.0,0.0,0.0,0.0,0.0,0.0,0.0,0.0,0.0,0.0,0.0,0.0,0.0,0.0,0.0,0.0,0.0,0.0,0.0,0.0,0.0,-4.6189,-4.6969,0.0,0.0,0.0,0.0,0.0,0.0,0.0,0.0,-4.8041,0.0,0.0,0.0,0.0,0.0,0.0,0.0,0.0,0.0,0.0,0.0,0.0,0.0,0.0,0.0,0.0,0.0,0.0,0.0,0.0,0.0,0.0,0.0,0.0,0.0,0.0,0.0,0.0,0.0,0.0,0.0,0.0,0.0,0.0,0.0,0.0,0.0,0.0,0.0,0.0,0.0,0.0,0.0,0.0,0.0,0.0,0.0,0.0,0.0,0.0,0.0,0.0,0.0,0.0,0.0,0.0,-5.1572,-5.1625,-5.3643,-5.7597,-5.7992,-5.8763,-5.9788,-5.7099,-5.4617,-5.244,0.0,0.0,0.0,0.0,0.0,0.0,0.0,0.0,0.0,0.0,0.0,0.0,0.0,0.0,0.0,0.0,0.0,0.0,0.0,0.0,0.0,0.0,0.0,0.0,0.0,0.0,0.0,0.0,0.0,0.0,0.0,0.0,0.0,0.0,0.0,0.0,0.0,0.0,0.0,-4.9504,-5.0348,0.0,0.0,0.0,0.0,0.0,0.0,0.0,0.0,-4.8354,0.0,0.0,0.0,0.0,0.0,0.0,0.0,0.0,0.0,0.0,0.0,0.0,0.0,0.0,0.0,0.0,0.0,0.0,0.0,0.0,0.0,0.0,0.0,0.0,0.0,0.0,0.0,0.0,0.0,0.0,0.0,0.0,0.0,0.0,0.0,0.0,0.0,0.0,0.0,0.0,0.0,0.0,0.0,0.0,0.0,0.0,0.0,0.0,0.0,0.0,0.0,0.0,0.0,0.0,0.0,-5.2936,-5.3143,-5.4961,-5.8646,-5.8652,-5.905,-5.9896,-5.675,-5.4199,0.0,0.0,0.0,0.0,0.0,0.0,0.0,0.0,0.0,0.0,0.0,0.0,0.0,0.0,0.0,0.0,0.0,0.0,0.0,0.0,0.0,0.0,0.0,0.0,0.0,0.0,0.0,0.0,0.0,0.0,0.0,0.0,0.0,0.0,0.0,0.0,0.0,0.0,0.0,0.0,-5.0417,-5.1279,-5.0514,0.0,0.0,0.0,0.0,0.0,0.0,-4.9366,-4.8837,0.0,0.0,0.0,0.0,0.0,0.0,0.0,0.0,0.0,0.0,0.0,0.0,0.0,0.0,0.0,0.0,0.0,0.0,0.0,0.0,0.0,0.0,0.0,0.0,0.0,0.0,0.0,0.0,0.0,0.0,0.0,0.0,0.0,0.0,0.0,0.0,0.0,0.0,0.0,0.0,0.0,0.0,0.0,0.0,0.0,0.0,0.0,0.0,0.0,0.0,0.0,0.0,0.0,0.0,0.0,-5.4027,-5.4551,-5.6359,-5.9552,-5.9351,-5.9284,-5.9998,-5.6446,-5.3818,0.0,0.0,0.0,0.0,0.0,0.0,0.0,0.0,0.0,0.0,0.0,0.0,0.0,0.0,0.0,0.0,0.0,0.0,0.0,0.0,0.0,0.0,0.0,0.0,0.0,0.0,0.0,0.0,0.0,0.0,0.0,0.0,0.0,0.0,0.0,0.0,0.0,0.0,0.0,0.0,0.0,-5.2457,-5.2082,-5.2866,0.0,0.0,0.0,0.0,-5.1001,-5.0834,0.0,0.0,0.0,0.0,0.0,0.0,0.0,0.0,0.0,0.0,0.0,0.0,0.0,0.0,0.0,0.0,0.0,0.0,0.0,0.0,0.0,0.0,0.0,0.0,0.0,0.0,0.0,0.0,0.0,0.0,0.0,0.0,0.0,0.0,0.0,0.0,0.0,0.0,0.0,0.0,0.0,0.0,0.0,0.0,0.0,0.0,0.0,0.0,0.0,0.0,0.0,0.0,0.0,0.0,0.0,0.0,-5.353,-5.4868,-5.692,-5.9552,-5.9204,-5.9284,-6.0023,-5.7091,-5.4653,0.0,0.0,0.0,0.0,0.0,0.0,0.0,0.0,0.0,0.0,0.0,0.0,0.0,0.0,0.0,0.0,0.0,0.0,0.0,0.0,0.0,0.0,0.0,0.0,0.0,0.0,0.0,0.0,0.0,0.0,0.0,0.0,0.0,0.0,0.0,0.0,0.0,0.0,0.0,0.0,0.0,-5.543,-5.4274,-5.5099,-5.5503,0.0,0.0,-5.3482,-5.4288,-5.4921,0.0,0.0,0.0,0.0,0.0,0.0,0.0,0.0,0.0,0.0,0.0,0.0,0.0,0.0,0.0,0.0,0.0,0.0,0.0,0.0,0.0,0.0,0.0,0.0,0.0,0.0,0.0,0.0,0.0,0.0,0.0,0.0,0.0,0.0,0.0,0.0,0.0,0.0,0.0,0.0,0.0,0.0,0.0,0.0,0.0,0.0,0.0,0.0,0.0,0.0,0.0,0.0,0.0,0.0,0.0,-5.0988,-5.4194,-5.5589,-5.7571,-6.0105,-5.9817,-5.9766,-6.0099,-5.6555,-5.4091,0.0,0.0,0.0,0.0,0.0,0.0,0.0,0.0,0.0,0.0,0.0,0.0,0.0,0.0,0.0,0.0,0.0,0.0,0.0,0.0,0.0,0.0,0.0,0.0,0.0,0.0,0.0,0.0,0.0,0.0,0.0,0.0,0.0,0.0,0.0,0.0,0.0,0.0,0.0,0.0,0.0,0.0,-5.5495,-5.5946,0.0,0.0,0.0,-5.5365,-5.5929,0.0,0.0,0.0,0.0,0.0,0.0,0.0,0.0,0.0,0.0,0.0,0.0,0.0,0.0,0.0,0.0,0.0,0.0,0.0,0.0,0.0,0.0,0.0,0.0,0.0,0.0,0.0,0.0,0.0,0.0,0.0,0.0,0.0,0.0,0.0,0.0,0.0,0.0,0.0,0.0,0.0,0.0,0.0,0.0,0.0,0.0,0.0,0.0,0.0,0.0,0.0,0.0,0.0,0.0,0.0,0.0,0.0,-5.4891,-5.6432,-5.8349,-6.0645,-6.0179,-6.0022,-6.0023,-5.6336,0.0,0.0,0.0,0.0,0.0,0.0,0.0,0.0,0.0,0.0,0.0,0.0,0.0,0.0,0.0,0.0,0.0,0.0,0.0,0.0,0.0,0.0,0.0,0.0,0.0,0.0,0.0,-4.4107,0.0,0.0,0.0,0.0,0.0,0.0,0.0,0.0,0.0,0.0,0.0,0.0,0.0,0.0,-5.6793,-5.6839,-5.7313,-5.8165,0.0,0.0,-5.7451,-5.7974,-5.7974,-5.6908,0.0,0.0,0.0,0.0,0.0,0.0,0.0,0.0,0.0,0.0,0.0,0.0,0.0,0.0,0.0,0.0,0.0,0.0,0.0,0.0,0.0,0.0,0.0,0.0,0.0,0.0,0.0,0.0,0.0,0.0,0.0,0.0,0.0,0.0,0.0,0.0,0.0,0.0,0.0,0.0,0.0,0.0,0.0,0.0,0.0,0.0,0.0,0.0,0.0,0.0,0.0,0.0,0.0,0.0,0.0,-5.5172,-5.6877,-5.8778,-6.0671,-6.0179,-6.0022,-6.0048,-5.7334,-5.5191,0.0,0.0,0.0,0.0,0.0,0.0,0.0,0.0,0.0,0.0,0.0,0.0,0.0,0.0,0.0,0.0,0.0,0.0,0.0,0.0,0.0,0.0,0.0,0.0,0.0,0.0,0.0,0.0,0.0,0.0,0.0,0.0,0.0,0.0,0.0,0.0,0.0,0.0,0.0,0.0,0.0,-5.7804,-5.8107,-5.9971,-6.1644,0.0,0.0,-6.0148,-6.0787,-6.2354,-6.1646,-5.6222,0.0,0.0,0.0,0.0,0.0,0.0,0.0,0.0,0.0,0.0,0.0,0.0,0.0,0.0,0.0,0.0,0.0,0.0,0.0,0.0,0.0,0.0,0.0,0.0,0.0,0.0,0.0,0.0,0.0,0.0,0.0,0.0,0.0,0.0,0.0,0.0,0.0,0.0,0.0,0.0,0.0,0.0,0.0,0.0,0.0,0.0,0.0,0.0,0.0,0.0,0.0,0.0,0.0,-5.2242,-5.5386,-5.7085,-5.9142,-6.1247,-6.0665,-6.0354,-6.0099,-5.807,-5.6031,0.0,0.0,0.0,0.0,0.0,0.0,0.0,0.0,0.0,0.0,0.0,0.0,0.0,0.0,0.0,0.0,0.0,0.0,0.0,0.0,0.0,0.0,0.0,0.0,0.0,0.0,0.0,0.0,-4.4317,-4.4736,-4.5813,0.0,0.0,0.0,0.0,0.0,0.0,0.0,0.0,0.0,0.0,-5.8297,-5.9652,-6.1082,0.0,0.0,-6.3236,-6.2666,-6.2942,-6.2529,-6.0952,-5.702,-5.5225,0.0,0.0,0.0,0.0,0.0,0.0,0.0,0.0,0.0,0.0,0.0,0.0,0.0,0.0,0.0,0.0,0.0,0.0,0.0,0.0,0.0,0.0,0.0,0.0,0.0,0.0,0.0,0.0,0.0,0.0,0.0,0.0,0.0,0.0,0.0,0.0,0.0,0.0,0.0,0.0,0.0,0.0,0.0,0.0,0.0,0.0,0.0,0.0,0.0,0.0,0.0,0.0,-5.2056,-5.5181,-5.701,-5.9035,-6.13,-6.0872,-6.0431,-6.0074,-5.8528,-5.6573,0.0,0.0,0.0,0.0,0.0,0.0,0.0,0.0,0.0,0.0,0.0,0.0,0.0,0.0,0.0,0.0,0.0,0.0,0.0,0.0,0.0,0.0,0.0,0.0,0.0,0.0,0.0,0.0,-4.4915,-4.5274,-4.6232,0.0,0.0,0.0,0.0,0.0,0.0,0.0,0.0,0.0,0.0,-5.8991,-6.063,-6.1966,-6.3149,-6.4306,-6.3885,-6.3667,-6.3989,-6.2732,-6.0716,-5.8222,0.0,0.0,0.0,0.0,0.0,0.0,0.0,0.0,0.0,0.0,0.0,0.0,0.0,0.0,0.0,0.0,0.0,0.0,0.0,0.0,0.0,0.0,0.0,0.0,0.0,0.0,0.0,0.0,0.0,0.0,-4.1105,0.0,0.0,0.0,0.0,0.0,0.0,0.0,0.0,0.0,0.0,0.0,0.0,0.0,0.0,0.0,0.0,0.0,0.0,0.0,0.0,0.0,0.0,-5.2173,-5.4364,-5.6422,-5.8329,-6.0195,-6.0147,-6.0125,-6.0099,-5.8605,-5.6864,-5.4781,0.0,0.0,0.0,0.0,0.0,0.0,0.0,0.0,0.0,0.0,0.0,0.0,0.0,0.0,0.0,0.0,0.0,0.0,0.0,0.0,0.0,0.0,0.0,0.0,0.0,0.0,-4.6232,-4.6262,-4.6292,0.0,0.0,0.0,0.0,0.0,0.0,0.0,0.0,0.0,0.0,-5.7458,-6.0007,-6.1052,-6.2883,-6.4124,-6.4154,-6.3047,-6.2587,-6.3806,-6.3179,-6.1891,0.0,0.0,0.0,0.0,0.0,0.0,0.0,0.0,0.0,0.0,0.0,0.0,0.0,0.0,0.0,0.0,0.0,0.0,0.0,0.0,0.0,0.0,0.0,0.0,0.0,0.0,0.0,-4.1043,-4.0938,0.0,0.0,0.0,0.0,0.0,0.0,0.0,0.0,0.0,0.0,0.0,-4.4568,-4.5354,0.0,0.0,0.0,0.0,0.0,0.0,0.0,0.0,0.0,0.0,0.0,0.0,-5.194,-5.4821,-5.6366,-5.8182,-6.0597,-6.0327,-5.9971,-5.9637,-5.931,-5.7798,-5.5344,0.0,0.0,0.0,0.0,0.0,0.0,0.0,0.0,0.0,0.0,0.0,0.0,0.0,0.0,0.0,0.0,0.0,0.0,0.0,0.0,0.0,0.0,0.0,0.0,0.0,-4.6181,0.0,0.0,0.0,0.0,0.0,0.0,0.0,0.0,0.0,0.0,0.0,-5.2733,-5.4997,-5.7537,-5.9556,-6.0966,-6.3177,-6.4656,0.0,0.0,0.0,0.0,0.0,0.0,0.0,0.0,0.0,0.0,0.0,0.0,0.0,0.0,-5.5749,-5.2237,-5.1738,-5.1677,-5.0836,0.0,0.0,0.0,0.0,0.0,0.0,0.0,0.0,0.0,0.0,0.0,0.0,0.0,0.0,0.0,0.0,-4.1932,0.0,0.0,0.0,0.0,0.0,0.0,0.0,0.0,-4.4568,-4.5764,-4.6835,-4.7808,-4.8284,0.0,-4.7707,-4.6778,0.0,0.0,0.0,0.0,0.0,0.0,0.0,0.0,-5.1898,-5.4629,-5.6124,-5.7938,-6.0263,-6.0125,-5.9792,-5.9483,-5.9084,-5.8073,-5.6326,-5.3907,-5.1689,0.0,0.0,0.0,0.0,0.0,0.0,0.0,0.0,0.0,0.0,0.0,0.0,0.0,0.0,0.0,0.0,0.0,0.0,0.0,0.0,0.0,0.0,0.0,-4.7195,0.0,0.0,0.0,0.0,0.0,0.0,0.0,0.0,0.0,-5.1727,-5.2773,-5.4361,-5.6285,-5.8483,-6.0233,-6.1527,0.0,0.0,0.0,0.0,0.0,0.0,0.0,-6.2496,-6.1948,-6.0537,-5.9429,-5.8807,-5.9525,-6.0359,-6.0761,0.0,0.0,-5.5958,-5.5112,-5.4768,-5.397,-5.3238,-5.2788,-5.2925,-5.3234,-5.3803,0.0,0.0,0.0,0.0,0.0,0.0,0.0,0.0,-4.3563,-4.33,0.0,-4.3288,0.0,0.0,0.0,0.0,0.0,-4.3681,0.0,0.0,-4.7556,-4.876,-4.8704,-5.0012,-5.0594,-5.0544,-5.0042,-4.9464,-4.8786,-4.6753,0.0,0.0,0.0,0.0,0.0,0.0,-5.2179,-5.3705,-5.5939,-5.7724,-5.9287,-5.936,-5.9508,-5.9458,-5.8277,-5.774,-5.7537,-5.5185,-5.3137,-5.2078,-5.1216,0.0,0.0,0.0,0.0,0.0,0.0,0.0,0.0,0.0,0.0,0.0,0.0,0.0,0.0,0.0,0.0,0.0,0.0,0.0,0.0,-4.9072,0.0,0.0,0.0,0.0,0.0,0.0,0.0,0.0,0.0,0.0,-5.3199,-5.4582,-5.6344,-5.8048,0.0,0.0,0.0,0.0,-6.3877,-6.3262,-6.3167,-6.3506,-6.3923,-6.3602,-6.3399,-6.398,0.0,0.0,-6.2352,-6.3094,-6.3786,-6.3873,-6.4872,-6.4589,-6.1286,-5.964,-5.8749,-5.8605,-5.7482,-5.6479,-5.6422,-5.7053,-5.7477,-5.0814,0.0,0.0,0.0,0.0,-4.5646,-4.6013,-4.6581,-4.6914,-4.639,-4.5335,-4.5515,0.0,0.0,0.0,0.0,0.0,0.0,-4.625,-4.7807,-4.9531,-5.108,-5.2817,-5.4034,-5.4361,-5.3959,-5.3406,-5.2653,-5.1724,-5.0695,-4.924,-4.7516,0.0,0.0,0.0,0.0,-5.2481,-5.5332,-5.6522,-5.79,-5.9845,-5.9562,-5.9508,-5.9508,-5.9184,-5.8732,-5.8247,-5.6954,-5.5417,-5.3757,-5.2594,0.0,0.0,0.0,0.0,0.0,0.0,0.0,0.0,0.0,0.0,0.0,0.0,0.0,0.0,0.0,0.0,0.0,0.0,0.0,-4.994,-5.0449,-5.0632,0.0,0.0,0.0,0.0,0.0,0.0,0.0,0.0,0.0,-5.8189,-5.7193,-5.721,0.0,0.0,-6.1552,-6.2099,-6.3421,-6.437,-6.4494,-6.5287,0.0,-6.6373,-6.6363,-6.6224,-6.64,-6.5991,-6.586,-6.6774,-6.7293,-6.7775,-6.8635,-6.8763,-6.8318,-6.7449,-6.5754,-6.4304,-6.3387,-6.3061,-6.2824,-6.1997,-6.2057,-6.2611,-5.6264,-5.2042,-5.0201,-4.9261,-4.9132,-4.9389,-4.9721,-5.0181,-5.0588,-4.9824,-4.8359,-4.8506,-4.7405,-4.5699,-4.5739,0.0,0.0,0.0,-4.8909,-5.0619,-5.179,-5.3468,-5.5541,-5.647,-5.6696,-5.6369,-5.5817,-5.5089,-5.421,-5.3457,-5.2387,-5.1093,0.0,0.0,-5.0713,-5.1736,-5.3572,-5.6276,-5.7187,-5.8429,-6.0074,-5.9817,-5.9817,-5.9946,-5.9971,-5.9795,-5.9286,-5.843,-5.7178,-5.5486,-5.4313,-5.3028,0.0,0.0,0.0,0.0,0.0,0.0,0.0,0.0,0.0,0.0,0.0,-4.9357,0.0,0.0,0.0,0.0,-5.1326,-5.1806,-5.2034,-5.2358,0.0,0.0,0.0,0.0,0.0,0.0,0.0,-5.9096,-5.954,-6.0541,-6.2172,-6.1055,-6.0441,-6.1498,-6.2379,-6.3227,-6.3983,0.0,-6.5735,-6.6125,-6.6833,-6.754,-6.8171,-6.8219,-6.8366,-6.8761,-6.8861,-6.9109,-6.9981,-7.0331,-7.0829,-7.1427,-7.1398,-7.1128,-7.1158,-7.032,-6.9034,-6.7059,-6.6909,-6.6879,-6.6101,-6.6398,-6.6803,-6.1703,-5.9817,-5.6098,-5.4337,-5.4031,-5.4031,-5.3912,-5.3881,-5.4256,-5.3443,-5.1715,-5.1946,-5.0814,-4.8992,-4.9464,0.0,-4.8909,-5.0684,-5.2052,-5.3113,-5.4214,-5.5541,-5.7097,-5.775,-5.8027,-5.8001,-5.7474,-5.6947,-5.6369,-5.539,-5.498,-5.5062,-5.2557,-5.1503,-5.179,-5.3462,-5.5064,-5.6545,-5.8022,-5.9084,-6.0099,-6.0125,-6.0278,-6.0737,-6.0737,-6.0737,-6.0685,-5.9643,-5.8419,-5.7254,-5.6306,-5.4786,-5.2721,0.0,0.0,0.0,0.0,0.0,0.0,0.0,0.0,0.0,0.0,0.0,0.0,0.0,0.0,0.0,-5.4097,0.0,-5.4701,-5.476,0.0,0.0,0.0,-5.8276,-5.9822,-6.0871,-6.2114,-6.3565,0.0,0.0,-6.5128,-6.5335,-6.531,-6.508,-6.5436,-6.6055,-6.7078,-6.7411,-6.7805,-6.82,-6.8318,-6.8631,-6.9619,-6.9706,-7.0081,-7.0849,-7.1577,-7.1876,-7.2026,-7.2475,-7.2924,-7.3073,-7.3013,-7.2954,-7.2984,-7.3253,-7.2954,-6.9931,-6.9482,-6.9482,-6.9423,-6.9842,-7.0152,-6.5056,-6.456,-6.3155,-6.0567,-5.7226,-5.7487,-5.781,-5.8186,-5.7772,-5.6482,-5.4705,-5.4006,-5.3094,-5.1948,-5.3601,-5.3734,-5.2517,-5.3658,-5.4207,-5.4289,-5.5383,-5.6495,-5.7725,-5.8654,-5.9106,-5.9106,-5.8981,-5.8629,-5.8127,-5.7851,-5.7072,-5.5987,-5.5307,-5.4834,-5.4602,-5.5062,-5.5969,-5.7379,-5.8022,-5.8984,-6.0074,-6.0125,-6.0278,-6.0737,-6.0737,-6.0737,-6.0711,-6.0691,-5.9997,-5.885,-5.8296,-5.7411,-5.6057,-5.5626,0.0,0.0,0.0,0.0,0.0,0.0,0.0,0.0,0.0,-5.2023,-5.2646,0.0,-5.4856,0.0,-5.7078,-5.8478,-5.8478,-5.8889,0.0,0.0,-6.0495,-6.1522,-6.2525,-6.3773,-6.4573,-6.4748,-6.5374,-6.5967,-6.6767,-6.7301,-6.808,-6.9236,-6.8258,-6.7668,-6.8277,-6.9257,-6.9922,-7.0486,-7.0766,-7.1225,-7.1837,-7.206,-7.2103,-7.2415,-7.2565,-7.2834,-7.3343,-7.3522,-7.3821,-7.424,-7.3971,-7.3702,-7.3672,-7.3791,-7.3672,-7.2924,-7.3133,-7.3313,-7.2864,-7.273,-7.2595,-6.7279,-6.7017,-6.6516,-6.4609,-6.1814,-6.1396,-6.0956,-6.0775,-6.0015,-5.8917,-5.7193,-5.5998,-5.4975,-5.4176,-5.5736,-5.563,-5.4253,-5.5408,-5.5641,-5.534,-5.6445,-5.7424,-5.8278,-5.9106,-5.9508,-5.9508,-5.9508,-5.9357,-5.9056,-5.883,-5.8252,-5.7349,-5.7072,-5.6793,-5.6624,-5.6116,-5.6302,-5.7318,-5.8528,-5.9516,-6.0406,-6.0814,-6.1146,-6.1521,-6.137,-6.1495,-6.177,-6.152,-6.1091,-6.0605,-6.0181,-5.9287,-5.8184,-5.7806,-5.7363,0.0,0.0,0.0,0.0,0.0,0.0,0.0,0.0,0.0,0.0,0.0,-5.7799,-5.8956,-6.0472,-6.1319,-6.1229,-6.152,-6.2081,-6.2614,-6.3322,-6.4209,-6.5615,-6.6892,-6.7813,-6.808,-6.8832,-6.9496,-6.9883,-7.0241,-7.0688,-7.1727,-7.1165,-7.0634,-7.0694,-7.1182,-7.1672,-7.203,-7.2222,-7.2565,-7.3253,-7.3612,-7.3791,-7.3791,-7.3791,-7.3911,-7.427,-7.433,-7.445,-7.4779,-7.4569,-7.433,-7.433,-7.4599,-7.4779,-7.4869,-7.5288,-7.5467,-7.4929,-7.4642,-7.4545,-6.8602,-6.8133,-6.7556,-6.6976,-6.6253,-6.4781,-6.3568,-6.2587,-6.1681,-6.0632,-5.9288,-5.8101,-5.6969,-5.6208,-5.7229,-5.6778,-5.54,-5.6753,-5.6929,-5.647,-5.7524,-5.8252,-5.873,-5.9257,-5.9508,-5.9508,-5.9508,-5.9508,-5.9483,-5.9031,-5.878,-5.8704,-5.8252,-5.7951,-5.7851,-5.6922,-5.662,-5.7047,-5.9136,-6.0253,-6.066,-6.1479,-6.2166,-6.2475,-6.2273,-6.2396,-6.2964,-6.2338,-6.2046,-6.2259,-6.1729,-6.0935,-5.9749,-6.0104,-5.9773,0.0,-5.9165,0.0,0.0,0.0,0.0,0.0,0.0,0.0,0.0,-5.9784,-6.1357,-6.3545,-6.3939,-6.3939,-6.369,-6.369,-6.4076,-6.5065,-6.5621,-6.6853,-6.8664,-6.9951,-7.0974,-7.1936,-7.2535,-7.2924,-7.2804,-7.2984,-7.3013,-7.3043,-7.3612,-7.3791,-7.3432,-7.3313,-7.3402,-7.3373,-7.3343,-7.3672,-7.4151,-7.4629,-7.5018,-7.5078,-7.5,-7.5,-7.503,-7.503,-7.503,-7.503,-7.506,-7.5168,-7.5138,-7.5617,-7.6006,-7.5976,-7.6365,-7.6684,-7.6265,-7.5946,-7.6105,-6.8956,-6.8828,-6.8365,-6.7569,-6.6451,-6.5786,-6.5441,-6.4939,-6.3559,-6.1945,-6.0141,-6.0379,-6.0272,-6.0191,-6.0708,-6.0446,-5.9341,-5.9127,-5.8437,-5.76,-5.8252,-5.8604,-5.8755,-5.9257,-5.9508,-5.9508,-5.9508,-5.9508,-5.9508,-5.9408,-5.9131,-5.873,-5.8629,-5.8353,-5.7901,0.0,0.0,0.0,-5.8959,-5.9743,-6.0096,-6.0608,-6.1322,-6.2123,-6.2422,0.0,-6.272,-6.3058,-6.3177,-6.2694,-6.2911,0.0,0.0,0.0,0.0,0.0,0.0,0.0,0.0,0.0,0.0,0.0,-6.3093,-6.2622,-6.1853,-6.315,-6.488,-6.6767,-6.7101,-6.7101,-6.697,-6.7232,-6.7597,-6.8342,-6.8781,-6.9634,-7.1273,-7.1823,-7.2165,-7.2684,-7.2834,-7.2924,-7.2984,-7.3373,-7.3702,-7.3821,-7.4749,-7.5437,-7.5347,-7.5288,-7.5497,-7.5946,-7.5527,-7.5347,-7.5497,-7.5617,-7.5717,-7.5914,-7.6093,-7.5892,-7.5549,-7.5549,-7.575,-7.5892,-7.6063,-7.6174,-7.6285,-7.6574,-7.6664,-7.6664,-7.7034,-7.7204,-7.7114,-7.6804,-7.6844,-6.9142,0.0,-6.8514,-6.7902,0.0,-6.6626,-6.6322,-6.5883,-6.4601,-6.3187,-6.1943,-6.1723,-6.1528,-6.1222,-6.1221,-6.0658,-5.9947,-5.9411,-5.8881,-5.8328,-5.8579,-5.873,-5.8755,-5.9533,-5.9759,-5.9508,-5.9784,-5.9759,-5.9483,-5.9232,-5.8981,-5.8704,-5.8453,-5.8303,-5.8303,-5.8706,-5.8857,-5.845,-5.911,-5.9693,-6.0327,-6.1017,-6.1629,-6.2299,0.0,0.0,0.0,0.0,0.0,0.0,0.0,0.0,0.0,0.0,0.0,-6.4138,-6.4348,-6.4728,-6.5307,-6.5497,-6.6021,-6.6787,-6.7392,-6.7075,-6.5491,-6.6954,-6.8218,-6.9176,-6.9292,-6.9292,-6.9292,-6.9428,-6.968,-6.9972,-7.0302,-7.0973,-7.1969,-7.2489,-7.2968,-7.3298,-7.3537,-7.361,-7.361,-7.4039,-7.4288,-7.4347,-7.5149,-7.6063,-7.6472,-7.6434,-7.6514,-7.6784,-7.6604,-7.6365,-7.6365,-7.6365,-7.6455,-7.6502,-7.645,-7.6308,-7.6023,-7.5993,-7.6023,-7.6308,-7.645,-7.6562,-7.6733,-7.7083,-7.7322,-7.7635,-7.8016,-7.8509,-7.8759,-7.8237,-7.7815,-6.8999,-6.882,-6.8496,-6.7942,-6.7309,-6.6988,-6.6564,-6.6036,0.0,0.0,0.0,-6.2596,-6.1893,-6.1441,-6.0864,-6.0362,-5.991,-5.9382,-5.9156,-5.9156,-5.9156,-5.9156,-5.9207,-6.006,-6.0236,-5.9809,-6.0261,-6.0236,-5.9784,-5.9257,-5.9006,-5.8956,-5.8453,-5.8403,-5.9008,-5.9282,-5.9436,-5.9465,-5.944,-5.9769,-6.0583,-6.1453,-6.214,-6.2598,-6.272,-6.3017,-6.3726,-6.4165,-6.46,-6.4889,-6.5577,-6.5808,-6.5447,-6.5836,-6.6053,-6.593,-6.6037,-6.6593,-6.7766,-6.7959,-6.8586,-7.0047,-7.0599,-7.0286,-6.8969,-7.0141,-7.0947,-7.1063,-7.1034,-7.1005,-7.0889,-7.0889,-7.0889,-7.0889,-7.1167,-7.161,-7.2032,-7.2749,-7.3378,-7.3849,-7.4099,-7.4179,-7.4149,-7.4403,-7.4734,-7.4822,-7.5353,-7.6234,-7.7169,-7.7247,-7.7173,-7.7083,-7.7023,-7.6993,-7.6993,-7.6993,-7.7053,-7.7091,-7.6837,-7.6664,-7.6521,-7.6521,-7.6521,-7.6753,-7.6919,-7.7091,-7.7233,-7.7652,-7.8093,-7.8549,-7.9113,-7.9647,-8.0151,-7.9505,-7.8871,-6.8826,-6.797,-6.797,-6.7366,-6.6212,-6.6237,-6.6187,-6.6011,-6.4957,-6.4178,-6.3651,-6.2998,-6.2672,-6.2571,-6.2019,-6.1718,-6.1617,-6.109,-6.0839,0.0,-6.0839,-6.0839,-6.0839,-6.0989,-6.1014,-6.0964,-6.1014,-6.104,-6.0889,-6.0362,-6.0085,-6.0035,-5.9533,-5.9461,-5.9844,-5.9612,-5.9612,-6.0023,-5.9691,-5.9642,-6.0045,-6.0557,-6.1448,-6.2598,-6.2868,-6.3286,-6.3726,-6.4455,-6.4889,-6.4889,-6.5605,-6.6117,-6.6342,-6.704,-6.7764,-6.8608,-6.894,-6.9504,-7.0112,-7.017,-7.0628,-7.1324,-7.1498,-7.144,-7.1295,-7.144,-7.176,-7.2253,-7.2282,-7.2108,-7.1615,-7.1528,-7.1528,-7.1557,-7.1528,-7.2012,-7.2789,-7.3134,-7.3474,-7.3723,-7.3842,-7.393,-7.4019,-7.438,-7.468,-7.494,-7.571,-7.6913,-7.7677,-7.8291,-7.828,-7.7831,-7.7682,-7.7682,-7.7652,-7.7682,-7.7718,-7.7997,-7.7852,-7.7648,-7.7356,-7.7356,-7.7473,-7.7912,-7.7938,-7.8112,-7.8286,-7.8579,-7.8723,-7.9152,-7.9557,-7.99,-8.0492,-8.006,-7.9638,-6.915,-6.8723,-6.8698,-6.8045,-6.699,-6.6388,-6.6112,-6.6036,-6.5258,-6.4957,-6.4906,-6.4103,-6.3877,-6.4078,-6.3299,-6.2923,-6.2873,-6.2019,-6.1617,-6.1617,-6.1316,-6.119,-6.1215,-6.1492,-6.1466,-6.1215,-6.1492,-6.1466,-6.1165,-6.0914,-6.0788,-6.0763,-6.0512,-6.0569,-6.0725,-6.0569,-6.0569,-6.0725,-5.9965,-5.9971,-6.0813,-6.1044,-6.181,-6.302,-6.3761,-6.4236,-6.4505,-6.5537,-6.6457,-6.689,-6.7607,-6.8174,-6.8596,-6.9015,-6.9546,-6.9974,-7.0141,-7.057,-7.1208,-7.1557,-7.1876,-7.2137,-7.2195,-7.2195,-7.2195,-7.2195,-7.2311,-7.2573,-7.2631,-7.2515,-7.2224,-7.2166,-7.2195,-7.2166,-7.2628,-7.3115,-7.3257,-7.3691,-7.4003,-7.3849,-7.3621,-7.3627,-7.398,-7.4424,-7.4692,-7.5188,-7.6242,-7.7181,-7.774,-7.8209,-7.841,-7.84,-7.834,-7.834,-7.834,-7.834,-7.8346,-7.847,-7.8354,-7.8209,-7.7917,-7.7917,-7.8063,-7.8209,-7.8354,-7.8644,-7.8789,-7.8789,-7.9076,-7.9475,-7.9789,-8.0041,-8.0492,-8.0322,-7.9759,-6.93,-6.9074,-6.92,-6.8622,-6.7568,-6.6689,-6.6237,-6.6061,-6.566,-6.571,-6.5936,-6.4957,-6.4705,-6.4982,-6.4228,-6.3877,-6.3726,-6.2847,-6.2395,-6.232,-6.1818,-6.1567,-6.1592,-6.1994,-6.1969,-6.1642,-6.1994,-6.1969,-6.1592,-6.1441,-6.1291,-6.119,-6.119,-6.119,-6.119,-6.1316,-6.1316,-6.114,-6.0437,-6.0679,-6.1736,-6.1917,-6.2686,-6.3627,-6.4505,-6.5136,-6.5597,-6.6597,-6.7752,-6.8478,-6.9166,-6.9734,-7.0185,-7.0436,-7.0773,-7.0918,-7.0947,-7.1208,-7.1847,-7.234,-7.2631,-7.2631,-7.2631,-7.2631,-7.2631,-7.2631,-7.2631,-7.2631,-7.2631,-7.266,-7.2805,-7.2863,-7.2892,-7.3037,-7.376,-7.405,-7.3641,-7.4219,-7.4479,-7.4009,-7.3637,-7.3699,-7.405,-7.4286,-7.4721,-7.5507,-7.6383,-7.7209,-7.7623,-7.7917,-7.8354,-7.8644,-7.8789,-7.8759,-7.8789,-7.8759,-7.8759,-7.8789,-7.8499,-7.8354,-7.8354,-7.8354,-7.8354,-7.8354,-7.8644,-7.8789,-7.8789,-7.8789,-7.9076,-7.9617,-7.99,-8.0041,-8.0492,-8.0322,-7.9475,-6.8874,-6.8095,-6.8547,-6.8045,-6.7116,-6.694,-6.6589,-6.6137,-6.6061,-6.6061,-6.5986,-6.4957,-6.453,-6.453,-6.4454,-6.4404,-6.4354,-6.3802,-6.3525,-6.345,-6.2948,-6.2672,-6.2672,-6.2747,-6.2722,-6.2672,-6.2747,-6.2772,-6.2647,-6.2195,-6.1718,-6.124,-6.119,-6.124,-6.1266,-6.1718,-6.1692,-6.1215,-6.1592,-6.202,-6.2351,-6.313,-6.3901,-6.4665,-6.4896,-6.5474,-6.6493,-6.6964,-6.7752,-6.8478,-6.9223,-6.9763,-7.0214,-7.0465,-7.0976,-7.1528,-7.1586,-7.1847,-7.2456,-7.2573,-7.2631,-7.2631,-7.2631,-7.2631,-7.2631,-7.2631,-7.2631,-7.266,-7.2631,-7.2921,-7.3443,-7.3501,-7.3705,-7.4111,-7.4343,-7.4401,-7.4431,-7.4372,-7.4547,-7.4518,-7.4373,-7.4373,-7.4024,-7.4285,-7.4837,-7.5534,-7.6412,-7.7238,-7.7623,-7.7917,-7.8354,-7.8644,-7.8789,-7.8789,-7.8789,-7.8789,-7.8789,-7.8789,-7.8789,-7.8644,-7.8644,-7.8644,-7.8789,-7.8644,-7.8789,-7.8789,-7.8789,-7.8789,-7.9076,-7.9759,-7.99,-8.0041,-8.0041,-7.99,-7.9475,-6.92,-6.8798,-6.9024,-6.8472,-6.7493,-6.7116,-6.6639,-6.6137,-6.6112,-6.6112,-6.6061,-6.5634,-6.5434,-6.5409,-6.5107,-6.4957,-6.4906,-6.4404,-6.4153,-6.4128,-6.3902,-6.3802,-6.3802,-6.3802,-6.3802,-6.3802,-6.3802,-6.3802,-6.3701,-6.3249,-6.3048,-6.3023,-6.2496,-6.232,-6.2647,-6.2898,-6.3047,-6.2974,-6.3813,-6.4154,-6.4235,-6.3749,-6.4013,-6.5302,-6.5749,-6.6514,-6.7475,-6.8318,-6.9252,-7.0157,-7.0851,-7.128,-7.1564,-7.1706,-7.1934,-7.2195,-7.2224,-7.234,-7.2602,-7.2631,-7.2631,-7.2631,-7.2631,-7.2631,-7.2631,-7.2631,-7.2776,-7.3124,-7.3211,-7.3327,-7.3618,-7.3937,-7.4402,-7.481,-7.4984,-7.51,-7.4839,-7.5013,-7.4982,-7.4605,-7.4547,-7.4663,-7.4808,-7.5272,-7.5737,-7.6056,-7.6646,-7.7209,-7.7623,-7.7917,-7.8354,-7.8644,-7.8789,-7.8789,-7.8789,-7.8789,-7.8789,-7.8789,-7.8789,-7.8789,-7.8789,-7.8789,-7.8789,-7.8789,-7.8789,-7.8789,-7.8789,-7.8789,-7.9076,-7.9617,-8.0322,-8.0492,-8.0041,-7.99,-7.9475,-6.9451,-6.9451,-6.9451,-6.8823,-6.7794,-6.7367,-6.6789,-6.6162,-6.6112,-6.6112,-6.6112,-6.6112,-6.6112,-6.6061,-6.5685,-6.5509,-6.5434,-6.4931,-6.468,-6.468,-6.453,-6.4454,-6.4479,-6.4479,-6.4479,-6.4479,-6.4454,-6.4454,-6.4429,-6.4103,-6.4103,-6.4279,-6.3651,-6.35,-6.3852,-6.3902,-6.4032,-6.4332,-6.5211,-6.5745,-6.5608,-6.5045,-6.5004,-6.5971,-6.6521,-6.7449,-6.8844,-6.942,-7.0388,-7.1735,-7.2028,-7.2345,-7.2773,-7.2773,-7.2773,-7.2773,-7.2773,-7.2773,-7.2631,-7.2631,-7.2631,-7.2631,-7.2631,-7.2689,-7.2834,-7.2892,-7.3182,-7.3907,-7.414,-7.4315,-7.4315,-7.4664,-7.5101,-7.5743,-7.5948,-7.5977,-7.5773,-7.583,-7.574,-7.5127,-7.5156,-7.5127,-7.5475,-7.5824,-7.6085,-7.6263,-7.6765,-7.7209,-7.7623,-7.8063,-7.8354,-7.8789,-7.8789,-7.8789,-7.8789,-7.8789,-7.8789,-7.8789,-7.8789,-7.8789,-7.8789,-7.8789,-7.8789,-7.8789,-7.8789,-7.8789,-7.8789,-7.8789,-7.9076,-7.9759,-8.0462,-8.0771,-8.0182,-8.0041,-7.9617,-6.9451,-6.9426,-6.9451,-6.8798,-6.7794,-6.7744,-6.7116,-6.6112,-6.6112,-6.6112,-6.6112,-6.6112,-6.6112,-6.6112,-6.6036,-6.6061,-6.5986,-6.5484,-6.5258,-6.5208,-6.4756,-6.4505,-6.4479,-6.4479,-6.4505,-6.4605,-6.463,-6.458,-6.453,-6.4454,-6.4429,-6.4479,-6.4379,-6.4379,-6.4429,-6.4597,-6.4571,-6.4804,-6.5454,-6.6115,-6.6581,-6.7153,-6.7295,-6.6952,-6.7104,-6.8344,-7.0171,-6.996,-7.0705,-7.2804,-7.2403,-7.2517,-7.3086,-7.3228,-7.3199,-7.3228,-7.3228,-7.2915,-7.2631,-7.2631,-7.2631,-7.266,-7.2718,-7.2921,-7.3501,-7.356,-7.3966,-7.4838,-7.5393,-7.5861,-7.5919,-7.5978,-7.6388,-7.7181,-7.7358,-7.721,-7.6943,-7.6856,-7.6853,-7.6438,-7.6201,-7.5998,-7.5621,-7.5534,-7.5827,-7.624,-7.6739,-7.7386,-7.7917,-7.8209,-7.8354,-7.8644,-7.8789,-7.8789,-7.8789,-7.8789,-7.8789,-7.8789,-7.8789,-7.8789,-7.8789,-7.8789,-7.8789,-7.8789,-7.8789,-7.8789,-7.8789,-7.8933,-7.9332,-7.99,-8.0632,-8.0771,-8.0322,-8.0041,-7.9759,-6.9225,-6.8949,-6.93,-6.8622,-6.7367,-6.7643,-6.7166,-6.6137,-6.6112,-6.6112,-6.6112,-6.6112,-6.6112,-6.6112,-6.6112,-6.6112,-6.6086,-6.5886,-6.581,-6.5785,-6.5609,-6.5509,-6.5534,-6.5509,-6.5509,-6.5509,-6.5509,-6.5509,-6.5459,-6.5183,-6.5183,-6.5333,-6.4806,-6.463,-6.51,-6.5655,-6.5978,-6.6218,-6.6618,-6.7349,-6.8161,-6.8596,-6.8786,-6.9212,-6.9146,-6.9697,-7.0573,-7.1494,-7.2325,-7.3008,-7.3067,-7.3066,-7.3257,-7.351,-7.351,-7.3228,-7.3228,-7.3057,-7.2631,-7.2631,-7.2805,-7.3211,-7.3269,-7.3531,-7.4053,-7.4344,-7.4751,-7.5334,-7.5743,-7.6359,-7.6917,-7.7122,-7.724,-7.7564,-7.7623,-7.7623,-7.7357,-7.7209,-7.6941,-7.6612,-7.6462,-7.6346,-7.6322,-7.6412,-7.659,-7.6739,-7.7358,-7.7917,-7.8209,-7.8354,-7.8644,-7.8789,-7.8789,-7.8789,-7.8789,-7.8789,-7.8789,-7.8789,-7.8789,-7.8789,-7.8789,-7.8789,-7.8789,-7.8789,-7.8789,-7.8789,-7.8933,-7.9332,-7.9617,-8.0072,-8.0771,-8.091,-8.0632,-8.0352,-7.993,-6.9225,-6.8974,-6.93,-6.8597,-6.7367,-6.7643,-6.7141,-6.6187,-6.6312,-6.6287,-6.6162,-6.6312,-6.6287,-6.6137,-6.6112,-6.6112,-6.6112,-6.6112,-6.6112,-6.6112,-6.6112,-6.6112,-6.6112,-6.6112,-6.6112,-6.6112,-6.6112,-6.6112,-6.6086,-6.5735,-6.576,-6.6011,-6.5333,-6.5183,-6.5679,-6.6213,-6.6489,-6.6862,-6.7737,-6.8726,-6.9532,-7.0287,-7.0978,-7.1446,-7.1878,-7.1952,-7.1793,-7.2772,-7.3489,-7.35,-7.3705,-7.3729,-7.3598,-7.3901,-7.3901,-7.365,-7.3715,-7.352,-7.3265,-7.3095,-7.3414,-7.385,-7.3908,-7.4169,-7.4867,-7.513,-7.5451,-7.6065,-7.6387,-7.6917,-7.7475,-7.777,-7.7917,-7.8063,-7.7917,-7.7917,-7.7623,-7.7357,-7.706,-7.6612,-7.6612,-7.6612,-7.6762,-7.706,-7.7209,-7.7386,-7.7917,-7.8209,-7.8354,-7.8644,-7.8789,-7.8789,-7.8789,-7.8789,-7.8789,-7.8789,-7.8789,-7.8789,-7.8789,-7.8789,-7.8789,-7.8789,-7.8789,-7.8789,-7.8789,-7.8933,-7.9076,-7.9617,-8.0041,-8.0492,-8.0771,-8.094,-8.0632,-8.0352,-8.0102,-6.9426,-6.9351,-6.9451,-6.8748,-6.7744,-6.7819,-6.7191,-6.6363,-6.6764,-6.6714,-6.6438,-6.6739,-6.6714,-6.6287,-6.6312,-6.6212,-6.6187,-6.6212,-6.6162,-6.6112,-6.6112,-6.6112,-6.6112,-6.6112,-6.6112,-6.6112,-6.6137,-6.6137,-6.6112,-6.6061,-6.6061,-6.6112,-6.6208,-6.6278,-6.6258,-6.6525,-6.655,-6.7154,-6.9049,-7.0038,-7.0392,-7.243,-7.362,-7.3812,-7.4792,-7.5096,-7.4372,-7.3885,-7.4073,-7.4488,-7.4459,-7.4356,-7.4387,-7.4683,-7.4791,-7.4357,-7.455,-7.4562,-7.4223,-7.4227,-7.4314,-7.4518,-7.4518,-7.4955,-7.5655,-7.58,-7.6181,-7.7093,-7.7387,-7.7593,-7.774,-7.8209,-7.8644,-7.8789,-7.8644,-7.8354,-7.777,-7.7623,-7.7328,-7.6762,-7.6911,-7.709,-7.7238,-7.7357,-7.777,-7.8063,-7.8209,-7.8354,-7.8644,-7.8789,-7.8789,-7.8789,-7.8789,-7.8789,-7.8789,-7.8789,-7.8789,-7.8789,-7.8789,-7.8789,-7.8789,-7.8789,-7.8789,-7.8789,-7.8933,-7.9076,-7.9363,-7.9759,-8.0182,-8.0632,-8.091,-8.1079,-8.094,-8.0662,-8.0444,-6.9225,-6.8949,-6.93,-6.8597,-6.7417,-6.802,-6.7744,-6.6815,-6.7317,-6.7442,-6.7317,-6.7467,-6.7417,-6.7292,-6.7267,-6.7041,-6.6739,-6.6689,-6.6488,-6.6187,-6.6137,-6.6137,-6.6137,-6.6137,-6.6112,-6.6187,-6.6538,-6.6488,-6.6162,-6.6137,-6.6429,-6.7281,-6.7451,-6.7931,-6.8576,-6.9406,-6.99,-7.0202,-7.088,-7.1847,-7.2644,-7.3589,-7.4281,-7.5116,-7.6196,-7.6646,-7.6561,-7.6386,-7.6212,-7.6065,-7.6034,-7.5732,-7.5238,-7.5448,-7.5418,-7.506,-7.5171,-7.5239,-7.4808,-7.4693,-7.475,-7.5069,-7.548,-7.58,-7.6354,-7.7005,-7.724,-7.7505,-7.7623,-7.8063,-7.8063,-7.8209,-7.8354,-7.8354,-7.8644,-7.8644,-7.8063,-7.777,-7.7328,-7.706,-7.7209,-7.7357,-7.7505,-7.777,-7.8063,-7.8209,-7.8499,-7.8644,-7.8789,-7.8789,-7.8789,-7.8789,-7.8789,-7.8789,-7.8789,-7.8789,-7.8789,-7.8789,-7.8789,-7.8789,-7.8789,-7.8789,-7.8789,-7.8933,-7.9076,-7.922,-7.9647,-8.0072,-8.0352,-8.0632,-8.091,-8.1079,-8.1079,-8.0971,-8.0754,-6.925,-6.8974,-6.93,-6.8748,-6.7693,-6.8371,-6.812,-6.7442,-6.7869,-6.7869,-6.7593,-6.7719,-6.7568,-6.7292,-6.7392,-6.7166,-6.6739,-6.7066,-6.699,-6.6513,-6.6438,-6.6438,-6.6463,-6.6664,-6.6614,-6.6564,-6.7015,-6.6865,-6.6162,-6.6513,-6.7056,-6.7358,-6.7995,-6.8307,-6.8769,-6.9571,-7.0392,-7.0555,-7.1338,-7.2326,-7.3617,-7.4549,-7.5316,-7.6283,-7.6911,-7.7505,-7.777,-7.7917,-7.7621,-7.6884,-7.6588,-7.6314,-7.5884,-7.6105,-7.6105,-7.5914,-7.5934,-7.5916,-7.5626,-7.5597,-7.5684,-7.6092,-7.6446,-7.674,-7.7121,-7.777,-7.777,-7.7652,-7.7917,-7.8209,-7.8209,-7.8354,-7.8354,-7.8499,-7.8644,-7.8644,-7.8209,-7.777,-7.7475,-7.7357,-7.7623,-7.777,-7.7917,-7.8209,-7.8354,-7.8499,-7.8644,-7.8789,-7.8789,-7.8789,-7.8789,-7.8789,-7.8789,-7.8789,-7.8789,-7.8789,-7.8789,-7.8789,-7.8789,-7.8789,-7.8789,-7.8789,-7.8789,-7.8933,-7.9076,-7.9363,-7.9789,-8.0212,-8.0492,-8.0771,-8.1048,-8.1048,-8.1079,-8.094,-8.0832,-6.9476,-6.9476,-6.9451,-6.91,-6.8572,-6.8673,-6.8396,-6.797,-6.8422,-6.817,-6.7518,-6.7869,-6.7442,-6.6664,-6.7241,-6.7116,-6.6513,-6.7367,-6.7543,-6.7166,-6.7091,-6.7116,-6.7066,-6.7493,-6.7467,-6.7166,-6.7743,-6.7441,-6.6833,-6.7689,-6.7616,-6.7639,-6.8942,-6.8603,-6.8436,-6.8229,-6.9372,-7.0033,-7.1042,-7.2458,-7.3745,-7.5345,-7.6612,-7.709,-7.7357,-7.777,-7.8063,-7.847,-7.8086,-7.7029,-7.6669,-7.6599,-7.6733,-7.6874,-7.6874,-7.6763,-7.6818,-7.6679,-7.674,-7.674,-7.6765,-7.6973,-7.724,-7.777,-7.7917,-7.7917,-7.7917,-7.8063,-7.8209,-7.8209,-7.8209,-7.8354,-7.8644,-7.8789,-7.8789,-7.8644,-7.8209,-7.7917,-7.777,-7.777,-7.7917,-7.8209,-7.8209,-7.8499,-7.8644,-7.8789,-7.8789,-7.8789,-7.8789,-7.8789,-7.8789,-7.8789,-7.8789,-7.8789,-7.8789,-7.8789,-7.8789,-7.8789,-7.8789,-7.8789,-7.8789,-7.8789,-7.8933,-7.9076,-7.922,-7.9505,-7.993,-8.0352,-8.0632,-8.094,-8.1079,-8.1048,-8.1048,-8.1079,-8.1063,-6.9677,-6.9978,-6.9602,-6.9125,-6.8723,-6.9024,-6.8899,-6.8497,-6.8974,-6.8999,-6.8798,-6.8949,-6.8522,-6.8045,-6.8447,-6.8271,-6.7668,-6.807,-6.812,-6.7719,-6.8045,-6.7919,-6.7769,-6.812,-6.812,-6.7894,-6.9126,-6.9547,-6.9102,-7.0047,-7.099,-7.1896,-7.1977,-7.2693,-7.3186,-7.2911,-7.355,-7.3916,-7.3997,-7.4606,-7.5555,-7.637,-7.6941,-7.709,-7.7652,-7.8063,-7.8209,-7.8644,-7.8759,-7.8231,-7.7748,-7.742,-7.7562,-7.7532,-7.7532,-7.7509,-7.7411,-7.7387,-7.724,-7.6943,-7.6762,-7.709,-7.7505,-7.7623,-7.777,-7.8209,-7.8354,-7.8354,-7.8209,-7.8209,-7.8209,-7.8063,-7.8063,-7.8354,-7.8499,-7.8644,-7.8354,-7.8354,-7.8354,-7.8209,-7.8354,-7.8499,-7.8644,-7.8644,-7.8789,-7.8789,-7.8789,-7.8789,-7.8789,-7.8789,-7.8789,-7.8789,-7.8789,-7.8789,-7.8789,-7.8789,-7.8789,-7.8789,-7.8789,-7.8789,-7.8789,-7.8789,-7.8933,-7.922,-7.9475,-7.9759,-8.0212,-8.0632,-8.091,-8.1079,-8.1079,-8.1048,-8.1048,-8.1079,-8.1356,-6.9978,-7.0204,-6.9677,-6.925,-6.9024,-6.9325,-6.9275,-6.9074,-6.93,-6.93,-6.915,-6.91,-6.8798,-6.8371,-6.8823,-6.8622,-6.797,-6.8622,-6.8648,-6.8321,-6.8698,-6.9105,-6.9308,-6.9714,-6.9863,-6.9952,-7.0565,-7.0854,-7.0874,-7.1426,-7.2276,-7.2933,-7.4088,-7.4608,-7.4086,-7.5024,-7.5278,-7.5538,-7.5541,-7.5992,-7.6942,-7.7578,-7.7704,-7.7707,-7.8183,-7.8535,-7.8559,-7.8644,-7.8789,-7.8699,-7.843,-7.822,-7.822,-7.822,-7.822,-7.825,-7.7855,-7.7623,-7.7475,-7.706,-7.6941,-7.7209,-7.7623,-7.7917,-7.8063,-7.8499,-7.8354,-7.8209,-7.8063,-7.7917,-7.7917,-7.777,-7.777,-7.7917,-7.8209,-7.8354,-7.8354,-7.8644,-7.8644,-7.8644,-7.8644,-7.8789,-7.8789,-7.8789,-7.8789,-7.8789,-7.8789,-7.8789,-7.8789,-7.8789,-7.8789,-7.8789,-7.8789,-7.8789,-7.8789,-7.8789,-7.8789,-7.8789,-7.8938,-7.8908,-7.8789,-7.8789,-7.9076,-7.9363,-7.9617,-8.0041,-8.0492,-8.0771,-8.091,-8.1079,-8.1048,-8.1048,-8.1048,-8.1079,-8.1356,-7.0305,-7.0305,-6.9702,-6.9451,-6.9426,-6.9451,-6.9426,-6.9426,-6.9426,-6.92,-6.8899,-6.8748,-6.8547,-6.7919,-6.8648,-6.8447,-6.797,-6.8924,-6.9024,-6.8949,-6.9483,-7.0502,-7.1485,-7.0831,-7.1004,-7.1539,-7.1634,-7.2017,-7.2532,-7.2547,-7.2706,-7.3997,-7.5461,-7.4911,-7.4773,-7.5147,-7.5519,-7.5999,-7.6148,-7.6849,-7.7809,-7.8576,-7.8616,-7.8238,-7.842,-7.8801,-7.8764,-7.8789,-7.8789,-7.8789,-7.8789,-7.8729,-7.8729,-7.8759,-7.8759,-7.8585,-7.8149,-7.777,-7.7623,-7.7357,-7.7357,-7.7623,-7.8063,-7.8354,-7.8499,-7.8499,-7.8209,-7.8209,-7.777,-7.7623,-7.7475,-7.7475,-7.7475,-7.7475,-7.7623,-7.7917,-7.8499,-7.8644,-7.8789,-7.8789,-7.8789,-7.8789,-7.8789,-7.8789,-7.8789,-7.8789,-7.8789,-7.8789,-7.8789,-7.8789,-7.8789,-7.8789,-7.8789,-7.8789,-7.8789,-7.8789,-7.8789,-7.8819,-7.9058,-7.9088,-7.8849,-7.8933,-7.9076,-7.9363,-7.9759,-8.0182,-8.0632,-8.091,-8.1048,-8.1048,-8.1048,-8.1048,-8.1048,-8.1048,-8.1233,-7.0506,-7.0832,-6.9853,-6.9451,-6.9451,-6.9451,-6.9451,-6.9451,-6.9451,-6.9351,-6.9275,-6.925,-6.8924,-6.8472,-6.8949,-6.8974,-6.8547,-6.9125,-6.9351,-6.9506,-7.0909,-7.2368,-7.2863,-7.134,-7.0248,-7.1008,-7.2463,-7.3634,-7.4509,-7.6118,-7.7732,-7.8003,-7.7998,-7.8544,-7.7759,-7.7222,-7.769,-7.7763,-7.7549,-7.7846,-7.8648,-7.9261,-7.927,-7.8743,-7.8479,-7.8563,-7.8704,-7.8789,-7.8789,-7.8789,-7.8789,-7.8789,-7.8789,-7.8789,-7.8789,-7.8644,-7.8354,-7.8063,-7.8063,-7.777,-7.7623,-7.8063,-7.8209,-7.8354,-7.8789,-7.8499,-7.8209,-7.8063,-7.7652,-7.7209,-7.6911,-7.6762,-7.6911,-7.7209,-7.7209,-7.7357,-7.777,-7.8209,-7.8499,-7.8644,-7.8789,-7.8789,-7.8789,-7.8789,-7.8789,-7.8789,-7.8789,-7.8789,-7.8789,-7.8789,-7.8789,-7.8789,-7.8789,-7.8789,-7.8849,-7.8908,-7.9058,-7.9178,-7.9387,-7.9537,-7.9297,-7.9053,-7.9257,-7.9453,-7.9759,-8.0212,-8.0771,-8.091,-8.1048,-8.1048,-8.1048,-8.1048,-8.1048,-8.1048,-8.111,-7.1209,-7.1334,-7.028,-6.9828,-6.9803,-6.9551,-6.9451,-6.9451,-6.9451,-6.9451,-6.9451,-6.9451,-6.9275,-6.9024,-6.93,-6.925,-6.9304,-6.9968,-7.0477,-7.0885,-7.2252,-7.3501,-7.3661,-7.3101,-7.248,-7.378,-7.4581,-7.5813,-7.7094,-7.8121,-7.8867,-7.9963,-8.0288,-7.9897,-7.9743,-7.9328,-7.92,-7.9271,-7.9168,-7.9278,-7.9898,-8.0359,-8.0491,-7.9871,-7.9248,-7.883,-7.9297,-7.8938,-7.8819,-7.8789,-7.8789,-7.8789,-7.8789,-7.8789,-7.8789,-7.8789,-7.8499,-7.8209,-7.8063,-7.7917,-7.777,-7.8209,-7.8209,-7.8499,-7.8644,-7.8499,-7.8209,-7.8063,-7.7652,-7.6941,-7.6762,-7.6612,-7.6762,-7.6941,-7.6941,-7.6911,-7.7357,-7.7917,-7.8209,-7.8499,-7.8644,-7.8789,-7.8789,-7.8789,-7.8789,-7.8789,-7.8789,-7.8789,-7.8789,-7.8789,-7.8789,-7.8789,-7.8789,-7.8819,-7.8878,-7.9058,-7.9387,-7.9627,-7.9956,-8.0105,-8.0105,-7.9772,-7.9497,-7.9747,-8.0022,-8.0352,-8.0771,-8.091,-8.1079,-8.1079,-8.1079,-8.1079,-8.111,-8.1202,-8.1202,-7.1912,-7.1811,-7.0807,-7.038,-7.0305,-6.9828,-6.9602,-6.9577,-6.9476,-6.9451,-6.9451,-6.9451,-6.9426,-6.9426,-6.9426,-6.9451,-7.0247,-7.114,-7.1952,-7.2513,-7.4259,-7.4939,-7.4896,-7.5598,-7.6671,-7.9002,-7.731,-7.7586,-7.8477,-7.8811,-7.9786,-8.0412,-8.0928,-8.0974,-8.0685,-8.06,-8.0194,-8.0207,-8.012,-8.0248,-8.0747,-8.1212,-8.1349,-8.1213,-8.014,-7.9545,-7.972,-7.9537,-7.9148,-7.8968,-7.8938,-7.8878,-7.8789,-7.8789,-7.8789,-7.8789,-7.8499,-7.8354,-7.8354,-7.8063,-7.8063,-7.8209,-7.8354,-7.8499,-7.8644,-7.8354,-7.8209,-7.7917,-7.7652,-7.7238,-7.709,-7.6941,-7.6791,-7.6941,-7.6762,-7.6612,-7.706,-7.7652,-7.8063,-7.8354,-7.8644,-7.8789,-7.8789,-7.8789,-7.8789,-7.8789,-7.8789,-7.8789,-7.8789,-7.8819,-7.8819,-7.8789,-7.8789,-7.9088,-7.9208,-7.9656,-7.9926,-8.0165,-8.0524,-8.0674,-8.0794,-8.0848,-8.0483,-8.0071,-8.0254,-8.0615,-8.0832,-8.1048,-8.1079,-8.111,-8.1325,-8.151,-8.151,-8.1387,-8.154,-7.1912,-7.1861,-7.1209,-7.0932,-7.0857,-7.0355,-7.0104,-7.0029,-6.9652,-6.9451,-6.9451,-6.9451,-6.9451,-6.9451,-6.9451,-7.0374,-7.1678,-7.2996,-7.3936,-7.4753,-7.6439,-7.7249,-7.7314,-7.829,-7.9786,-7.9868,-7.8686,-7.8397,-7.9961,-8.077,-8.1263,-8.2378,-8.2599,-8.2164,-8.1382,-8.1078,-8.0846,-8.0614,-8.0527,-8.0655,-8.1127,-8.1292,-8.1616,-8.1751,-8.0616,-8.0259,-8.0466,-8.0494,-8.0225,-7.9716,-7.9656,-7.9357,-7.9058,-7.8908,-7.8849,-7.8789,-7.8644,-7.8644,-7.8644,-7.8644,-7.8644,-7.8644,-7.8644,-7.8644,-7.8644,-7.8209,-7.8063,-7.8063,-7.777,-7.7475,-7.7505,-7.7209,-7.709,-7.709,-7.6762,-7.6612,-7.6762,-7.7328,-7.7917,-7.8063,-7.8499,-7.8789,-7.8789,-7.8789,-7.8789,-7.8789,-7.8789,-7.8789,-7.8789,-7.8849,-7.8908,-7.8849,-7.8789,-7.9208,-7.9567,-8.0195,-8.0644,-8.0794,-8.1063,-8.1242,-8.1511,-8.1749,-8.1709,-8.1153,-8.071,-8.0688,-8.0877,-8.1263,-8.1479,-8.1817,-8.1971,-8.2095,-8.2156,-8.2218,-8.2649,-7.2339,-7.2263,-7.1736,-7.151,-7.141,-7.0907,-7.0506,-7.0255,-6.9978,-6.9702,-6.9501,-6.9451,-6.9451,-6.9606,-7.0299,-7.165,-7.3304,-7.4808,-7.5688,-7.662,-7.8259,-7.9211,-7.9315,-8.0741,-8.1206,-8.1158,-8.0297,-8.0114,-8.1356,-8.2051,-8.2715,-8.3052,-8.3197,-8.282,-8.2297,-8.1891,-8.1572,-8.1281,-8.1252,-8.1412,-8.1829,-8.1909,-8.1816,-8.1684,-8.109,-8.0734,-8.1093,-8.0913,-8.0674,-8.0375,-8.0345,-8.0135,-7.9836,-7.9477,-7.9178,-7.8908,-7.8819,-7.8789,-7.8789,-7.8789,-7.8789,-7.8789,-7.8789,-7.8789,-7.8789,-7.8499,-7.8209,-7.8063,-7.8063,-7.7917,-7.7917,-7.7357,-7.7238,-7.7209,-7.6911,-7.6612,-7.6612,-7.718,-7.7623,-7.8063,-7.8499,-7.8789,-7.8789,-7.8789,-7.8789,-7.8789,-7.8789,-7.8819,-7.8849,-7.9028,-7.9178,-7.9417,-7.9477,-7.9896,-8.0315,-8.0853,-8.1302,-8.1452,-8.1631,-8.1781,-8.1991,-8.2349,-8.2404,-8.2092,-8.1714,-8.1562,-8.1845,-8.231,-8.2433,-8.2495,-8.2618,-8.2741,-8.2926,-8.3172,-8.351,-7.2565,-7.2539,-7.2213,-7.2012,-7.1811,-7.1309,-7.0832,-7.0455,-7.0154,-6.9978,-6.9777,-6.9577,-6.9757,-7.045,-7.1779,-7.34,-7.5129,-7.662,-7.7612,-7.8567,-8.0276,-8.0963,-8.1312,-8.1907,-8.2667,-8.2471,-8.2425,-8.2662,-8.2454,-8.2744,-8.3197,-8.3593,-8.3564,-8.3255,-8.3186,-8.2721,-8.2575,-8.221,-8.2342,-8.2503,-8.2677,-8.2368,-8.2125,-8.2338,-8.1379,-8.1176,-8.1931,-8.1631,-8.1242,-8.1093,-8.1003,-8.0913,-8.0734,-8.0285,-7.9776,-7.9267,-7.8968,-7.8878,-7.8968,-7.8819,-7.8789,-7.8789,-7.8789,-7.8789,-7.8789,-7.8644,-7.8644,-7.8354,-7.8354,-7.8354,-7.8209,-7.7652,-7.7357,-7.7357,-7.706,-7.6612,-7.6911,-7.718,-7.777,-7.8063,-7.8499,-7.8644,-7.8789,-7.8789,-7.8789,-7.8789,-7.8789,-7.9088,-7.9148,-7.9447,-7.9716,-8.0105,-8.0405,-8.0764,-8.1153,-8.1542,-8.1871,-8.202,-8.22,-8.253,-8.265,-8.2919,-8.2914,-8.3082,-8.3221,-8.3194,-8.3276,-8.3172,-8.308,-8.3049,-8.3203,-8.3449,-8.3788,-8.388,-8.4065,-7.2012,-7.2037,-7.2439,-7.2364,-7.1861,-7.1334,-7.1058,-7.0857,-7.0054,-7.0104,-7.0606,-7.011,-7.0858,-7.2629,-7.4111,-7.5771,-7.7319,-7.8466,-7.98,-8.1179,-8.2439,-8.3063,-8.3319,-8.4094,-8.3949,-8.3731,-8.3978,-8.3844,-8.3331,-8.3139,-8.368,-8.4328,-8.4194,-8.3884,-8.3773,-8.3627,-8.3057,-8.2488,-8.2591,-8.2912,-8.3172,-8.2485,-8.2605,-8.2872,-8.255,-8.2163,-8.2619,-8.238,-8.214,-8.1721,-8.1661,-8.1392,-8.0913,-8.0764,-8.0674,-8.0255,-7.9656,-7.9058,-7.9447,-7.9118,-7.8789,-7.8789,-7.8789,-7.8789,-7.8789,-7.8789,-7.8644,-7.8209,-7.8499,-7.8644,-7.8499,-7.8063,-7.7623,-7.7475,-7.7357,-7.706,-7.706,-7.7475,-7.7917,-7.8209,-7.8499,-7.8644,-7.8789,-7.8789,-7.8789,-7.8789,-7.8878,-7.9178,-7.9567,-7.9926,-8.0464,-8.0943,-8.1212,-8.1572,-8.1721,-8.214,-8.229,-8.2469,-8.277,-8.292,-8.3101,-8.331,-8.3786,-8.4014,-8.4215,-8.4198,-8.388,-8.3603,-8.3541,-8.3695,-8.3911,-8.4342,-8.4803,-8.4803,-8.4588,-7.1334,-7.1937,-7.2163,-7.2138,-7.1887,-7.1636,-7.1359,-7.1083,-7.0932,-7.0732,-7.0739,-7.1036,-7.2289,-7.4366,-7.5343,-7.6846,-7.9067,-8.0223,-8.1347,-8.2663,-8.3739,-8.4082,-8.4127,-8.4537,-8.4566,-8.4303,-8.4153,-8.3797,-8.3622,-8.3902,-8.4416,-8.4696,-8.462,-8.4503,-8.4287,-8.4345,-8.3873,-8.3535,-8.3448,-8.3773,-8.3951,-8.3482,-8.3243,-8.38,-8.3021,-8.3061,-8.3065,-8.2888,-8.2679,-8.235,-8.235,-8.223,-8.1871,-8.1631,-8.1482,-8.1811,-8.0674,-7.9986,-7.9746,-7.9178,-7.8908,-7.8789,-7.8789,-7.8789,-7.8789,-7.8789,-7.8789,-7.8644,-7.8644,-7.8789,-7.8789,-7.8209,-7.8063,-7.777,-7.7652,-7.7505,-7.7505,-7.777,-7.8209,-7.8354,-7.8529,-7.8704,-7.8878,-7.8938,-7.8968,-7.8998,-7.9208,-7.9597,-8.0105,-8.0644,-8.1242,-8.1931,-8.214,-8.232,-8.235,-8.2529,-8.2529,-8.28,-8.2951,-8.3221,-8.3521,-8.3789,-8.4203,-8.4497,-8.4636,-8.4443,-8.4188,-8.4218,-8.4311,-8.4495,-8.468,-8.4865,-8.505,-8.505,-8.4896,-7.0757,-7.1485,-7.1636,-7.1636,-7.151,-7.1636,-7.1359,-7.0958,-7.1419,-7.1243,-7.1338,-7.2372,-7.4179,-7.5517,-7.6104,-7.7909,-8.0666,-8.123,-8.2512,-8.3611,-8.4347,-8.4728,-8.4875,-8.5038,-8.4846,-8.4185,-8.4357,-8.4164,-8.424,-8.4462,-8.4889,-8.4947,-8.4784,-8.4918,-8.4918,-8.4889,-8.4667,-8.4602,-8.464,-8.4806,-8.5065,-8.4478,-8.4315,-8.4357,-8.3919,-8.3598,-8.3513,-8.3337,-8.3038,-8.2709,-8.2709,-8.2619,-8.2529,-8.226,-8.22,-8.229,-8.1482,-8.0823,-8.0315,-7.9716,-7.9088,-7.8849,-7.8789,-7.8789,-7.8789,-7.8789,-7.8789,-7.8789,-7.8789,-7.8789,-7.8644,-7.8354,-7.8209,-7.8063,-7.7917,-7.777,-7.777,-7.8209,-7.8354,-7.8499,-7.8704,-7.8883,-7.9058,-7.9088,-7.9148,-7.9178,-7.9507,-8.0016,-8.0644,-8.1332,-8.1811,-8.2439,-8.2499,-8.2619,-8.2649,-8.2709,-8.2739,-8.292,-8.3221,-8.3521,-8.3671,-8.3938,-8.435,-8.4643,-8.4935,-8.4812,-8.4619,-8.4865,-8.508,-8.4957,-8.4896,-8.4988,-8.508,-8.5111,-8.54,-7.0305,-7.0405,-7.0907,-7.0857,-7.0455,-7.0932,-7.0832,-7.0405,-7.0978,-7.1439,-7.1931,-7.3761,-7.4901,-7.6005,-7.7161,-7.8675,-8.0589,-8.1734,-8.3236,-8.4729,-8.5771,-8.5872,-8.5771,-8.564,-8.5538,-8.5126,-8.4755,-8.4696,-8.5022,-8.4977,-8.5332,-8.5406,-8.5316,-8.5169,-8.5199,-8.5375,-8.5534,-8.5554,-8.56,-8.5876,-8.5962,-8.5701,-8.5374,-8.5327,-8.4983,-8.4384,-8.3816,-8.3636,-8.3367,-8.2918,-8.2798,-8.2769,-8.2709,-8.2619,-8.2649,-8.2529,-8.217,-8.1601,-8.1153,-8.0345,-7.9507,-7.9028,-7.8789,-7.8789,-7.8644,-7.8789,-7.8789,-7.8819,-7.8908,-7.8849,-7.8674,-7.8499,-7.8503,-7.8354,-7.8209,-7.8209,-7.8209,-7.8499,-7.8644,-7.8789,-7.8878,-7.9058,-7.9477,-7.9597,-7.9716,-7.9806,-8.0315,-8.0823,-8.1422,-8.202,-8.232,-8.2679,-8.2679,-8.2739,-8.2739,-8.2769,-8.2769,-8.292,-8.3221,-8.3491,-8.3789,-8.4203,-8.4643,-8.4789,-8.508,-8.508,-8.5111,-8.5111,-8.5111,-8.5111,-8.5111,-8.5111,-8.5256,-8.5545,-8.5688,-6.9752,-6.9777,-7.0003,-7.0154,-7.028,-7.048,-7.0455,-7.033,-7.0789,-7.1545,-7.2142,-7.2878,-7.3993,-7.5373,-7.6974,-7.8905,-8.0969,-8.2609,-8.4244,-8.5331,-8.6211,-8.624,-8.592,-8.5597,-8.511,-8.4918,-8.462,-8.4854,-8.5475,-8.5446,-8.5991,-8.605,-8.6038,-8.5727,-8.5727,-8.572,-8.6247,-8.6598,-8.6576,-8.6539,-8.6803,-8.6646,-8.6318,-8.6299,-8.5671,-8.5252,-8.4863,-8.4115,-8.3696,-8.3337,-8.3038,-8.2888,-8.2828,-8.2828,-8.2798,-8.2769,-8.2439,-8.22,-8.1751,-8.0943,-7.9988,-7.9155,-7.8913,-7.8704,-7.8649,-7.8674,-7.8789,-7.8908,-7.9208,-7.9327,-7.8878,-7.9003,-7.9212,-7.8823,-7.8559,-7.8619,-7.8794,-7.8998,-7.8819,-7.8849,-7.8938,-7.9058,-7.9627,-8.0165,-8.0315,-8.0494,-8.1063,-8.1601,-8.211,-8.2469,-8.2649,-8.2769,-8.2769,-8.2769,-8.2769,-8.2769,-8.2769,-8.3071,-8.3341,-8.364,-8.3938,-8.4528,-8.4935,-8.5111,-8.5111,-8.5111,-8.5111,-8.5111,-8.5111,-8.5111,-8.5111,-8.5256,-8.54,-8.5831,-8.6117,-6.9451,-6.9451,-6.9451,-6.9677,-7.0029,-7.0179,-7.0336,-7.0311,-7.0922,-7.1781,-7.2617,-7.2428,-7.3462,-7.5448,-7.6732,-7.9093,-8.1388,-8.294,-8.461,-8.5724,-8.6211,-8.592,-8.5597,-8.511,-8.4784,-8.462,-8.4485,-8.4718,-8.5962,-8.5554,-8.6179,-8.6774,-8.7086,-8.6608,-8.6159,-8.6321,-8.6705,-8.7248,-8.7505,-8.7431,-8.7783,-8.7698,-8.749,-8.7347,-8.6718,-8.618,-8.5761,-8.5043,-8.4354,-8.3995,-8.3666,-8.3307,-8.3158,-8.3038,-8.2948,-8.2828,-8.2709,-8.2499,-8.202,-8.1242,-8.0466,-7.9634,-7.9331,-7.9036,-7.886,-7.8947,-7.9267,-7.9567,-7.9896,-7.9896,-7.9387,-7.9836,-8.0016,-7.963,-7.957,-7.957,-7.9391,-7.9477,-7.9148,-7.8938,-7.9118,-7.9447,-8.0225,-8.0913,-8.1332,-8.1482,-8.1781,-8.217,-8.2409,-8.2649,-8.2709,-8.2769,-8.2769,-8.2769,-8.2769,-8.2769,-8.292,-8.3221,-8.3521,-8.3789,-8.4203,-8.4789,-8.5111,-8.5111,-8.5111,-8.5111,-8.5111,-8.5111,-8.5111,-8.5111,-8.5256,-8.5545,-8.5974,-8.64,-8.6682,-6.9451,-6.9451,-6.9451,-6.9476,-6.9577,-7.0029,-7.0316,-7.0348,-7.1115,-7.2137,-7.3074,-7.3316,-7.4662,-7.6345,-7.701,-7.9495,-8.1788,-8.2941,-8.4096,-8.5682,-8.592,-8.5597,-8.511,-8.4784,-8.4427,-8.4262,-8.432,-8.4941,-8.6497,-8.6391,-8.688,-8.7333,-8.7745,-8.7607,-8.6803,-8.6822,-8.7312,-8.7768,-8.8207,-8.8678,-8.8599,-8.8694,-8.8606,-8.7993,-8.7616,-8.7048,-8.6359,-8.5731,-8.5073,-8.4684,-8.4474,-8.4115,-8.3786,-8.3636,-8.3367,-8.2918,-8.2798,-8.2739,-8.2619,-8.1482,-8.0855,-8.0289,-7.9871,-7.9839,-7.9902,-7.996,-7.9956,-8.0225,-8.0644,-8.0734,-8.0704,-8.0734,-8.0674,-8.0494,-8.0405,-8.0315,-8.0105,-8.0016,-7.9716,-7.9537,-7.9746,-8.0105,-8.0943,-8.1691,-8.229,-8.2559,-8.2679,-8.2769,-8.2769,-8.2769,-8.2769,-8.2769,-8.2769,-8.2769,-8.2769,-8.2769,-8.292,-8.3371,-8.3671,-8.3938,-8.4381,-8.482,-8.4966,-8.5111,-8.5111,-8.5111,-8.5111,-8.5111,-8.5256,-8.5545,-8.5688,-8.5974,-8.64,-8.6963,-8.738,-6.9451,-6.9451,-6.9451,-6.9631,-7.0017,-7.0168,-7.0143,-7.0375,-7.086,-7.1395,-7.2096,-7.3581,-7.4608,-7.5871,-7.8416,-8.0478,-8.1875,-8.3671,-8.4859,-8.5449,-8.5435,-8.511,-8.4784,-8.4456,-8.4262,-8.4262,-8.4514,-8.5369,-8.7057,-8.6939,-8.7676,-8.8442,-8.8341,-8.8148,-8.772,-8.7895,-8.8124,-8.8494,-8.8951,-8.9339,-8.911,-8.9292,-8.9068,-8.8245,-8.7945,-8.7496,-8.6868,-8.624,-8.5761,-8.5372,-8.5162,-8.4743,-8.4354,-8.4145,-8.3666,-8.3277,-8.3128,-8.2769,-8.2739,-8.223,-8.178,-8.1153,-8.0616,-8.0466,-8.0289,-8.0496,-8.0644,-8.0883,-8.1272,-8.1242,-8.0883,-8.1272,-8.1242,-8.0823,-8.0674,-8.0644,-8.0554,-8.0584,-8.0464,-8.0405,-8.0494,-8.0794,-8.1452,-8.1991,-8.2559,-8.2769,-8.2769,-8.2769,-8.2769,-8.2769,-8.2769,-8.2769,-8.2769,-8.2769,-8.2769,-8.292,-8.3071,-8.3371,-8.3671,-8.4086,-8.4381,-8.482,-8.5111,-8.5111,-8.5111,-8.5111,-8.5256,-8.54,-8.5831,-8.6117,-8.6259,-8.6259,-8.6682,-8.738,-8.8067,-6.9451,-6.9451,-6.9451,-6.9786,-7.0145,-7.0145,-7.0324,-7.0503,-7.0859,-7.1214,-7.1894,-7.3753,-7.5252,-7.6677,-7.9189,-8.1906,-8.2413,-8.3687,-8.4626,-8.5185,-8.4947,-8.4784,-8.4427,-8.4262,-8.4262,-8.4262,-8.4737,-8.5592,-8.7097,-8.7487,-8.8333,-8.9053,-8.8958,-8.8529,-8.8358,-8.8529,-8.8729,-8.9039,-8.9407,-8.9793,-8.9799,-8.9785,-8.9681,-8.9023,-8.8544,-8.8125,-8.7496,-8.6928,-8.6449,-8.612,-8.5791,-8.5432,-8.5073,-8.4504,-8.3995,-8.3666,-8.3187,-8.2828,-8.2739,-8.2739,-8.2229,-8.1839,-8.1362,-8.1153,-8.0854,-8.1153,-8.1392,-8.1601,-8.1871,-8.1781,-8.1631,-8.202,-8.1841,-8.1392,-8.1392,-8.1392,-8.1242,-8.1302,-8.1512,-8.1452,-8.1482,-8.1751,-8.1841,-8.223,-8.2739,-8.2769,-8.2769,-8.2769,-8.2769,-8.2769,-8.2769,-8.2769,-8.2769,-8.2769,-8.292,-8.3071,-8.3221,-8.3521,-8.3789,-8.4233,-8.4528,-8.4966,-8.5111,-8.5256,-8.5256,-8.5256,-8.54,-8.5688,-8.6117,-8.6541,-8.6823,-8.6963,-8.6994,-8.7656,-8.861,-6.9451,-6.9451,-6.9451,-6.9786,-7.0145,-7.0324,-7.0503,-7.0859,-7.1391,-7.1946,-7.2472,-7.378,-7.584,-7.8203,-8.0011,-8.1833,-8.3467,-8.4053,-8.4582,-8.4638,-8.4591,-8.4427,-8.4262,-8.4097,-8.4097,-8.4291,-8.4824,-8.5768,-8.6794,-8.7871,-8.905,-8.9537,-8.9268,-8.8787,-8.8787,-8.9098,-8.9268,-8.9437,-8.9774,-9.0216,-9.0263,-9.0489,-9.0249,-8.983,-8.9501,-8.8993,-8.8484,-8.8095,-8.7556,-8.7227,-8.7077,-8.6599,-8.594,-8.5103,-8.4444,-8.3786,-8.3158,-8.3068,-8.2769,-8.2798,-8.2769,-8.2559,-8.214,-8.1928,-8.1958,-8.19,-8.205,-8.223,-8.2499,-8.2589,-8.2649,-8.2619,-8.2589,-8.2469,-8.2499,-8.235,-8.211,-8.223,-8.2529,-8.2649,-8.2709,-8.2739,-8.2409,-8.2619,-8.3038,-8.2769,-8.2769,-8.2769,-8.2769,-8.2769,-8.2769,-8.2769,-8.292,-8.292,-8.3071,-8.3221,-8.3491,-8.3938,-8.4233,-8.4497,-8.4789,-8.5111,-8.5256,-8.5256,-8.5256,-8.54,-8.5831,-8.6259,-8.6682,-8.6994,-8.7241,-8.7518,-8.7656,-8.8203,-8.8846,-6.9451,-6.9451,-6.9451,-6.9991,-7.0681,-7.1063,-7.124,-7.1391,-7.1946,-7.2122,-7.2472,-7.5453,-7.6955,-7.7783,-8.0593,-8.2197,-8.2999,-8.3611,-8.4135,-8.4233,-8.4427,-8.4262,-8.4097,-8.4097,-8.4097,-8.4437,-8.5087,-8.6003,-8.7274,-8.8558,-8.9347,-8.9744,-8.9635,-8.9297,-8.9297,-8.9635,-8.9606,-8.9606,-9.0139,-9.0306,-9.0472,-9.0638,-9.0459,-9.01,-8.992,-8.9382,-8.8903,-8.8454,-8.7885,-8.7616,-8.7107,-8.6629,-8.6479,-8.5731,-8.5043,-8.3936,-8.3816,-8.3846,-8.3068,-8.3217,-8.3277,-8.2918,-8.2589,-8.2559,-8.2497,-8.2619,-8.2559,-8.2679,-8.2769,-8.2769,-8.2769,-8.2769,-8.2769,-8.2769,-8.2769,-8.2709,-8.2619,-8.3038,-8.3367,-8.3666,-8.3726,-8.3547,-8.3187,-8.3187,-8.3487,-8.3008,-8.2798,-8.2858,-8.2828,-8.2828,-8.292,-8.3071,-8.3071,-8.3041,-8.3341,-8.3491,-8.3938,-8.4203,-8.4497,-8.4643,-8.4966,-8.5256,-8.54,-8.5545,-8.5688,-8.6117,-8.64,-8.6823,-8.7241,-8.738,-8.7794,-8.7931,-8.8339,-8.8846,-8.941,-6.925,-6.9426,-6.9451,-6.9812,-7.0503,-7.0859,-7.1063,-7.1214,-7.192,-7.242,-7.3116,-7.5929,-7.7586,-7.8692,-8.1176,-8.2517,-8.2733,-8.3709,-8.4068,-8.4068,-8.4097,-8.4097,-8.4097,-8.4126,-8.4437,-8.4835,-8.5574,-8.6656,-8.793,-8.9122,-8.9942,-9.0306,-9.0139,-8.9635,-8.9635,-8.9803,-8.9971,-8.9971,-9.0139,-9.0472,-9.0638,-9.0638,-9.0369,-9.013,-9.004,-8.9651,-8.9202,-8.8723,-8.8514,-8.7975,-8.7347,-8.7137,-8.6808,-8.6,-8.5312,-8.4384,-8.4354,-8.4265,-8.3846,-8.3936,-8.3696,-8.3367,-8.3128,-8.3158,-8.3008,-8.2918,-8.2798,-8.2769,-8.2769,-8.2769,-8.2769,-8.2769,-8.2769,-8.2769,-8.2828,-8.2888,-8.3277,-8.3756,-8.4145,-8.4504,-8.4504,-8.4354,-8.4235,-8.4175,-8.3936,-8.3487,-8.3367,-8.3517,-8.3307,-8.3068,-8.3191,-8.3341,-8.3341,-8.3371,-8.364,-8.4086,-8.4233,-8.4528,-8.4674,-8.4966,-8.5256,-8.54,-8.5719,-8.6005,-8.6432,-8.6714,-8.6963,-8.738,-8.7794,-8.8067,-8.8475,-8.8878,-8.9278,-8.9641,-9.0196,-6.8999,-6.9451,-6.9451,-6.9786,-7.0145,-7.0145,-7.0145,-7.0324,-7.1868,-7.289,-7.3925,-7.5929,-7.8111,-7.9629,-8.1539,-8.2559,-8.3052,-8.3778,-8.4097,-8.4097,-8.4097,-8.4097,-8.4097,-8.4184,-8.4698,-8.5545,-8.6403,-8.7274,-8.8462,-8.9477,-9.0139,-9.0472,-9.0139,-8.9803,-8.9803,-9.0317,-9.0377,-9.0239,-9.0514,-9.0848,-9.0698,-9.0638,-9.0638,-9.0608,-9.0519,-9.0339,-9.001,-8.983,-8.9711,-8.8663,-8.7975,-8.7766,-8.6898,-8.621,-8.5492,-8.5162,-8.5073,-8.4773,-8.4624,-8.4624,-8.4354,-8.4055,-8.3816,-8.3816,-8.3666,-8.3068,-8.2828,-8.2948,-8.2978,-8.2798,-8.2769,-8.2798,-8.2798,-8.2978,-8.3128,-8.3397,-8.3846,-8.4384,-8.4953,-8.5312,-8.5492,-8.5282,-8.4743,-8.4624,-8.4534,-8.4025,-8.3849,-8.4029,-8.4062,-8.3823,-8.3793,-8.412,-8.4329,-8.4477,-8.4381,-8.4643,-8.4674,-8.482,-8.5111,-8.5256,-8.5688,-8.5862,-8.6005,-8.6432,-8.6823,-8.7102,-8.738,-8.7931,-8.8475,-8.8578,-8.9145,-8.9837,-9.0228,-9.052,-9.0908,-6.9325,-6.9451,-6.9786,-6.9786,-6.9631,-6.9966,-6.9991,-6.9966,-7.2516,-7.3726,-7.4096,-7.6345,-7.8495,-8.0097,-8.1568,-8.2559,-8.3197,-8.3778,-8.4039,-8.4097,-8.4097,-8.4184,-8.4242,-8.4562,-8.5076,-8.568,-8.6627,-8.8177,-8.9329,-8.9852,-9.0139,-9.0502,-9.0365,-9.0258,-9.0377,-9.0813,-9.1051,-9.0883,-9.1021,-9.1117,-9.0788,-9.0698,-9.0638,-9.0638,-9.0608,-9.0579,-9.0279,-8.995,-8.9471,-8.8634,-8.8065,-8.7467,-8.6718,-8.6509,-8.609,-8.5671,-8.5821,-8.5551,-8.5222,-8.5192,-8.5073,-8.4684,-8.4444,-8.4474,-8.4145,-8.3277,-8.2918,-8.3128,-8.3187,-8.3008,-8.2888,-8.2948,-8.3008,-8.3277,-8.3517,-8.3965,-8.4414,-8.5073,-8.5701,-8.603,-8.6329,-8.597,-8.5372,-8.5103,-8.5013,-8.4873,-8.4699,-8.485,-8.503,-8.4968,-8.4998,-8.5261,-8.5703,-8.5904,-8.5648,-8.54,-8.54,-8.54,-8.5545,-8.5831,-8.6148,-8.629,-8.6541,-8.6963,-8.738,-8.7656,-8.8203,-8.8712,-8.9113,-8.9378,-8.9805,-9.0487,-9.0908,-9.1229,-9.1714,-6.9225,-6.9426,-6.9786,-6.9631,-6.9426,-6.9812,-6.9966,-7.0477,-7.2863,-7.424,-7.5089,-7.7338,-7.9335,-8.0449,-8.173,-8.2588,-8.3226,-8.3807,-8.4039,-8.4097,-8.4184,-8.4358,-8.4591,-8.4939,-8.5716,-8.635,-8.7842,-8.928,-9.0109,-9.0336,-9.0532,-9.0801,-9.0723,-9.0872,-9.1081,-9.1697,-9.1876,-9.1707,-9.1876,-9.1656,-9.1057,-9.0848,-9.0668,-9.0638,-9.0638,-9.0638,-9.0549,-9.0219,-8.9801,-8.9023,-8.8274,-8.7437,-8.6868,-8.6629,-8.6479,-8.6299,-8.6329,-8.6359,-8.5881,-8.5731,-8.5791,-8.5342,-8.4803,-8.4714,-8.4414,-8.3666,-8.3427,-8.3636,-8.3995,-8.3876,-8.3876,-8.3906,-8.3936,-8.4115,-8.4235,-8.4504,-8.5073,-8.5731,-8.615,-8.6389,-8.6479,-8.621,-8.5731,-8.5462,-8.5408,-8.53,-8.5183,-8.5482,-8.575,-8.6127,-8.6219,-8.6459,-8.6804,-8.672,-8.6304,-8.6117,-8.6005,-8.6005,-8.6241,-8.6321,-8.6494,-8.6854,-8.7102,-8.7518,-8.7931,-8.8475,-8.8846,-8.9607,-8.9936,-9.0033,-9.0487,-9.1159,-9.1483,-9.1774,-9.2033,-6.9024,-6.9426,-6.9451,-6.9451,-6.9451,-6.9606,-7.012,-7.134,-7.3236,-7.5001,-7.6622,-7.8812,-8.0281,-8.1208,-8.2036,-8.2675,-8.3284,-8.3865,-8.4068,-8.4126,-8.4242,-8.4387,-8.4765,-8.5287,-8.6438,-8.7505,-8.8914,-8.9655,-9.0306,-9.0455,-9.0813,-9.1398,-9.1805,-9.2015,-9.2464,-9.2703,-9.2703,-9.2643,-9.2554,-9.2254,-9.1686,-9.1087,-9.0848,-9.0728,-9.0638,-9.0638,-9.0638,-9.0549,-9.0249,-8.9501,-8.8544,-8.7736,-8.7197,-8.6958,-8.6748,-8.6659,-8.6569,-8.6599,-8.6509,-8.6449,-8.624,-8.5851,-8.5222,-8.4893,-8.4654,-8.4504,-8.4295,-8.4474,-8.4863,-8.4654,-8.4654,-8.4684,-8.4714,-8.4893,-8.4983,-8.5103,-8.5761,-8.6299,-8.6479,-8.6689,-8.6539,-8.6329,-8.6307,-8.6038,-8.6054,-8.591,-8.6,-8.6328,-8.6619,-8.698,-8.7113,-8.73,-8.7507,-8.7324,-8.7137,-8.6917,-8.69,-8.7011,-8.7105,-8.7027,-8.698,-8.7336,-8.772,-8.8235,-8.8642,-8.9339,-8.9933,-9.0652,-9.0683,-9.0842,-9.0999,-9.1444,-9.1834,-9.1967,-9.2033,-6.9351,-6.9451,-6.9451,-6.9451,-6.9606,-7.063,-7.149,-7.2341,-7.5062,-7.701,-7.82,-7.9897,-8.1368,-8.2036,-8.2704,-8.3284,-8.372,-8.4039,-8.4068,-8.4126,-8.4533,-8.4533,-8.4939,-8.5955,-8.7283,-8.8377,-8.9179,-8.9606,-9.0455,-9.0813,-9.117,-9.1746,-9.1916,-9.2124,-9.2643,-9.2972,-9.3391,-9.3302,-9.3002,-9.2673,-9.2374,-9.1776,-9.1147,-9.0908,-9.0638,-9.0638,-9.0638,-9.0638,-9.0249,-8.9621,-8.8963,-8.8215,-8.7766,-8.7467,-8.7257,-8.6928,-8.6838,-8.6718,-8.6748,-8.6689,-8.6389,-8.6389,-8.597,-8.597,-8.5851,-8.5851,-8.5821,-8.615,-8.609,-8.5073,-8.4923,-8.5013,-8.5103,-8.5551,-8.5791,-8.6,-8.6419,-8.6539,-8.6599,-8.6659,-8.6787,-8.7012,-8.7452,-8.7304,-8.734,-8.7369,-8.7353,-8.761,-8.7436,-8.7731,-8.8047,-8.8221,-8.8472,-8.8394,-8.8251,-8.8158,-8.811,-8.8016,-8.7938,-8.7872,-8.7728,-8.7708,-8.8195,-8.891,-8.9899,-9.0881,-9.1303,-9.1233,-9.1653,-9.1648,-9.1477,-9.1695,-9.196,-9.2126,-9.2093]}]]